Wetterdaten: Freitag, 15.11.2019
Datum Zeit Temp. A. Feuchte A. Luftdruck Regen Wind Richtung Richtung Sonnenschein ET UV Solar Taupunkt Windchill Windböen
15.11.2019 00:00 0,9 °C 77 % 999,3 hPa 0,0 mm 0,0 km/h (0 Bft) S-SW 199 ° 0 min 0,000 mm 0,0 UV-I 0 W/m² -2,7 °C 0,9 °C 0,0 km/h (0 Bft)
15.11.2019 00:01 0,9 °C 77 % 999,3 hPa 0,0 mm 0,0 km/h (0 Bft) S-SW 199 ° 0 min 0,000 mm 0,0 UV-I 0 W/m² -2,7 °C 0,9 °C 0,0 km/h (0 Bft)
15.11.2019 00:02 0,9 °C 77 % 999,3 hPa 0,0 mm 0,0 km/h (0 Bft) S-SW 199 ° 0 min 0,000 mm 0,0 UV-I 0 W/m² -2,7 °C 0,9 °C 0,0 km/h (0 Bft)
15.11.2019 00:03 0,9 °C 77 % 999,3 hPa 0,0 mm 0,0 km/h (0 Bft) S-SW 199 ° 0 min 0,000 mm 0,0 UV-I 0 W/m² -2,7 °C 0,9 °C 0,0 km/h (0 Bft)
15.11.2019 00:04 0,9 °C 77 % 999,4 hPa 0,0 mm 0,0 km/h (0 Bft) S-SW 199 ° 0 min 0,000 mm 0,0 UV-I 0 W/m² -2,7 °C 0,9 °C 0,0 km/h (0 Bft)
15.11.2019 00:05 0,9 °C 78 % 999,4 hPa 0,0 mm 0,0 km/h (0 Bft) S-SW 200 ° 0 min 0,000 mm 0,0 UV-I 0 W/m² -2,5 °C 0,9 °C 0,0 km/h (0 Bft)
15.11.2019 00:06 0,9 °C 78 % 999,5 hPa 0,0 mm 0,0 km/h (0 Bft) S-SW 200 ° 0 min 0,000 mm 0,0 UV-I 0 W/m² -2,5 °C 0,9 °C 0,0 km/h (0 Bft)
15.11.2019 00:07 0,9 °C 78 % 999,6 hPa 0,0 mm 0,0 km/h (0 Bft) S-SW 200 ° 0 min 0,000 mm 0,0 UV-I 0 W/m² -2,5 °C 0,9 °C 0,0 km/h (0 Bft)
15.11.2019 00:08 0,9 °C 78 % 999,6 hPa 0,0 mm 0,0 km/h (0 Bft) S-SW 200 ° 0 min 0,000 mm 0,0 UV-I 0 W/m² -2,5 °C 0,9 °C 0,0 km/h (0 Bft)
15.11.2019 00:09 0,9 °C 78 % 999,6 hPa 0,0 mm 0,0 km/h (0 Bft) S-SW 200 ° 0 min 0,000 mm 0,0 UV-I 0 W/m² -2,5 °C 0,9 °C 0,0 km/h (0 Bft)
15.11.2019 00:10 0,9 °C 77 % 999,6 hPa 0,0 mm 0,0 km/h (0 Bft) S-SO 166 ° 0 min 0,000 mm 0,0 UV-I 0 W/m² -2,7 °C 0,9 °C 0,0 km/h (0 Bft)
15.11.2019 00:11 0,8 °C 77 % 999,5 hPa 0,0 mm 0,0 km/h (0 Bft) S-SO 166 ° 0 min 0,000 mm 0,0 UV-I 0 W/m² -2,8 °C 0,8 °C 0,0 km/h (0 Bft)
15.11.2019 00:12 0,8 °C 77 % 999,5 hPa 0,0 mm 0,0 km/h (0 Bft) S-SO 166 ° 0 min 0,000 mm 0,0 UV-I 0 W/m² -2,8 °C 0,8 °C 0,0 km/h (0 Bft)
15.11.2019 00:13 0,8 °C 78 % 999,5 hPa 0,0 mm 0,0 km/h (0 Bft) S-SO 166 ° 0 min 0,000 mm 0,0 UV-I 0 W/m² -2,6 °C 0,8 °C 0,0 km/h (0 Bft)
15.11.2019 00:14 0,8 °C 77 % 999,6 hPa 0,0 mm 0,0 km/h (0 Bft) S-SO 166 ° 0 min 0,000 mm 0,0 UV-I 0 W/m² -2,8 °C 0,8 °C 0,0 km/h (0 Bft)
15.11.2019 00:15 0,8 °C 78 % 999,6 hPa 0,0 mm 0,0 km/h (0 Bft) S-SO 166 ° 0 min 0,000 mm 0,0 UV-I 0 W/m² -2,6 °C 0,8 °C 0,0 km/h (0 Bft)
15.11.2019 00:16 0,7 °C 78 % 999,6 hPa 0,0 mm 0,0 km/h (0 Bft) S-SO 167 ° 0 min 0,000 mm 0,0 UV-I 0 W/m² -2,7 °C 0,7 °C 0,0 km/h (0 Bft)
15.11.2019 00:17 0,7 °C 78 % 999,6 hPa 0,0 mm 0,0 km/h (0 Bft) S-SO 167 ° 0 min 0,000 mm 0,0 UV-I 0 W/m² -2,7 °C 0,7 °C 0,0 km/h (0 Bft)
15.11.2019 00:18 0,7 °C 78 % 999,3 hPa 0,0 mm 0,0 km/h (0 Bft) S-SO 167 ° 0 min 0,000 mm 0,0 UV-I 0 W/m² -2,7 °C 0,7 °C 0,0 km/h (0 Bft)
15.11.2019 00:19 0,7 °C 78 % 999,3 hPa 0,0 mm 0,0 km/h (0 Bft) S-SO 167 ° 0 min 0,000 mm 0,0 UV-I 0 W/m² -2,7 °C 0,7 °C 0,0 km/h (0 Bft)
15.11.2019 00:20 0,7 °C 78 % 999,2 hPa 0,0 mm 6,3 km/h (2 Bft) S-SO 167 ° 0 min 0,000 mm 0,0 UV-I 0 W/m² -2,7 °C -1,3 °C 8,0 km/h (2 Bft)
15.11.2019 00:21 0,7 °C 78 % 999,2 hPa 0,0 mm 5,6 km/h (1 Bft) S-SO 167 ° 0 min 0,000 mm 0,0 UV-I 0 W/m² -2,7 °C -1,1 °C 6,4 km/h (2 Bft)
15.11.2019 00:22 0,7 °C 77 % 999,3 hPa 0,0 mm 3,5 km/h (1 Bft) S-SO 167 ° 0 min 0,000 mm 0,0 UV-I 0 W/m² -2,9 °C 0,7 °C 6,4 km/h (2 Bft)
15.11.2019 00:23 0,7 °C 77 % 999,3 hPa 0,0 mm 0,0 km/h (0 Bft) S-SO 167 ° 0 min 0,000 mm 0,0 UV-I 0 W/m² -2,9 °C 0,7 °C 0,0 km/h (0 Bft)
15.11.2019 00:24 0,7 °C 77 % 999,3 hPa 0,0 mm 2,7 km/h (1 Bft) S-SO 167 ° 0 min 0,000 mm 0,0 UV-I 0 W/m² -2,9 °C 0,7 °C 6,4 km/h (2 Bft)
15.11.2019 00:25 0,7 °C 77 % 999,3 hPa 0,0 mm 1,5 km/h (1 Bft) S-SO 166 ° 0 min 0,000 mm 0,0 UV-I 0 W/m² -2,9 °C 0,7 °C 4,8 km/h (1 Bft)
15.11.2019 00:26 0,7 °C 78 % 999,2 hPa 0,0 mm 3,8 km/h (1 Bft) O-NO 65 ° 0 min 0,000 mm 0,0 UV-I 0 W/m² -2,7 °C 0,7 °C 4,8 km/h (1 Bft)
15.11.2019 00:27 0,6 °C 78 % 999,2 hPa 0,0 mm 1,3 km/h (1 Bft) O-NO 65 ° 0 min 0,000 mm 0,0 UV-I 0 W/m² -2,8 °C 0,6 °C 3,2 km/h (1 Bft)
15.11.2019 00:28 0,6 °C 78 % 999,2 hPa 0,0 mm 0,0 km/h (0 Bft) O-NO 65 ° 0 min 0,000 mm 0,0 UV-I 0 W/m² -2,8 °C 0,6 °C 0,0 km/h (0 Bft)
15.11.2019 00:29 0,6 °C 78 % 999,3 hPa 0,0 mm 1,3 km/h (1 Bft) O-NO 65 ° 0 min 0,000 mm 0,0 UV-I 0 W/m² -2,8 °C 0,6 °C 3,2 km/h (1 Bft)
15.11.2019 00:30 0,6 °C 79 % 999,3 hPa 0,0 mm 3,8 km/h (1 Bft) O-NO 66 ° 0 min 0,000 mm 0,0 UV-I 0 W/m² -2,6 °C 0,6 °C 4,8 km/h (1 Bft)
15.11.2019 00:31 0,6 °C 79 % 999,2 hPa 0,0 mm 4,5 km/h (1 Bft) W-SW 238 ° 0 min 0,000 mm 0,0 UV-I 0 W/m² -2,6 °C 0,6 °C 6,4 km/h (2 Bft)
15.11.2019 00:32 0,5 °C 79 % 999,1 hPa 0,0 mm 4,8 km/h (1 Bft) W-SW 248 ° 0 min 0,000 mm 0,0 UV-I 0 W/m² -2,7 °C -0,9 °C 6,4 km/h (2 Bft)
15.11.2019 00:33 0,5 °C 79 % 999,1 hPa 0,0 mm 4,8 km/h (1 Bft) W 261 ° 0 min 0,000 mm 0,0 UV-I 0 W/m² -2,7 °C -0,9 °C 6,4 km/h (2 Bft)
15.11.2019 00:34 0,5 °C 79 % 999,0 hPa 0,0 mm 4,6 km/h (1 Bft) W-SW 255 ° 0 min 0,000 mm 0,0 UV-I 0 W/m² -2,7 °C -0,8 °C 6,4 km/h (2 Bft)
15.11.2019 00:35 0,5 °C 79 % 999,0 hPa 0,0 mm 4,3 km/h (1 Bft) W-SW 254 ° 0 min 0,000 mm 0,0 UV-I 0 W/m² -2,7 °C 0,5 °C 6,4 km/h (2 Bft)
15.11.2019 00:36 0,6 °C 79 % 999,2 hPa 0,0 mm 4,4 km/h (1 Bft) W-SW 257 ° 0 min 0,000 mm 0,0 UV-I 0 W/m² -2,6 °C 0,6 °C 6,4 km/h (2 Bft)
15.11.2019 00:37 0,5 °C 79 % 999,2 hPa 0,0 mm 3,0 km/h (1 Bft) N-NO 24 ° 0 min 0,000 mm 0,0 UV-I 0 W/m² -2,7 °C 0,5 °C 6,4 km/h (2 Bft)
15.11.2019 00:38 0,5 °C 79 % 999,2 hPa 0,0 mm 3,2 km/h (1 Bft) NO 53 ° 0 min 0,000 mm 0,0 UV-I 0 W/m² -2,7 °C 0,5 °C 4,8 km/h (1 Bft)
15.11.2019 00:39 0,4 °C 79 % 999,1 hPa 0,0 mm 3,8 km/h (1 Bft) NO 56 ° 0 min 0,000 mm 0,0 UV-I 0 W/m² -2,8 °C 0,4 °C 4,8 km/h (1 Bft)
15.11.2019 00:40 0,4 °C 79 % 999,1 hPa 0,0 mm 3,4 km/h (1 Bft) NO 56 ° 0 min 0,000 mm 0,0 UV-I 0 W/m² -2,8 °C 0,4 °C 4,8 km/h (1 Bft)
15.11.2019 00:41 0,4 °C 79 % 999,1 hPa 0,0 mm 2,4 km/h (1 Bft) NO 56 ° 0 min 0,000 mm 0,0 UV-I 0 W/m² -2,8 °C 0,4 °C 3,2 km/h (1 Bft)
15.11.2019 00:42 0,4 °C 80 % 999,1 hPa 0,0 mm 4,6 km/h (1 Bft) SO 146 ° 0 min 0,000 mm 0,0 UV-I 0 W/m² -2,6 °C -0,9 °C 8,0 km/h (2 Bft)
15.11.2019 00:43 0,4 °C 80 % 999,1 hPa 0,0 mm 5,9 km/h (2 Bft) SO 144 ° 0 min 0,000 mm 0,0 UV-I 0 W/m² -2,6 °C -1,5 °C 8,0 km/h (2 Bft)
15.11.2019 00:44 0,4 °C 80 % 999,1 hPa 0,0 mm 4,9 km/h (1 Bft) SO 144 ° 0 min 0,000 mm 0,0 UV-I 0 W/m² -2,6 °C -1,1 °C 6,4 km/h (2 Bft)
15.11.2019 00:45 0,4 °C 80 % 999,1 hPa 0,0 mm 3,1 km/h (1 Bft) SO 144 ° 0 min 0,000 mm 0,0 UV-I 0 W/m² -2,6 °C 0,4 °C 4,8 km/h (1 Bft)
15.11.2019 00:46 0,4 °C 80 % 999,1 hPa 0,0 mm 0,8 km/h (0 Bft) SO 144 ° 0 min 0,000 mm 0,0 UV-I 0 W/m² -2,6 °C 0,4 °C 3,2 km/h (1 Bft)
15.11.2019 00:47 0,4 °C 80 % 999,1 hPa 0,0 mm 0,0 km/h (0 Bft) SO 144 ° 0 min 0,000 mm 0,0 UV-I 0 W/m² -2,6 °C 0,4 °C 0,0 km/h (0 Bft)
15.11.2019 00:48 0,4 °C 80 % 999,2 hPa 0,0 mm 0,5 km/h (0 Bft) SO 144 ° 0 min 0,000 mm 0,0 UV-I 0 W/m² -2,6 °C 0,4 °C 3,2 km/h (1 Bft)
15.11.2019 00:49 0,4 °C 80 % 999,2 hPa 0,0 mm 2,7 km/h (1 Bft) SO 144 ° 0 min 0,000 mm 0,0 UV-I 0 W/m² -2,6 °C 0,4 °C 3,2 km/h (1 Bft)
15.11.2019 00:50 0,4 °C 80 % 999,2 hPa 0,0 mm 0,1 km/h (0 Bft) SO 144 ° 0 min 0,000 mm 0,0 UV-I 0 W/m² -2,6 °C 0,4 °C 1,6 km/h (1 Bft)
15.11.2019 00:51 0,4 °C 80 % 999,2 hPa 0,0 mm 0,2 km/h (0 Bft) SO 144 ° 0 min 0,000 mm 0,0 UV-I 0 W/m² -2,6 °C 0,4 °C 3,2 km/h (1 Bft)
15.11.2019 00:52 0,4 °C 80 % 999,3 hPa 0,0 mm 3,2 km/h (1 Bft) SO 144 ° 0 min 0,000 mm 0,0 UV-I 0 W/m² -2,6 °C 0,4 °C 4,8 km/h (1 Bft)
15.11.2019 00:53 0,4 °C 80 % 999,3 hPa 0,0 mm 2,5 km/h (1 Bft) SO 144 ° 0 min 0,000 mm 0,0 UV-I 0 W/m² -2,6 °C 0,4 °C 4,8 km/h (1 Bft)
15.11.2019 00:54 0,4 °C 80 % 999,2 hPa 0,0 mm 0,0 km/h (0 Bft) SO 144 ° 0 min 0,000 mm 0,0 UV-I 0 W/m² -2,6 °C 0,4 °C 0,0 km/h (0 Bft)
15.11.2019 00:55 0,4 °C 80 % 999,2 hPa 0,0 mm 1,3 km/h (1 Bft) SO 144 ° 0 min 0,000 mm 0,0 UV-I 0 W/m² -2,6 °C 0,4 °C 3,2 km/h (1 Bft)
15.11.2019 00:56 0,4 °C 79 % 999,1 hPa 0,0 mm 2,4 km/h (1 Bft) SO 144 ° 0 min 0,000 mm 0,0 UV-I 0 W/m² -2,8 °C 0,4 °C 4,8 km/h (1 Bft)
15.11.2019 00:57 0,4 °C 79 % 999,1 hPa 0,0 mm 5,7 km/h (1 Bft) O-SO 105 ° 0 min 0,000 mm 0,0 UV-I 0 W/m² -2,8 °C -1,4 °C 9,7 km/h (2 Bft)
15.11.2019 00:58 0,5 °C 79 % 998,8 hPa 0,0 mm 2,9 km/h (1 Bft) O-SO 105 ° 0 min 0,000 mm 0,0 UV-I 0 W/m² -2,7 °C 0,5 °C 6,4 km/h (2 Bft)
15.11.2019 00:59 0,6 °C 80 % 998,9 hPa 0,0 mm 2,2 km/h (1 Bft) O-SO 119 ° 0 min 0,000 mm 0,0 UV-I 0 W/m² -2,4 °C 0,6 °C 6,4 km/h (2 Bft)
15.11.2019 01:00 0,6 °C 79 % 998,9 hPa 0,0 mm 5,2 km/h (1 Bft) S-SO 147 ° 0 min 0,000 mm 0,0 UV-I 0 W/m² -2,6 °C -1,0 °C 6,4 km/h (2 Bft)
15.11.2019 01:01 0,6 °C 79 % 998,9 hPa 0,0 mm 7,9 km/h (2 Bft) S-SW 209 ° 0 min 0,000 mm 0,0 UV-I 0 W/m² -2,6 °C -2,0 °C 9,7 km/h (2 Bft)
15.11.2019 01:02 0,7 °C 79 % 999,0 hPa 0,0 mm 9,2 km/h (2 Bft) S-SW 204 ° 0 min 0,000 mm 0,0 UV-I 0 W/m² -2,5 °C -2,3 °C 12,9 km/h (3 Bft)
15.11.2019 01:03 0,8 °C 79 % 999,0 hPa 0,0 mm 13,3 km/h (3 Bft) S-SW 198 ° 0 min 0,000 mm 0,0 UV-I 0 W/m² -2,4 °C -3,1 °C 16,1 km/h (3 Bft)
15.11.2019 01:04 0,8 °C 79 % 998,8 hPa 0,0 mm 11,1 km/h (2 Bft) S 177 ° 0 min 0,000 mm 0,0 UV-I 0 W/m² -2,4 °C -2,6 °C 14,5 km/h (3 Bft)
15.11.2019 01:05 0,8 °C 78 % 998,8 hPa 0,0 mm 7,8 km/h (2 Bft) S-SO 161 ° 0 min 0,000 mm 0,0 UV-I 0 W/m² -2,6 °C -1,7 °C 9,7 km/h (2 Bft)
15.11.2019 01:06 0,9 °C 78 % 998,8 hPa 0,0 mm 5,9 km/h (2 Bft) S-SO 147 ° 0 min 0,000 mm 0,0 UV-I 0 W/m² -2,5 °C -1,0 °C 9,7 km/h (2 Bft)
15.11.2019 01:07 0,9 °C 78 % 998,8 hPa 0,0 mm 5,0 km/h (1 Bft) S-SO 147 ° 0 min 0,000 mm 0,0 UV-I 0 W/m² -2,5 °C -0,6 °C 6,4 km/h (2 Bft)
15.11.2019 01:08 0,9 °C 78 % 998,9 hPa 0,0 mm 4,6 km/h (1 Bft) S-SO 147 ° 0 min 0,000 mm 0,0 UV-I 0 W/m² -2,5 °C -0,4 °C 6,4 km/h (2 Bft)
15.11.2019 01:09 1,0 °C 78 % 998,9 hPa 0,0 mm 4,3 km/h (1 Bft) S-SO 148 ° 0 min 0,000 mm 0,0 UV-I 0 W/m² -2,4 °C 1,0 °C 4,8 km/h (1 Bft)
15.11.2019 01:10 1,0 °C 78 % 998,9 hPa 0,0 mm 2,9 km/h (1 Bft) S-SO 148 ° 0 min 0,000 mm 0,0 UV-I 0 W/m² -2,4 °C 1,0 °C 4,8 km/h (1 Bft)
15.11.2019 01:11 1,0 °C 78 % 998,9 hPa 0,0 mm 0,7 km/h (0 Bft) S-SO 148 ° 0 min 0,000 mm 0,0 UV-I 0 W/m² -2,4 °C 1,0 °C 3,2 km/h (1 Bft)
15.11.2019 01:12 1,1 °C 78 % 998,9 hPa 0,0 mm 0,3 km/h (0 Bft) S-SO 148 ° 0 min 0,000 mm 0,0 UV-I 0 W/m² -2,3 °C 1,1 °C 1,6 km/h (1 Bft)
15.11.2019 01:13 1,1 °C 78 % 998,8 hPa 0,0 mm 0,0 km/h (0 Bft) S-SO 148 ° 0 min 0,000 mm 0,0 UV-I 0 W/m² -2,3 °C 1,1 °C 0,0 km/h (0 Bft)
15.11.2019 01:14 1,1 °C 78 % 998,8 hPa 0,0 mm 2,4 km/h (1 Bft) W 280 ° 0 min 0,000 mm 0,0 UV-I 0 W/m² -2,3 °C 1,1 °C 6,4 km/h (2 Bft)
15.11.2019 01:15 1,1 °C 78 % 998,6 hPa 0,0 mm 3,8 km/h (1 Bft) W 279 ° 0 min 0,000 mm 0,0 UV-I 0 W/m² -2,3 °C 1,1 °C 4,8 km/h (1 Bft)
15.11.2019 01:16 1,1 °C 78 % 998,6 hPa 0,0 mm 2,6 km/h (1 Bft) W 279 ° 0 min 0,000 mm 0,0 UV-I 0 W/m² -2,3 °C 1,1 °C 3,2 km/h (1 Bft)
15.11.2019 01:17 1,1 °C 78 % 998,7 hPa 0,0 mm 0,0 km/h (0 Bft) W 279 ° 0 min 0,000 mm 0,0 UV-I 0 W/m² -2,3 °C 1,1 °C 0,0 km/h (0 Bft)
15.11.2019 01:18 1,0 °C 78 % 998,6 hPa 0,0 mm 0,0 km/h (0 Bft) W 279 ° 0 min 0,000 mm 0,0 UV-I 0 W/m² -2,4 °C 1,0 °C 0,0 km/h (0 Bft)
15.11.2019 01:19 1,0 °C 78 % 998,6 hPa 0,0 mm 0,0 km/h (0 Bft) W 279 ° 0 min 0,000 mm 0,0 UV-I 0 W/m² -2,4 °C 1,0 °C 0,0 km/h (0 Bft)
15.11.2019 01:20 1,0 °C 78 % 998,5 hPa 0,0 mm 0,0 km/h (0 Bft) W 279 ° 0 min 0,000 mm 0,0 UV-I 0 W/m² -2,4 °C 1,0 °C 0,0 km/h (0 Bft)
15.11.2019 01:21 1,0 °C 78 % 998,5 hPa 0,0 mm 0,0 km/h (0 Bft) W 279 ° 0 min 0,000 mm 0,0 UV-I 0 W/m² -2,4 °C 1,0 °C 0,0 km/h (0 Bft)
15.11.2019 01:22 0,9 °C 78 % 998,6 hPa 0,0 mm 0,0 km/h (0 Bft) W 279 ° 0 min 0,000 mm 0,0 UV-I 0 W/m² -2,5 °C 0,9 °C 0,0 km/h (0 Bft)
15.11.2019 01:23 0,9 °C 78 % 998,7 hPa 0,0 mm 0,0 km/h (0 Bft) W 279 ° 0 min 0,000 mm 0,0 UV-I 0 W/m² -2,5 °C 0,9 °C 0,0 km/h (0 Bft)
15.11.2019 01:24 0,9 °C 78 % 998,7 hPa 0,0 mm 0,0 km/h (0 Bft) W 279 ° 0 min 0,000 mm 0,0 UV-I 0 W/m² -2,5 °C 0,9 °C 0,0 km/h (0 Bft)
15.11.2019 01:25 0,9 °C 78 % 998,7 hPa 0,0 mm 0,0 km/h (0 Bft) W 279 ° 0 min 0,000 mm 0,0 UV-I 0 W/m² -2,5 °C 0,9 °C 0,0 km/h (0 Bft)
15.11.2019 01:26 0,9 °C 78 % 998,6 hPa 0,0 mm 0,0 km/h (0 Bft) W 279 ° 0 min 0,000 mm 0,0 UV-I 0 W/m² -2,5 °C 0,9 °C 0,0 km/h (0 Bft)
15.11.2019 01:27 0,9 °C 78 % 998,6 hPa 0,0 mm 0,0 km/h (0 Bft) W 279 ° 0 min 0,000 mm 0,0 UV-I 0 W/m² -2,5 °C 0,9 °C 0,0 km/h (0 Bft)
15.11.2019 01:28 0,8 °C 78 % 998,6 hPa 0,0 mm 0,0 km/h (0 Bft) W 279 ° 0 min 0,000 mm 0,0 UV-I 0 W/m² -2,6 °C 0,8 °C 0,0 km/h (0 Bft)
15.11.2019 01:29 0,8 °C 78 % 998,5 hPa 0,0 mm 0,0 km/h (0 Bft) W 279 ° 0 min 0,000 mm 0,0 UV-I 0 W/m² -2,6 °C 0,8 °C 0,0 km/h (0 Bft)
15.11.2019 01:30 0,8 °C 78 % 998,5 hPa 0,0 mm 0,5 km/h (0 Bft) W 280 ° 0 min 0,000 mm 0,0 UV-I 0 W/m² -2,6 °C 0,8 °C 1,6 km/h (1 Bft)
15.11.2019 01:31 0,8 °C 78 % 998,6 hPa 0,0 mm 2,0 km/h (1 Bft) W 280 ° 0 min 0,000 mm 0,0 UV-I 0 W/m² -2,6 °C 0,8 °C 3,2 km/h (1 Bft)
15.11.2019 01:32 0,8 °C 78 % 998,6 hPa 0,0 mm 0,0 km/h (0 Bft) W 280 ° 0 min 0,000 mm 0,0 UV-I 0 W/m² -2,6 °C 0,8 °C 0,0 km/h (0 Bft)
15.11.2019 01:33 0,7 °C 79 % 998,5 hPa 0,0 mm 0,0 km/h (0 Bft) W 280 ° 0 min 0,000 mm 0,0 UV-I 0 W/m² -2,5 °C 0,7 °C 0,0 km/h (0 Bft)
15.11.2019 01:34 0,7 °C 78 % 998,4 hPa 0,0 mm 0,0 km/h (0 Bft) W 280 ° 0 min 0,000 mm 0,0 UV-I 0 W/m² -2,7 °C 0,7 °C 0,0 km/h (0 Bft)
15.11.2019 01:35 0,7 °C 79 % 998,4 hPa 0,0 mm 0,0 km/h (0 Bft) W 280 ° 0 min 0,000 mm 0,0 UV-I 0 W/m² -2,5 °C 0,7 °C 0,0 km/h (0 Bft)
15.11.2019 01:36 0,7 °C 79 % 998,3 hPa 0,0 mm 0,0 km/h (0 Bft) W 280 ° 0 min 0,000 mm 0,0 UV-I 0 W/m² -2,5 °C 0,7 °C 0,0 km/h (0 Bft)
15.11.2019 01:37 0,6 °C 79 % 998,3 hPa 0,0 mm 0,0 km/h (0 Bft) W 280 ° 0 min 0,000 mm 0,0 UV-I 0 W/m² -2,6 °C 0,6 °C 0,0 km/h (0 Bft)
15.11.2019 01:38 0,6 °C 79 % 998,3 hPa 0,0 mm 0,0 km/h (0 Bft) W 280 ° 0 min 0,000 mm 0,0 UV-I 0 W/m² -2,6 °C 0,6 °C 0,0 km/h (0 Bft)
15.11.2019 01:39 0,6 °C 79 % 998,3 hPa 0,0 mm 0,0 km/h (0 Bft) W 280 ° 0 min 0,000 mm 0,0 UV-I 0 W/m² -2,6 °C 0,6 °C 0,0 km/h (0 Bft)
15.11.2019 01:40 0,5 °C 79 % 998,3 hPa 0,0 mm 0,0 km/h (0 Bft) W 279 ° 0 min 0,000 mm 0,0 UV-I 0 W/m² -2,7 °C 0,5 °C 0,0 km/h (0 Bft)
15.11.2019 01:41 0,4 °C 79 % 998,4 hPa 0,0 mm 0,0 km/h (0 Bft) W 279 ° 0 min 0,000 mm 0,0 UV-I 0 W/m² -2,8 °C 0,4 °C 0,0 km/h (0 Bft)
15.11.2019 01:42 0,4 °C 79 % 998,5 hPa 0,0 mm 0,0 km/h (0 Bft) W 279 ° 0 min 0,000 mm 0,0 UV-I 0 W/m² -2,8 °C 0,4 °C 0,0 km/h (0 Bft)
15.11.2019 01:43 0,4 °C 79 % 998,5 hPa 0,0 mm 0,0 km/h (0 Bft) W 280 ° 0 min 0,000 mm 0,0 UV-I 0 W/m² -2,8 °C 0,4 °C 0,0 km/h (0 Bft)
15.11.2019 01:44 0,3 °C 79 % 998,5 hPa 0,0 mm 0,0 km/h (0 Bft) W 280 ° 0 min 0,000 mm 0,0 UV-I 0 W/m² -2,9 °C 0,3 °C 0,0 km/h (0 Bft)
15.11.2019 01:45 0,3 °C 79 % 998,4 hPa 0,0 mm 0,0 km/h (0 Bft) W 280 ° 0 min 0,000 mm 0,0 UV-I 0 W/m² -2,9 °C 0,3 °C 0,0 km/h (0 Bft)
15.11.2019 01:46 0,3 °C 80 % 998,4 hPa 0,0 mm 0,0 km/h (0 Bft) W 280 ° 0 min 0,000 mm 0,0 UV-I 0 W/m² -2,7 °C 0,3 °C 0,0 km/h (0 Bft)
15.11.2019 01:47 0,2 °C 80 % 998,5 hPa 0,0 mm 0,0 km/h (0 Bft) W 280 ° 0 min 0,000 mm 0,0 UV-I 0 W/m² -2,8 °C 0,2 °C 0,0 km/h (0 Bft)
15.11.2019 01:48 0,2 °C 80 % 998,5 hPa 0,0 mm 0,0 km/h (0 Bft) W 280 ° 0 min 0,000 mm 0,0 UV-I 0 W/m² -2,8 °C 0,2 °C 0,0 km/h (0 Bft)
15.11.2019 01:49 0,1 °C 80 % 998,5 hPa 0,0 mm 0,0 km/h (0 Bft) W 280 ° 0 min 0,000 mm 0,0 UV-I 0 W/m² -2,9 °C 0,1 °C 0,0 km/h (0 Bft)
15.11.2019 01:50 0,1 °C 80 % 998,5 hPa 0,0 mm 0,0 km/h (0 Bft) W 280 ° 0 min 0,000 mm 0,0 UV-I 0 W/m² -2,9 °C 0,1 °C 0,0 km/h (0 Bft)
15.11.2019 01:51 0,1 °C 81 % 998,5 hPa 0,0 mm 0,0 km/h (0 Bft) W 280 ° 0 min 0,000 mm 0,0 UV-I 0 W/m² -2,8 °C 0,1 °C 0,0 km/h (0 Bft)
15.11.2019 01:52 0,0 °C 81 % 998,4 hPa 0,0 mm 0,0 km/h (0 Bft) W 280 ° 0 min 0,000 mm 0,0 UV-I 0 W/m² -2,9 °C 0,0 °C 0,0 km/h (0 Bft)
15.11.2019 01:53 -0,1 °C 81 % 998,4 hPa 0,0 mm 0,0 km/h (0 Bft) W 280 ° 0 min 0,000 mm 0,0 UV-I 0 W/m² -3,0 °C -0,1 °C 0,0 km/h (0 Bft)
15.11.2019 01:54 -0,1 °C 81 % 998,3 hPa 0,0 mm 0,0 km/h (0 Bft) W 280 ° 0 min 0,000 mm 0,0 UV-I 0 W/m² -3,0 °C -0,1 °C 0,0 km/h (0 Bft)
15.11.2019 01:55 -0,1 °C 81 % 998,3 hPa 0,0 mm 0,0 km/h (0 Bft) W 280 ° 0 min 0,000 mm 0,0 UV-I 0 W/m² -3,0 °C -0,1 °C 0,0 km/h (0 Bft)
15.11.2019 01:56 -0,1 °C 81 % 998,3 hPa 0,0 mm 0,0 km/h (0 Bft) W 279 ° 0 min 0,000 mm 0,0 UV-I 0 W/m² -3,0 °C -0,1 °C 0,0 km/h (0 Bft)
15.11.2019 01:57 -0,2 °C 81 % 998,2 hPa 0,0 mm 0,0 km/h (0 Bft) W 279 ° 0 min 0,000 mm 0,0 UV-I 0 W/m² -3,1 °C -0,2 °C 0,0 km/h (0 Bft)
15.11.2019 01:58 -0,2 °C 81 % 998,3 hPa 0,0 mm 0,0 km/h (0 Bft) W 279 ° 0 min 0,000 mm 0,0 UV-I 0 W/m² -3,1 °C -0,2 °C 0,0 km/h (0 Bft)
15.11.2019 01:59 -0,2 °C 82 % 998,3 hPa 0,0 mm 0,0 km/h (0 Bft) W 279 ° 0 min 0,000 mm 0,0 UV-I 0 W/m² -2,9 °C -0,2 °C 0,0 km/h (0 Bft)
15.11.2019 02:00 -0,3 °C 82 % 998,4 hPa 0,0 mm 0,0 km/h (0 Bft) W 279 ° 0 min 0,000 mm 0,0 UV-I 0 W/m² -3,0 °C -0,3 °C 0,0 km/h (0 Bft)
15.11.2019 02:01 -0,3 °C 82 % 998,4 hPa 0,0 mm 0,0 km/h (0 Bft) W 279 ° 0 min 0,000 mm 0,0 UV-I 0 W/m² -3,0 °C -0,3 °C 0,0 km/h (0 Bft)
15.11.2019 02:02 -0,3 °C 82 % 998,4 hPa 0,0 mm 0,0 km/h (0 Bft) W 279 ° 0 min 0,000 mm 0,0 UV-I 0 W/m² -3,0 °C -0,3 °C 0,0 km/h (0 Bft)
15.11.2019 02:03 -0,3 °C 82 % 998,3 hPa 0,0 mm 0,0 km/h (0 Bft) W 279 ° 0 min 0,000 mm 0,0 UV-I 0 W/m² -3,0 °C -0,3 °C 0,0 km/h (0 Bft)
15.11.2019 02:04 -0,4 °C 83 % 998,5 hPa 0,0 mm 0,0 km/h (0 Bft) W 279 ° 0 min 0,000 mm 0,0 UV-I 0 W/m² -2,9 °C -0,4 °C 0,0 km/h (0 Bft)
15.11.2019 02:05 -0,4 °C 83 % 998,5 hPa 0,0 mm 0,0 km/h (0 Bft) W 279 ° 0 min 0,000 mm 0,0 UV-I 0 W/m² -2,9 °C -0,4 °C 0,0 km/h (0 Bft)
15.11.2019 02:06 -0,4 °C 83 % 998,5 hPa 0,0 mm 0,0 km/h (0 Bft) W 279 ° 0 min 0,000 mm 0,0 UV-I 0 W/m² -2,9 °C -0,4 °C 0,0 km/h (0 Bft)
15.11.2019 02:07 -0,5 °C 83 % 998,5 hPa 0,0 mm 0,0 km/h (0 Bft) W 279 ° 0 min 0,000 mm 0,0 UV-I 0 W/m² -3,0 °C -0,5 °C 0,0 km/h (0 Bft)
15.11.2019 02:08 -0,6 °C 83 % 998,4 hPa 0,0 mm 0,0 km/h (0 Bft) W 279 ° 0 min 0,000 mm 0,0 UV-I 0 W/m² -3,1 °C -0,6 °C 0,0 km/h (0 Bft)
15.11.2019 02:09 -0,6 °C 83 % 998,4 hPa 0,0 mm 0,0 km/h (0 Bft) W 279 ° 0 min 0,000 mm 0,0 UV-I 0 W/m² -3,1 °C -0,6 °C 0,0 km/h (0 Bft)
15.11.2019 02:10 -0,6 °C 83 % 998,4 hPa 0,0 mm 0,0 km/h (0 Bft) W 279 ° 0 min 0,000 mm 0,0 UV-I 0 W/m² -3,1 °C -0,6 °C 0,0 km/h (0 Bft)
15.11.2019 02:11 -0,6 °C 83 % 998,4 hPa 0,0 mm 0,0 km/h (0 Bft) W 279 ° 0 min 0,000 mm 0,0 UV-I 0 W/m² -3,1 °C -0,6 °C 0,0 km/h (0 Bft)
15.11.2019 02:12 -0,6 °C 84 % 998,3 hPa 0,0 mm 0,0 km/h (0 Bft) W 279 ° 0 min 0,000 mm 0,0 UV-I 0 W/m² -3,0 °C -0,6 °C 0,0 km/h (0 Bft)
15.11.2019 02:13 -0,6 °C 84 % 998,2 hPa 0,0 mm 0,0 km/h (0 Bft) W 279 ° 0 min 0,000 mm 0,0 UV-I 0 W/m² -3,0 °C -0,6 °C 0,0 km/h (0 Bft)
15.11.2019 02:14 -0,6 °C 84 % 998,2 hPa 0,0 mm 0,0 km/h (0 Bft) W 279 ° 0 min 0,000 mm 0,0 UV-I 0 W/m² -3,0 °C -0,6 °C 0,0 km/h (0 Bft)
15.11.2019 02:15 -0,7 °C 84 % 998,2 hPa 0,0 mm 0,1 km/h (0 Bft) S 184 ° 0 min 0,000 mm 0,0 UV-I 0 W/m² -3,1 °C -0,7 °C 3,2 km/h (1 Bft)
15.11.2019 02:16 -0,6 °C 85 % 998,2 hPa 0,0 mm 5,9 km/h (2 Bft) S 184 ° 0 min 0,000 mm 0,0 UV-I 0 W/m² -2,8 °C -2,7 °C 8,0 km/h (2 Bft)
15.11.2019 02:17 -0,7 °C 85 % 998,3 hPa 0,0 mm 6,1 km/h (2 Bft) S 184 ° 0 min 0,000 mm 0,0 UV-I 0 W/m² -2,9 °C -2,9 °C 8,0 km/h (2 Bft)
15.11.2019 02:18 -0,6 °C 85 % 998,2 hPa 0,0 mm 2,6 km/h (1 Bft) S 184 ° 0 min 0,000 mm 0,0 UV-I 0 W/m² -2,8 °C -0,6 °C 4,8 km/h (1 Bft)
15.11.2019 02:19 -0,6 °C 85 % 998,2 hPa 0,0 mm 0,0 km/h (0 Bft) S 184 ° 0 min 0,000 mm 0,0 UV-I 0 W/m² -2,8 °C -0,6 °C 0,0 km/h (0 Bft)
15.11.2019 02:20 -0,6 °C 85 % 998,2 hPa 0,0 mm 0,0 km/h (0 Bft) S 185 ° 0 min 0,000 mm 0,0 UV-I 0 W/m² -2,8 °C -0,6 °C 0,0 km/h (0 Bft)
15.11.2019 02:21 -0,6 °C 85 % 998,1 hPa 0,0 mm 0,4 km/h (0 Bft) S 185 ° 0 min 0,000 mm 0,0 UV-I 0 W/m² -2,8 °C -0,6 °C 4,8 km/h (1 Bft)
15.11.2019 02:22 -0,6 °C 85 % 998,1 hPa 0,0 mm 6,3 km/h (2 Bft) S-SW 192 ° 0 min 0,000 mm 0,0 UV-I 0 W/m² -2,8 °C -2,8 °C 6,4 km/h (2 Bft)
15.11.2019 02:23 -0,6 °C 85 % 998,1 hPa 0,0 mm 4,9 km/h (1 Bft) S-SW 192 ° 0 min 0,000 mm 0,0 UV-I 0 W/m² -2,8 °C -2,2 °C 6,4 km/h (2 Bft)
15.11.2019 02:24 -0,6 °C 85 % 998,1 hPa 0,0 mm 4,8 km/h (1 Bft) S-SW 192 ° 0 min 0,000 mm 0,0 UV-I 0 W/m² -2,8 °C -2,2 °C 6,4 km/h (2 Bft)
15.11.2019 02:25 -0,5 °C 85 % 998,1 hPa 0,0 mm 5,5 km/h (1 Bft) S-SW 192 ° 0 min 0,000 mm 0,0 UV-I 0 W/m² -2,7 °C -2,4 °C 6,4 km/h (2 Bft)
15.11.2019 02:26 -0,5 °C 85 % 998,1 hPa 0,0 mm 3,9 km/h (1 Bft) S-SW 192 ° 0 min 0,000 mm 0,0 UV-I 0 W/m² -2,7 °C -0,5 °C 4,8 km/h (1 Bft)
15.11.2019 02:27 -0,4 °C 85 % 998,1 hPa 0,0 mm 3,7 km/h (1 Bft) S-SW 192 ° 0 min 0,000 mm 0,0 UV-I 0 W/m² -2,6 °C -0,4 °C 4,8 km/h (1 Bft)
15.11.2019 02:28 -0,4 °C 85 % 998,0 hPa 0,0 mm 3,7 km/h (1 Bft) S-SW 192 ° 0 min 0,000 mm 0,0 UV-I 0 W/m² -2,6 °C -0,4 °C 4,8 km/h (1 Bft)
15.11.2019 02:29 -0,4 °C 85 % 998,0 hPa 0,0 mm 1,1 km/h (1 Bft) S-SW 192 ° 0 min 0,000 mm 0,0 UV-I 0 W/m² -2,6 °C -0,4 °C 3,2 km/h (1 Bft)
15.11.2019 02:30 -0,4 °C 85 % 998,0 hPa 0,0 mm 0,0 km/h (0 Bft) S-SW 192 ° 0 min 0,000 mm 0,0 UV-I 0 W/m² -2,6 °C -0,4 °C 0,0 km/h (0 Bft)
15.11.2019 02:31 -0,4 °C 85 % 997,9 hPa 0,0 mm 0,0 km/h (0 Bft) S-SW 192 ° 0 min 0,000 mm 0,0 UV-I 0 W/m² -2,6 °C -0,4 °C 0,0 km/h (0 Bft)
15.11.2019 02:32 -0,4 °C 85 % 997,9 hPa 0,0 mm 0,0 km/h (0 Bft) S-SW 192 ° 0 min 0,000 mm 0,0 UV-I 0 W/m² -2,6 °C -0,4 °C 0,0 km/h (0 Bft)
15.11.2019 02:33 -0,4 °C 85 % 997,8 hPa 0,0 mm 0,0 km/h (0 Bft) S-SW 192 ° 0 min 0,000 mm 0,0 UV-I 0 W/m² -2,6 °C -0,4 °C 0,0 km/h (0 Bft)
15.11.2019 02:34 -0,4 °C 85 % 997,8 hPa 0,0 mm 0,0 km/h (0 Bft) S-SW 192 ° 0 min 0,000 mm 0,0 UV-I 0 W/m² -2,6 °C -0,4 °C 0,0 km/h (0 Bft)
15.11.2019 02:35 -0,4 °C 85 % 997,8 hPa 0,0 mm 0,0 km/h (0 Bft) S-SW 192 ° 0 min 0,000 mm 0,0 UV-I 0 W/m² -2,6 °C -0,4 °C 0,0 km/h (0 Bft)
15.11.2019 02:36 -0,4 °C 85 % 997,8 hPa 0,0 mm 0,0 km/h (0 Bft) S-SW 192 ° 0 min 0,000 mm 0,0 UV-I 0 W/m² -2,6 °C -0,4 °C 0,0 km/h (0 Bft)
15.11.2019 02:37 -0,4 °C 85 % 997,7 hPa 0,0 mm 0,0 km/h (0 Bft) S-SW 192 ° 0 min 0,000 mm 0,0 UV-I 0 W/m² -2,6 °C -0,4 °C 0,0 km/h (0 Bft)
15.11.2019 02:38 -0,4 °C 85 % 997,8 hPa 0,0 mm 0,0 km/h (0 Bft) S-SW 192 ° 0 min 0,000 mm 0,0 UV-I 0 W/m² -2,6 °C -0,4 °C 0,0 km/h (0 Bft)
15.11.2019 02:39 -0,4 °C 85 % 997,7 hPa 0,0 mm 0,0 km/h (0 Bft) S-SW 192 ° 0 min 0,000 mm 0,0 UV-I 0 W/m² -2,6 °C -0,4 °C 0,0 km/h (0 Bft)
15.11.2019 02:40 -0,4 °C 85 % 997,7 hPa 0,0 mm 0,0 km/h (0 Bft) S-SW 192 ° 0 min 0,000 mm 0,0 UV-I 0 W/m² -2,6 °C -0,4 °C 0,0 km/h (0 Bft)
15.11.2019 02:41 -0,4 °C 85 % 997,6 hPa 0,0 mm 0,0 km/h (0 Bft) S-SW 192 ° 0 min 0,000 mm 0,0 UV-I 0 W/m² -2,6 °C -0,4 °C 0,0 km/h (0 Bft)
15.11.2019 02:42 -0,4 °C 85 % 997,6 hPa 0,0 mm 0,0 km/h (0 Bft) S-SW 192 ° 0 min 0,000 mm 0,0 UV-I 0 W/m² -2,6 °C -0,4 °C 0,0 km/h (0 Bft)
15.11.2019 02:43 -0,5 °C 85 % 997,6 hPa 0,0 mm 0,0 km/h (0 Bft) S-SW 192 ° 0 min 0,000 mm 0,0 UV-I 0 W/m² -2,7 °C -0,5 °C 0,0 km/h (0 Bft)
15.11.2019 02:44 -0,5 °C 85 % 997,6 hPa 0,0 mm 0,0 km/h (0 Bft) S-SW 192 ° 0 min 0,000 mm 0,0 UV-I 0 W/m² -2,7 °C -0,5 °C 0,0 km/h (0 Bft)
15.11.2019 02:45 -0,5 °C 85 % 997,6 hPa 0,0 mm 0,0 km/h (0 Bft) S-SW 192 ° 0 min 0,000 mm 0,0 UV-I 0 W/m² -2,7 °C -0,5 °C 0,0 km/h (0 Bft)
15.11.2019 02:46 -0,6 °C 85 % 997,6 hPa 0,0 mm 0,0 km/h (0 Bft) S-SW 192 ° 0 min 0,000 mm 0,0 UV-I 0 W/m² -2,8 °C -0,6 °C 0,0 km/h (0 Bft)
15.11.2019 02:47 -0,6 °C 85 % 997,6 hPa 0,0 mm 0,0 km/h (0 Bft) S-SW 192 ° 0 min 0,000 mm 0,0 UV-I 0 W/m² -2,8 °C -0,6 °C 0,0 km/h (0 Bft)
15.11.2019 02:48 -0,6 °C 85 % 997,5 hPa 0,0 mm 0,0 km/h (0 Bft) S-SW 192 ° 0 min 0,000 mm 0,0 UV-I 0 W/m² -2,8 °C -0,6 °C 0,0 km/h (0 Bft)
15.11.2019 02:49 -0,6 °C 85 % 997,5 hPa 0,0 mm 0,0 km/h (0 Bft) S 191 ° 0 min 0,000 mm 0,0 UV-I 0 W/m² -2,8 °C -0,6 °C 0,0 km/h (0 Bft)
15.11.2019 02:50 -0,6 °C 85 % 997,3 hPa 0,0 mm 0,0 km/h (0 Bft) S 191 ° 0 min 0,000 mm 0,0 UV-I 0 W/m² -2,8 °C -0,6 °C 0,0 km/h (0 Bft)
15.11.2019 02:51 -0,6 °C 85 % 997,3 hPa 0,0 mm 0,0 km/h (0 Bft) S 191 ° 0 min 0,000 mm 0,0 UV-I 0 W/m² -2,8 °C -0,6 °C 0,0 km/h (0 Bft)
15.11.2019 02:52 -0,6 °C 85 % 997,3 hPa 0,0 mm 0,0 km/h (0 Bft) S 191 ° 0 min 0,000 mm 0,0 UV-I 0 W/m² -2,8 °C -0,6 °C 0,0 km/h (0 Bft)
15.11.2019 02:53 -0,6 °C 85 % 997,2 hPa 0,0 mm 0,0 km/h (0 Bft) S 191 ° 0 min 0,000 mm 0,0 UV-I 0 W/m² -2,8 °C -0,6 °C 0,0 km/h (0 Bft)
15.11.2019 02:54 -0,6 °C 85 % 997,2 hPa 0,0 mm 0,0 km/h (0 Bft) S-SW 192 ° 0 min 0,000 mm 0,0 UV-I 0 W/m² -2,8 °C -0,6 °C 0,0 km/h (0 Bft)
15.11.2019 02:55 -0,6 °C 85 % 997,1 hPa 0,0 mm 0,0 km/h (0 Bft) S-SW 192 ° 0 min 0,000 mm 0,0 UV-I 0 W/m² -2,8 °C -0,6 °C 0,0 km/h (0 Bft)
15.11.2019 02:56 -0,6 °C 85 % 997,1 hPa 0,0 mm 0,0 km/h (0 Bft) S-SW 192 ° 0 min 0,000 mm 0,0 UV-I 0 W/m² -2,8 °C -0,6 °C 0,0 km/h (0 Bft)
15.11.2019 02:57 -0,7 °C 85 % 997,1 hPa 0,0 mm 0,0 km/h (0 Bft) S-SW 192 ° 0 min 0,000 mm 0,0 UV-I 0 W/m² -2,9 °C -0,7 °C 0,0 km/h (0 Bft)
15.11.2019 02:58 -0,7 °C 85 % 997,1 hPa 0,0 mm 0,0 km/h (0 Bft) S-SW 192 ° 0 min 0,000 mm 0,0 UV-I 0 W/m² -2,9 °C -0,7 °C 0,0 km/h (0 Bft)
15.11.2019 02:59 -0,7 °C 85 % 997,2 hPa 0,0 mm 0,0 km/h (0 Bft) S-SW 192 ° 0 min 0,000 mm 0,0 UV-I 0 W/m² -2,9 °C -0,7 °C 0,0 km/h (0 Bft)
15.11.2019 03:00 -0,7 °C 85 % 997,2 hPa 0,0 mm 0,0 km/h (0 Bft) S-SW 192 ° 0 min 0,000 mm 0,0 UV-I 0 W/m² -2,9 °C -0,7 °C 0,0 km/h (0 Bft)
15.11.2019 03:01 -0,7 °C 85 % 997,1 hPa 0,0 mm 0,0 km/h (0 Bft) S-SW 192 ° 0 min 0,000 mm 0,0 UV-I 0 W/m² -2,9 °C -0,7 °C 0,0 km/h (0 Bft)
15.11.2019 03:02 -0,8 °C 85 % 997,0 hPa 0,0 mm 0,0 km/h (0 Bft) S-SW 192 ° 0 min 0,000 mm 0,0 UV-I 0 W/m² -3,0 °C -0,8 °C 0,0 km/h (0 Bft)
15.11.2019 03:03 -0,8 °C 85 % 997,0 hPa 0,0 mm 0,0 km/h (0 Bft) S-SW 192 ° 0 min 0,000 mm 0,0 UV-I 0 W/m² -3,0 °C -0,8 °C 0,0 km/h (0 Bft)
15.11.2019 03:04 -0,8 °C 85 % 997,0 hPa 0,0 mm 0,0 km/h (0 Bft) S-SW 192 ° 0 min 0,000 mm 0,0 UV-I 0 W/m² -3,0 °C -0,8 °C 0,0 km/h (0 Bft)
15.11.2019 03:05 -0,8 °C 85 % 997,0 hPa 0,0 mm 0,0 km/h (0 Bft) S-SW 192 ° 0 min 0,000 mm 0,0 UV-I 0 W/m² -3,0 °C -0,8 °C 0,0 km/h (0 Bft)
15.11.2019 03:06 -0,8 °C 86 % 997,1 hPa 0,0 mm 0,0 km/h (0 Bft) S-SW 192 ° 0 min 0,000 mm 0,0 UV-I 0 W/m² -2,8 °C -0,8 °C 0,0 km/h (0 Bft)
15.11.2019 03:07 -0,8 °C 86 % 997,1 hPa 0,0 mm 0,0 km/h (0 Bft) S-SW 192 ° 0 min 0,000 mm 0,0 UV-I 0 W/m² -2,8 °C -0,8 °C 0,0 km/h (0 Bft)
15.11.2019 03:08 -0,8 °C 86 % 997,1 hPa 0,0 mm 0,0 km/h (0 Bft) S-SW 192 ° 0 min 0,000 mm 0,0 UV-I 0 W/m² -2,8 °C -0,8 °C 0,0 km/h (0 Bft)
15.11.2019 03:09 -0,8 °C 86 % 997,1 hPa 0,0 mm 0,0 km/h (0 Bft) S-SW 192 ° 0 min 0,000 mm 0,0 UV-I 0 W/m² -2,8 °C -0,8 °C 0,0 km/h (0 Bft)
15.11.2019 03:10 -0,9 °C 86 % 997,0 hPa 0,0 mm 0,0 km/h (0 Bft) S-SW 192 ° 0 min 0,000 mm 0,0 UV-I 0 W/m² -2,9 °C -0,9 °C 0,0 km/h (0 Bft)
15.11.2019 03:11 -0,9 °C 86 % 996,9 hPa 0,0 mm 0,0 km/h (0 Bft) S-SW 192 ° 0 min 0,000 mm 0,0 UV-I 0 W/m² -2,9 °C -0,9 °C 0,0 km/h (0 Bft)
15.11.2019 03:12 -0,9 °C 86 % 996,8 hPa 0,0 mm 0,0 km/h (0 Bft) S-SW 192 ° 0 min 0,000 mm 0,0 UV-I 0 W/m² -2,9 °C -0,9 °C 0,0 km/h (0 Bft)
15.11.2019 03:13 -0,9 °C 86 % 996,8 hPa 0,0 mm 0,0 km/h (0 Bft) S-SW 192 ° 0 min 0,000 mm 0,0 UV-I 0 W/m² -2,9 °C -0,9 °C 0,0 km/h (0 Bft)
15.11.2019 03:14 -0,9 °C 86 % 996,8 hPa 0,0 mm 0,0 km/h (0 Bft) S-SW 192 ° 0 min 0,000 mm 0,0 UV-I 0 W/m² -2,9 °C -0,9 °C 0,0 km/h (0 Bft)
15.11.2019 03:15 -0,9 °C 86 % 996,7 hPa 0,0 mm 0,0 km/h (0 Bft) S-SW 192 ° 0 min 0,000 mm 0,0 UV-I 0 W/m² -2,9 °C -0,9 °C 0,0 km/h (0 Bft)
15.11.2019 03:16 -0,9 °C 86 % 996,7 hPa 0,0 mm 0,0 km/h (0 Bft) S-SW 192 ° 0 min 0,000 mm 0,0 UV-I 0 W/m² -2,9 °C -0,9 °C 0,0 km/h (0 Bft)
15.11.2019 03:17 -0,9 °C 86 % 996,6 hPa 0,0 mm 0,0 km/h (0 Bft) S-SW 192 ° 0 min 0,000 mm 0,0 UV-I 0 W/m² -2,9 °C -0,9 °C 0,0 km/h (0 Bft)
15.11.2019 03:18 -0,9 °C 86 % 996,6 hPa 0,0 mm 0,0 km/h (0 Bft) S-SW 192 ° 0 min 0,000 mm 0,0 UV-I 0 W/m² -2,9 °C -0,9 °C 0,0 km/h (0 Bft)
15.11.2019 03:19 -0,9 °C 86 % 996,6 hPa 0,0 mm 0,0 km/h (0 Bft) S-SW 192 ° 0 min 0,000 mm 0,0 UV-I 0 W/m² -2,9 °C -0,9 °C 0,0 km/h (0 Bft)
15.11.2019 03:20 -0,9 °C 86 % 996,6 hPa 0,0 mm 1,8 km/h (1 Bft) NO 50 ° 0 min 0,000 mm 0,0 UV-I 0 W/m² -2,9 °C -0,9 °C 4,8 km/h (1 Bft)
15.11.2019 03:21 -0,9 °C 87 % 996,7 hPa 0,0 mm 2,7 km/h (1 Bft) NO 50 ° 0 min 0,000 mm 0,0 UV-I 0 W/m² -2,8 °C -0,9 °C 3,2 km/h (1 Bft)
15.11.2019 03:22 -1,0 °C 87 % 996,7 hPa 0,0 mm 3,3 km/h (1 Bft) O 88 ° 0 min 0,000 mm 0,0 UV-I 0 W/m² -2,9 °C -1,0 °C 4,8 km/h (1 Bft)
15.11.2019 03:23 -1,0 °C 87 % 996,7 hPa 0,0 mm 1,3 km/h (1 Bft) O 88 ° 0 min 0,000 mm 0,0 UV-I 0 W/m² -2,9 °C -1,0 °C 3,2 km/h (1 Bft)
15.11.2019 03:24 -1,0 °C 87 % 996,6 hPa 0,0 mm 1,1 km/h (1 Bft) N-NO 26 ° 0 min 0,000 mm 0,0 UV-I 0 W/m² -2,9 °C -1,0 °C 3,2 km/h (1 Bft)
15.11.2019 03:25 -1,0 °C 87 % 996,6 hPa 0,0 mm 1,6 km/h (1 Bft) N-NO 26 ° 0 min 0,000 mm 0,0 UV-I 0 W/m² -2,9 °C -1,0 °C 4,8 km/h (1 Bft)
15.11.2019 03:26 -1,0 °C 87 % 996,6 hPa 0,0 mm 0,0 km/h (0 Bft) N-NO 26 ° 0 min 0,000 mm 0,0 UV-I 0 W/m² -2,9 °C -1,0 °C 0,0 km/h (0 Bft)
15.11.2019 03:27 -1,1 °C 87 % 996,6 hPa 0,0 mm 0,0 km/h (0 Bft) N-NO 26 ° 0 min 0,000 mm 0,0 UV-I 0 W/m² -3,0 °C -1,1 °C 0,0 km/h (0 Bft)
15.11.2019 03:28 -1,1 °C 87 % 996,6 hPa 0,0 mm 0,0 km/h (0 Bft) N-NO 26 ° 0 min 0,000 mm 0,0 UV-I 0 W/m² -3,0 °C -1,1 °C 0,0 km/h (0 Bft)
15.11.2019 03:29 -1,1 °C 87 % 996,6 hPa 0,0 mm 0,0 km/h (0 Bft) N-NO 26 ° 0 min 0,000 mm 0,0 UV-I 0 W/m² -3,0 °C -1,1 °C 0,0 km/h (0 Bft)
15.11.2019 03:30 -1,1 °C 87 % 996,6 hPa 0,0 mm 0,0 km/h (0 Bft) N-NO 26 ° 0 min 0,000 mm 0,0 UV-I 0 W/m² -3,0 °C -1,1 °C 0,0 km/h (0 Bft)
15.11.2019 03:31 -1,1 °C 87 % 996,6 hPa 0,0 mm 0,0 km/h (0 Bft) N-NO 26 ° 0 min 0,000 mm 0,0 UV-I 0 W/m² -3,0 °C -1,1 °C 0,0 km/h (0 Bft)
15.11.2019 03:32 -1,1 °C 87 % 996,6 hPa 0,0 mm 0,0 km/h (0 Bft) N-NO 26 ° 0 min 0,000 mm 0,0 UV-I 0 W/m² -3,0 °C -1,1 °C 0,0 km/h (0 Bft)
15.11.2019 03:33 -1,1 °C 87 % 996,6 hPa 0,0 mm 0,0 km/h (0 Bft) N-NO 26 ° 0 min 0,000 mm 0,0 UV-I 0 W/m² -3,0 °C -1,1 °C 0,0 km/h (0 Bft)
15.11.2019 03:34 -1,1 °C 87 % 996,5 hPa 0,0 mm 0,0 km/h (0 Bft) N-NO 26 ° 0 min 0,000 mm 0,0 UV-I 0 W/m² -3,0 °C -1,1 °C 0,0 km/h (0 Bft)
15.11.2019 03:35 -1,1 °C 87 % 996,5 hPa 0,0 mm 0,0 km/h (0 Bft) N-NO 26 ° 0 min 0,000 mm 0,0 UV-I 0 W/m² -3,0 °C -1,1 °C 0,0 km/h (0 Bft)
15.11.2019 03:36 -1,1 °C 87 % 996,4 hPa 0,0 mm 0,0 km/h (0 Bft) N-NO 26 ° 0 min 0,000 mm 0,0 UV-I 0 W/m² -3,0 °C -1,1 °C 0,0 km/h (0 Bft)
15.11.2019 03:37 -1,1 °C 87 % 996,4 hPa 0,0 mm 0,0 km/h (0 Bft) N-NO 26 ° 0 min 0,000 mm 0,0 UV-I 0 W/m² -3,0 °C -1,1 °C 0,0 km/h (0 Bft)
15.11.2019 03:38 -1,1 °C 87 % 996,4 hPa 0,0 mm 0,0 km/h (0 Bft) N-NO 26 ° 0 min 0,000 mm 0,0 UV-I 0 W/m² -3,0 °C -1,1 °C 0,0 km/h (0 Bft)
15.11.2019 03:39 -1,1 °C 88 % 996,3 hPa 0,0 mm 0,0 km/h (0 Bft) N-NO 26 ° 0 min 0,000 mm 0,0 UV-I 0 W/m² -2,8 °C -1,1 °C 0,0 km/h (0 Bft)
15.11.2019 03:40 -1,1 °C 88 % 996,3 hPa 0,0 mm 0,0 km/h (0 Bft) N-NO 26 ° 0 min 0,000 mm 0,0 UV-I 0 W/m² -2,8 °C -1,1 °C 0,0 km/h (0 Bft)
15.11.2019 03:41 -1,1 °C 88 % 996,3 hPa 0,0 mm 0,0 km/h (0 Bft) N-NO 26 ° 0 min 0,000 mm 0,0 UV-I 0 W/m² -2,8 °C -1,1 °C 0,0 km/h (0 Bft)
15.11.2019 03:42 -1,1 °C 88 % 996,3 hPa 0,0 mm 0,0 km/h (0 Bft) N-NO 26 ° 0 min 0,000 mm 0,0 UV-I 0 W/m² -2,8 °C -1,1 °C 0,0 km/h (0 Bft)
15.11.2019 03:43 -1,1 °C 88 % 996,3 hPa 0,0 mm 0,0 km/h (0 Bft) N-NO 26 ° 0 min 0,000 mm 0,0 UV-I 0 W/m² -2,8 °C -1,1 °C 0,0 km/h (0 Bft)
15.11.2019 03:44 -1,1 °C 88 % 996,4 hPa 0,0 mm 0,0 km/h (0 Bft) N-NO 26 ° 0 min 0,000 mm 0,0 UV-I 0 W/m² -2,8 °C -1,1 °C 0,0 km/h (0 Bft)
15.11.2019 03:45 -1,1 °C 88 % 996,4 hPa 0,0 mm 0,0 km/h (0 Bft) N-NO 26 ° 0 min 0,000 mm 0,0 UV-I 0 W/m² -2,8 °C -1,1 °C 0,0 km/h (0 Bft)
15.11.2019 03:46 -1,1 °C 88 % 996,5 hPa 0,0 mm 0,0 km/h (0 Bft) N-NO 26 ° 0 min 0,000 mm 0,0 UV-I 0 W/m² -2,8 °C -1,1 °C 0,0 km/h (0 Bft)
15.11.2019 03:47 -1,1 °C 88 % 996,5 hPa 0,0 mm 0,0 km/h (0 Bft) N-NO 26 ° 0 min 0,000 mm 0,0 UV-I 0 W/m² -2,8 °C -1,1 °C 0,0 km/h (0 Bft)
15.11.2019 03:48 -1,1 °C 88 % 996,5 hPa 0,0 mm 0,0 km/h (0 Bft) N-NO 26 ° 0 min 0,000 mm 0,0 UV-I 0 W/m² -2,8 °C -1,1 °C 0,0 km/h (0 Bft)
15.11.2019 03:49 -1,1 °C 88 % 996,4 hPa 0,0 mm 0,0 km/h (0 Bft) N-NO 26 ° 0 min 0,000 mm 0,0 UV-I 0 W/m² -2,8 °C -1,1 °C 0,0 km/h (0 Bft)
15.11.2019 03:50 -1,1 °C 88 % 996,4 hPa 0,0 mm 0,0 km/h (0 Bft) N-NO 26 ° 0 min 0,000 mm 0,0 UV-I 0 W/m² -2,8 °C -1,1 °C 0,0 km/h (0 Bft)
15.11.2019 03:51 -1,1 °C 88 % 996,4 hPa 0,0 mm 0,0 km/h (0 Bft) N-NO 26 ° 0 min 0,000 mm 0,0 UV-I 0 W/m² -2,8 °C -1,1 °C 0,0 km/h (0 Bft)
15.11.2019 03:52 -1,1 °C 88 % 996,3 hPa 0,0 mm 0,0 km/h (0 Bft) N-NO 26 ° 0 min 0,000 mm 0,0 UV-I 0 W/m² -2,8 °C -1,1 °C 0,0 km/h (0 Bft)
15.11.2019 03:53 -1,1 °C 88 % 996,3 hPa 0,0 mm 0,0 km/h (0 Bft) N-NO 26 ° 0 min 0,000 mm 0,0 UV-I 0 W/m² -2,8 °C -1,1 °C 0,0 km/h (0 Bft)
15.11.2019 03:54 -1,1 °C 88 % 996,3 hPa 0,0 mm 0,0 km/h (0 Bft) N-NO 26 ° 0 min 0,000 mm 0,0 UV-I 0 W/m² -2,8 °C -1,1 °C 0,0 km/h (0 Bft)
15.11.2019 03:55 -1,1 °C 88 % 996,3 hPa 0,0 mm 0,0 km/h (0 Bft) N-NO 26 ° 0 min 0,000 mm 0,0 UV-I 0 W/m² -2,8 °C -1,1 °C 0,0 km/h (0 Bft)
15.11.2019 03:56 -1,1 °C 88 % 996,3 hPa 0,0 mm 0,3 km/h (0 Bft) N-NO 26 ° 0 min 0,000 mm 0,0 UV-I 0 W/m² -2,8 °C -1,1 °C 1,6 km/h (1 Bft)
15.11.2019 03:57 -1,1 °C 88 % 996,4 hPa 0,0 mm 0,0 km/h (0 Bft) N-NO 26 ° 0 min 0,000 mm 0,0 UV-I 0 W/m² -2,8 °C -1,1 °C 0,0 km/h (0 Bft)
15.11.2019 03:58 -1,1 °C 88 % 996,4 hPa 0,0 mm 0,0 km/h (0 Bft) N-NO 26 ° 0 min 0,000 mm 0,0 UV-I 0 W/m² -2,8 °C -1,1 °C 0,0 km/h (0 Bft)
15.11.2019 03:59 -1,1 °C 89 % 996,3 hPa 0,0 mm 0,0 km/h (0 Bft) N-NO 26 ° 0 min 0,000 mm 0,0 UV-I 0 W/m² -2,7 °C -1,1 °C 0,0 km/h (0 Bft)
15.11.2019 04:00 -1,1 °C 89 % 996,3 hPa 0,0 mm 0,0 km/h (0 Bft) N-NO 26 ° 0 min 0,000 mm 0,0 UV-I 0 W/m² -2,7 °C -1,1 °C 0,0 km/h (0 Bft)
15.11.2019 04:02 -1,1 °C 89 % 996,4 hPa 0,0 mm 0,0 km/h (0 Bft) N-NO 26 ° 0 min 0,000 mm 0,0 UV-I 0 W/m² -2,7 °C -1,1 °C 0,0 km/h (0 Bft)
15.11.2019 04:03 -1,1 °C 89 % 996,4 hPa 0,0 mm 0,0 km/h (0 Bft) N-NO 26 ° 0 min 0,000 mm 0,0 UV-I 0 W/m² -2,7 °C -1,1 °C 0,0 km/h (0 Bft)
15.11.2019 04:04 -1,1 °C 89 % 996,4 hPa 0,0 mm 0,0 km/h (0 Bft) N-NO 26 ° 0 min 0,000 mm 0,0 UV-I 0 W/m² -2,7 °C -1,1 °C 0,0 km/h (0 Bft)
15.11.2019 04:05 -1,1 °C 89 % 996,3 hPa 0,0 mm 0,0 km/h (0 Bft) N-NO 26 ° 0 min 0,000 mm 0,0 UV-I 0 W/m² -2,7 °C -1,1 °C 0,0 km/h (0 Bft)
15.11.2019 04:06 -1,1 °C 89 % 996,3 hPa 0,0 mm 0,0 km/h (0 Bft) N-NO 26 ° 0 min 0,000 mm 0,0 UV-I 0 W/m² -2,7 °C -1,1 °C 0,0 km/h (0 Bft)
15.11.2019 04:07 -1,1 °C 89 % 996,3 hPa 0,0 mm 0,0 km/h (0 Bft) N-NO 26 ° 0 min 0,000 mm 0,0 UV-I 0 W/m² -2,7 °C -1,1 °C 0,0 km/h (0 Bft)
15.11.2019 04:08 -1,1 °C 89 % 996,2 hPa 0,0 mm 0,0 km/h (0 Bft) N-NO 26 ° 0 min 0,000 mm 0,0 UV-I 0 W/m² -2,7 °C -1,1 °C 0,0 km/h (0 Bft)
15.11.2019 04:09 -1,1 °C 89 % 996,2 hPa 0,0 mm 0,0 km/h (0 Bft) N-NO 26 ° 0 min 0,000 mm 0,0 UV-I 0 W/m² -2,7 °C -1,1 °C 0,0 km/h (0 Bft)
15.11.2019 04:10 -1,1 °C 89 % 996,2 hPa 0,0 mm 0,0 km/h (0 Bft) N-NO 26 ° 0 min 0,000 mm 0,0 UV-I 0 W/m² -2,7 °C -1,1 °C 0,0 km/h (0 Bft)
15.11.2019 04:11 -1,1 °C 89 % 996,2 hPa 0,0 mm 0,0 km/h (0 Bft) N-NO 26 ° 0 min 0,000 mm 0,0 UV-I 0 W/m² -2,7 °C -1,1 °C 0,0 km/h (0 Bft)
15.11.2019 04:12 -1,2 °C 89 % 996,2 hPa 0,0 mm 0,0 km/h (0 Bft) N-NO 26 ° 0 min 0,000 mm 0,0 UV-I 0 W/m² -2,8 °C -1,2 °C 0,0 km/h (0 Bft)
15.11.2019 04:13 -1,1 °C 89 % 996,1 hPa 0,0 mm 0,0 km/h (0 Bft) N-NO 26 ° 0 min 0,000 mm 0,0 UV-I 0 W/m² -2,7 °C -1,1 °C 0,0 km/h (0 Bft)
15.11.2019 04:14 -1,2 °C 89 % 996,1 hPa 0,0 mm 0,0 km/h (0 Bft) N-NO 26 ° 0 min 0,000 mm 0,0 UV-I 0 W/m² -2,8 °C -1,2 °C 0,0 km/h (0 Bft)
15.11.2019 04:15 -1,2 °C 89 % 996,0 hPa 0,0 mm 0,0 km/h (0 Bft) N-NO 26 ° 0 min 0,000 mm 0,0 UV-I 0 W/m² -2,8 °C -1,2 °C 0,0 km/h (0 Bft)
15.11.2019 04:16 -1,2 °C 89 % 996,1 hPa 0,0 mm 3,4 km/h (1 Bft) N-NO 30 ° 0 min 0,000 mm 0,0 UV-I 0 W/m² -2,8 °C -1,2 °C 4,8 km/h (1 Bft)
15.11.2019 04:17 -1,2 °C 89 % 996,0 hPa 0,0 mm 3,8 km/h (1 Bft) N-NO 30 ° 0 min 0,000 mm 0,0 UV-I 0 W/m² -2,8 °C -1,2 °C 4,8 km/h (1 Bft)
15.11.2019 04:18 -1,2 °C 89 % 995,9 hPa 0,0 mm 1,8 km/h (1 Bft) N-NO 30 ° 0 min 0,000 mm 0,0 UV-I 0 W/m² -2,8 °C -1,2 °C 3,2 km/h (1 Bft)
15.11.2019 04:19 -1,2 °C 89 % 995,9 hPa 0,0 mm 0,2 km/h (0 Bft) N-NO 30 ° 0 min 0,000 mm 0,0 UV-I 0 W/m² -2,8 °C -1,2 °C 1,6 km/h (1 Bft)
15.11.2019 04:20 -1,2 °C 89 % 995,9 hPa 0,0 mm 0,5 km/h (0 Bft) N-NO 29 ° 0 min 0,000 mm 0,0 UV-I 0 W/m² -2,8 °C -1,2 °C 3,2 km/h (1 Bft)
15.11.2019 04:21 -1,2 °C 89 % 995,8 hPa 0,0 mm 2,4 km/h (1 Bft) N-NO 29 ° 0 min 0,000 mm 0,0 UV-I 0 W/m² -2,8 °C -1,2 °C 3,2 km/h (1 Bft)
15.11.2019 04:22 -1,2 °C 89 % 995,8 hPa 0,0 mm 2,6 km/h (1 Bft) N-NO 29 ° 0 min 0,000 mm 0,0 UV-I 0 W/m² -2,8 °C -1,2 °C 3,2 km/h (1 Bft)
15.11.2019 04:23 -1,2 °C 89 % 995,9 hPa 0,0 mm 2,7 km/h (1 Bft) N-NO 29 ° 0 min 0,000 mm 0,0 UV-I 0 W/m² -2,8 °C -1,2 °C 3,2 km/h (1 Bft)
15.11.2019 04:24 -1,2 °C 89 % 995,9 hPa 0,0 mm 2,5 km/h (1 Bft) N-NO 29 ° 0 min 0,000 mm 0,0 UV-I 0 W/m² -2,8 °C -1,2 °C 3,2 km/h (1 Bft)
15.11.2019 04:25 -1,2 °C 89 % 995,9 hPa 0,0 mm 1,9 km/h (1 Bft) N-NO 29 ° 0 min 0,000 mm 0,0 UV-I 0 W/m² -2,8 °C -1,2 °C 3,2 km/h (1 Bft)
15.11.2019 04:26 -1,2 °C 89 % 995,9 hPa 0,0 mm 0,0 km/h (0 Bft) N-NO 29 ° 0 min 0,000 mm 0,0 UV-I 0 W/m² -2,8 °C -1,2 °C 0,0 km/h (0 Bft)
15.11.2019 04:27 -1,2 °C 89 % 995,8 hPa 0,0 mm 0,4 km/h (0 Bft) N-NO 29 ° 0 min 0,000 mm 0,0 UV-I 0 W/m² -2,8 °C -1,2 °C 1,6 km/h (1 Bft)
15.11.2019 04:28 -1,2 °C 89 % 995,8 hPa 0,0 mm 0,1 km/h (0 Bft) N-NO 29 ° 0 min 0,000 mm 0,0 UV-I 0 W/m² -2,8 °C -1,2 °C 1,6 km/h (1 Bft)
15.11.2019 04:29 -1,2 °C 89 % 995,8 hPa 0,0 mm 0,0 km/h (0 Bft) N-NO 29 ° 0 min 0,000 mm 0,0 UV-I 0 W/m² -2,8 °C -1,2 °C 0,0 km/h (0 Bft)
15.11.2019 04:30 -1,2 °C 89 % 995,9 hPa 0,0 mm 0,5 km/h (0 Bft) N-NO 29 ° 0 min 0,000 mm 0,0 UV-I 0 W/m² -2,8 °C -1,2 °C 1,6 km/h (1 Bft)
15.11.2019 04:31 -1,2 °C 89 % 995,9 hPa 0,0 mm 0,3 km/h (0 Bft) N-NO 29 ° 0 min 0,000 mm 0,0 UV-I 0 W/m² -2,8 °C -1,2 °C 1,6 km/h (1 Bft)
15.11.2019 04:32 -1,2 °C 89 % 996,0 hPa 0,0 mm 0,0 km/h (0 Bft) N-NO 29 ° 0 min 0,000 mm 0,0 UV-I 0 W/m² -2,8 °C -1,2 °C 0,0 km/h (0 Bft)
15.11.2019 04:33 -1,2 °C 89 % 996,0 hPa 0,0 mm 0,0 km/h (0 Bft) N-NO 29 ° 0 min 0,000 mm 0,0 UV-I 0 W/m² -2,8 °C -1,2 °C 0,0 km/h (0 Bft)
15.11.2019 04:34 -1,2 °C 89 % 996,1 hPa 0,0 mm 0,0 km/h (0 Bft) N-NO 29 ° 0 min 0,000 mm 0,0 UV-I 0 W/m² -2,8 °C -1,2 °C 0,0 km/h (0 Bft)
15.11.2019 04:35 -1,2 °C 89 % 996,0 hPa 0,0 mm 0,0 km/h (0 Bft) N-NO 29 ° 0 min 0,000 mm 0,0 UV-I 0 W/m² -2,8 °C -1,2 °C 0,0 km/h (0 Bft)
15.11.2019 04:36 -1,2 °C 89 % 996,0 hPa 0,0 mm 0,1 km/h (0 Bft) N-NO 29 ° 0 min 0,000 mm 0,0 UV-I 0 W/m² -2,8 °C -1,2 °C 1,6 km/h (1 Bft)
15.11.2019 04:37 -1,2 °C 89 % 995,9 hPa 0,0 mm 0,0 km/h (0 Bft) N-NO 29 ° 0 min 0,000 mm 0,0 UV-I 0 W/m² -2,8 °C -1,2 °C 0,0 km/h (0 Bft)
15.11.2019 04:38 -1,2 °C 89 % 995,9 hPa 0,0 mm 0,0 km/h (0 Bft) N-NO 29 ° 0 min 0,000 mm 0,0 UV-I 0 W/m² -2,8 °C -1,2 °C 0,0 km/h (0 Bft)
15.11.2019 04:39 -1,2 °C 89 % 995,9 hPa 0,0 mm 0,3 km/h (0 Bft) N-NO 29 ° 0 min 0,000 mm 0,0 UV-I 0 W/m² -2,8 °C -1,2 °C 1,6 km/h (1 Bft)
15.11.2019 04:40 -1,2 °C 89 % 996,0 hPa 0,0 mm 0,0 km/h (0 Bft) N-NO 29 ° 0 min 0,000 mm 0,0 UV-I 0 W/m² -2,8 °C -1,2 °C 0,0 km/h (0 Bft)
15.11.2019 04:41 -1,2 °C 89 % 995,9 hPa 0,0 mm 0,0 km/h (0 Bft) N-NO 29 ° 0 min 0,000 mm 0,0 UV-I 0 W/m² -2,8 °C -1,2 °C 0,0 km/h (0 Bft)
15.11.2019 04:42 -1,2 °C 89 % 995,9 hPa 0,0 mm 0,7 km/h (0 Bft) N-NO 29 ° 0 min 0,000 mm 0,0 UV-I 0 W/m² -2,8 °C -1,2 °C 3,2 km/h (1 Bft)
15.11.2019 04:43 -1,2 °C 89 % 995,9 hPa 0,0 mm 0,8 km/h (0 Bft) N-NO 29 ° 0 min 0,000 mm 0,0 UV-I 0 W/m² -2,8 °C -1,2 °C 3,2 km/h (1 Bft)
15.11.2019 04:44 -1,2 °C 89 % 995,9 hPa 0,0 mm 2,0 km/h (1 Bft) N-NO 29 ° 0 min 0,000 mm 0,0 UV-I 0 W/m² -2,8 °C -1,2 °C 3,2 km/h (1 Bft)
15.11.2019 04:45 -1,2 °C 89 % 995,9 hPa 0,0 mm 2,6 km/h (1 Bft) N-NO 29 ° 0 min 0,000 mm 0,0 UV-I 0 W/m² -2,8 °C -1,2 °C 3,2 km/h (1 Bft)
15.11.2019 04:46 -1,2 °C 89 % 995,9 hPa 0,0 mm 2,1 km/h (1 Bft) N-NO 29 ° 0 min 0,000 mm 0,0 UV-I 0 W/m² -2,8 °C -1,2 °C 3,2 km/h (1 Bft)
15.11.2019 04:47 -1,2 °C 89 % 995,9 hPa 0,0 mm 0,0 km/h (0 Bft) N-NO 29 ° 0 min 0,000 mm 0,0 UV-I 0 W/m² -2,8 °C -1,2 °C 0,0 km/h (0 Bft)
15.11.2019 04:48 -1,2 °C 89 % 995,8 hPa 0,0 mm 1,9 km/h (1 Bft) NO 36 ° 0 min 0,000 mm 0,0 UV-I 0 W/m² -2,8 °C -1,2 °C 4,8 km/h (1 Bft)
15.11.2019 04:49 -1,2 °C 89 % 995,8 hPa 0,0 mm 4,0 km/h (1 Bft) NO 36 ° 0 min 0,000 mm 0,0 UV-I 0 W/m² -2,8 °C -1,2 °C 4,8 km/h (1 Bft)
15.11.2019 04:50 -1,2 °C 89 % 995,7 hPa 0,0 mm 2,8 km/h (1 Bft) NO 36 ° 0 min 0,000 mm 0,0 UV-I 0 W/m² -2,8 °C -1,2 °C 4,8 km/h (1 Bft)
15.11.2019 04:51 -1,2 °C 89 % 995,7 hPa 0,0 mm 2,9 km/h (1 Bft) NO 36 ° 0 min 0,000 mm 0,0 UV-I 0 W/m² -2,8 °C -1,2 °C 4,8 km/h (1 Bft)
15.11.2019 04:52 -1,2 °C 89 % 995,6 hPa 0,0 mm 0,5 km/h (0 Bft) NO 36 ° 0 min 0,000 mm 0,0 UV-I 0 W/m² -2,8 °C -1,2 °C 1,6 km/h (1 Bft)
15.11.2019 04:53 -1,2 °C 89 % 995,6 hPa 0,0 mm 0,0 km/h (0 Bft) NO 36 ° 0 min 0,000 mm 0,0 UV-I 0 W/m² -2,8 °C -1,2 °C 0,0 km/h (0 Bft)
15.11.2019 04:54 -1,2 °C 89 % 995,6 hPa 0,0 mm 0,3 km/h (0 Bft) NO 36 ° 0 min 0,000 mm 0,0 UV-I 0 W/m² -2,8 °C -1,2 °C 3,2 km/h (1 Bft)
15.11.2019 04:55 -1,2 °C 89 % 995,6 hPa 0,0 mm 1,6 km/h (1 Bft) NO 36 ° 0 min 0,000 mm 0,0 UV-I 0 W/m² -2,8 °C -1,2 °C 3,2 km/h (1 Bft)
15.11.2019 04:56 -1,3 °C 89 % 995,7 hPa 0,0 mm 2,5 km/h (1 Bft) NO 36 ° 0 min 0,000 mm 0,0 UV-I 0 W/m² -2,9 °C -1,3 °C 3,2 km/h (1 Bft)
15.11.2019 04:57 -1,2 °C 89 % 995,5 hPa 0,0 mm 2,5 km/h (1 Bft) W-NW 294 ° 0 min 0,000 mm 0,0 UV-I 0 W/m² -2,8 °C -1,2 °C 4,8 km/h (1 Bft)
15.11.2019 04:58 -1,3 °C 89 % 995,5 hPa 0,0 mm 0,0 km/h (0 Bft) W-NW 294 ° 0 min 0,000 mm 0,0 UV-I 0 W/m² -2,9 °C -1,3 °C 0,0 km/h (0 Bft)
15.11.2019 04:59 -1,2 °C 89 % 995,5 hPa 0,0 mm 0,0 km/h (0 Bft) W-NW 294 ° 0 min 0,000 mm 0,0 UV-I 0 W/m² -2,8 °C -1,2 °C 0,0 km/h (0 Bft)
15.11.2019 05:00 -1,3 °C 89 % 995,5 hPa 0,0 mm 1,2 km/h (1 Bft) W-NW 294 ° 0 min 0,000 mm 0,0 UV-I 0 W/m² -2,9 °C -1,3 °C 3,2 km/h (1 Bft)
15.11.2019 05:01 -1,3 °C 89 % 995,5 hPa 0,0 mm 0,8 km/h (0 Bft) W-NW 294 ° 0 min 0,000 mm 0,0 UV-I 0 W/m² -2,9 °C -1,3 °C 1,6 km/h (1 Bft)
15.11.2019 05:02 -1,3 °C 89 % 995,6 hPa 0,0 mm 0,0 km/h (0 Bft) W-NW 294 ° 0 min 0,000 mm 0,0 UV-I 0 W/m² -2,9 °C -1,3 °C 0,0 km/h (0 Bft)
15.11.2019 05:03 -1,3 °C 89 % 995,7 hPa 0,0 mm 2,7 km/h (1 Bft) W-NW 294 ° 0 min 0,000 mm 0,0 UV-I 0 W/m² -2,9 °C -1,3 °C 4,8 km/h (1 Bft)
15.11.2019 05:04 -1,3 °C 89 % 995,8 hPa 0,0 mm 0,1 km/h (0 Bft) W-NW 294 ° 0 min 0,000 mm 0,0 UV-I 0 W/m² -2,9 °C -1,3 °C 1,6 km/h (1 Bft)
15.11.2019 05:05 -1,3 °C 89 % 995,7 hPa 0,0 mm 0,0 km/h (0 Bft) W-NW 294 ° 0 min 0,000 mm 0,0 UV-I 0 W/m² -2,9 °C -1,3 °C 0,0 km/h (0 Bft)
15.11.2019 05:06 -1,3 °C 90 % 995,6 hPa 0,0 mm 0,0 km/h (0 Bft) W-NW 294 ° 0 min 0,000 mm 0,0 UV-I 0 W/m² -2,7 °C -1,3 °C 0,0 km/h (0 Bft)
15.11.2019 05:07 -1,3 °C 90 % 995,7 hPa 0,0 mm 0,0 km/h (0 Bft) W-NW 294 ° 0 min 0,000 mm 0,0 UV-I 0 W/m² -2,7 °C -1,3 °C 0,0 km/h (0 Bft)
15.11.2019 05:08 -1,3 °C 90 % 995,7 hPa 0,0 mm 0,0 km/h (0 Bft) W-NW 294 ° 0 min 0,000 mm 0,0 UV-I 0 W/m² -2,7 °C -1,3 °C 0,0 km/h (0 Bft)
15.11.2019 05:09 -1,3 °C 90 % 995,7 hPa 0,0 mm 0,0 km/h (0 Bft) W-NW 294 ° 0 min 0,000 mm 0,0 UV-I 0 W/m² -2,7 °C -1,3 °C 0,0 km/h (0 Bft)
15.11.2019 05:10 -1,3 °C 90 % 995,7 hPa 0,0 mm 0,0 km/h (0 Bft) W-NW 294 ° 0 min 0,000 mm 0,0 UV-I 0 W/m² -2,7 °C -1,3 °C 0,0 km/h (0 Bft)
15.11.2019 05:11 -1,3 °C 90 % 995,6 hPa 0,0 mm 0,0 km/h (0 Bft) W-NW 294 ° 0 min 0,000 mm 0,0 UV-I 0 W/m² -2,7 °C -1,3 °C 0,0 km/h (0 Bft)
15.11.2019 05:12 -1,3 °C 90 % 995,5 hPa 0,0 mm 0,0 km/h (0 Bft) W-NW 294 ° 0 min 0,000 mm 0,0 UV-I 0 W/m² -2,7 °C -1,3 °C 0,0 km/h (0 Bft)
15.11.2019 05:13 -1,4 °C 90 % 995,5 hPa 0,0 mm 2,2 km/h (1 Bft) W-NW 294 ° 0 min 0,000 mm 0,0 UV-I 0 W/m² -2,8 °C -1,4 °C 3,2 km/h (1 Bft)
15.11.2019 05:14 -1,3 °C 90 % 995,4 hPa 0,0 mm 0,5 km/h (0 Bft) W-NW 294 ° 0 min 0,000 mm 0,0 UV-I 0 W/m² -2,7 °C -1,3 °C 3,2 km/h (1 Bft)
15.11.2019 05:15 -1,3 °C 90 % 995,3 hPa 0,0 mm 0,0 km/h (0 Bft) W-NW 294 ° 0 min 0,000 mm 0,0 UV-I 0 W/m² -2,7 °C -1,3 °C 0,0 km/h (0 Bft)
15.11.2019 05:16 -1,4 °C 90 % 995,4 hPa 0,0 mm 0,0 km/h (0 Bft) W-NW 294 ° 0 min 0,000 mm 0,0 UV-I 0 W/m² -2,8 °C -1,4 °C 0,0 km/h (0 Bft)
15.11.2019 05:17 -1,3 °C 90 % 995,4 hPa 0,0 mm 2,2 km/h (1 Bft) W-NW 294 ° 0 min 0,000 mm 0,0 UV-I 0 W/m² -2,7 °C -1,3 °C 3,2 km/h (1 Bft)
15.11.2019 05:18 -1,4 °C 90 % 995,4 hPa 0,0 mm 2,2 km/h (1 Bft) W-NW 294 ° 0 min 0,000 mm 0,0 UV-I 0 W/m² -2,8 °C -1,4 °C 3,2 km/h (1 Bft)
15.11.2019 05:19 -1,4 °C 90 % 995,5 hPa 0,0 mm 2,0 km/h (1 Bft) W-NW 294 ° 0 min 0,000 mm 0,0 UV-I 0 W/m² -2,8 °C -1,4 °C 4,8 km/h (1 Bft)
15.11.2019 05:20 -1,4 °C 90 % 995,5 hPa 0,0 mm 2,7 km/h (1 Bft) W-NW 294 ° 0 min 0,000 mm 0,0 UV-I 0 W/m² -2,8 °C -1,4 °C 4,8 km/h (1 Bft)
15.11.2019 05:21 -1,4 °C 90 % 995,4 hPa 0,0 mm 0,6 km/h (0 Bft) W-NW 294 ° 0 min 0,000 mm 0,0 UV-I 0 W/m² -2,8 °C -1,4 °C 1,6 km/h (1 Bft)
15.11.2019 05:22 -1,4 °C 90 % 995,3 hPa 0,0 mm 0,0 km/h (0 Bft) W-NW 294 ° 0 min 0,000 mm 0,0 UV-I 0 W/m² -2,8 °C -1,4 °C 0,0 km/h (0 Bft)
15.11.2019 05:23 -1,4 °C 90 % 995,2 hPa 0,0 mm 0,0 km/h (0 Bft) W-NW 294 ° 0 min 0,000 mm 0,0 UV-I 0 W/m² -2,8 °C -1,4 °C 0,0 km/h (0 Bft)
15.11.2019 05:24 -1,4 °C 90 % 995,2 hPa 0,0 mm 0,0 km/h (0 Bft) W-NW 294 ° 0 min 0,000 mm 0,0 UV-I 0 W/m² -2,8 °C -1,4 °C 0,0 km/h (0 Bft)
15.11.2019 05:25 -1,4 °C 90 % 995,1 hPa 0,0 mm 0,0 km/h (0 Bft) W-NW 294 ° 0 min 0,000 mm 0,0 UV-I 0 W/m² -2,8 °C -1,4 °C 0,0 km/h (0 Bft)
15.11.2019 05:26 -1,4 °C 90 % 994,9 hPa 0,0 mm 0,5 km/h (0 Bft) W-NW 294 ° 0 min 0,000 mm 0,0 UV-I 0 W/m² -2,8 °C -1,4 °C 3,2 km/h (1 Bft)
15.11.2019 05:27 -1,4 °C 90 % 994,9 hPa 0,0 mm 2,6 km/h (1 Bft) W-NW 294 ° 0 min 0,000 mm 0,0 UV-I 0 W/m² -2,8 °C -1,4 °C 4,8 km/h (1 Bft)
15.11.2019 05:28 -1,4 °C 90 % 994,9 hPa 0,0 mm 0,4 km/h (0 Bft) W-NW 294 ° 0 min 0,000 mm 0,0 UV-I 0 W/m² -2,8 °C -1,4 °C 1,6 km/h (1 Bft)
15.11.2019 05:29 -1,4 °C 90 % 994,9 hPa 0,0 mm 0,4 km/h (0 Bft) W-NW 294 ° 0 min 0,000 mm 0,0 UV-I 0 W/m² -2,8 °C -1,4 °C 1,6 km/h (1 Bft)
15.11.2019 05:30 -1,4 °C 90 % 994,9 hPa 0,0 mm 1,1 km/h (1 Bft) W-NW 294 ° 0 min 0,000 mm 0,0 UV-I 0 W/m² -2,8 °C -1,4 °C 3,2 km/h (1 Bft)
15.11.2019 05:31 -1,4 °C 90 % 994,9 hPa 0,0 mm 3,4 km/h (1 Bft) W-NW 284 ° 0 min 0,000 mm 0,0 UV-I 0 W/m² -2,8 °C -1,4 °C 6,4 km/h (2 Bft)
15.11.2019 05:32 -1,4 °C 90 % 994,9 hPa 0,0 mm 1,6 km/h (1 Bft) W-NW 284 ° 0 min 0,000 mm 0,0 UV-I 0 W/m² -2,8 °C -1,4 °C 3,2 km/h (1 Bft)
15.11.2019 05:33 -1,4 °C 90 % 994,9 hPa 0,0 mm 0,0 km/h (0 Bft) W-NW 284 ° 0 min 0,000 mm 0,0 UV-I 0 W/m² -2,8 °C -1,4 °C 0,0 km/h (0 Bft)
15.11.2019 05:34 -1,4 °C 90 % 995,1 hPa 0,0 mm 0,0 km/h (0 Bft) W-NW 284 ° 0 min 0,000 mm 0,0 UV-I 0 W/m² -2,8 °C -1,4 °C 0,0 km/h (0 Bft)
15.11.2019 05:35 -1,4 °C 90 % 995,1 hPa 0,0 mm 0,0 km/h (0 Bft) W-NW 284 ° 0 min 0,000 mm 0,0 UV-I 0 W/m² -2,8 °C -1,4 °C 0,0 km/h (0 Bft)
15.11.2019 05:36 -1,4 °C 90 % 995,2 hPa 0,0 mm 0,0 km/h (0 Bft) W-NW 284 ° 0 min 0,000 mm 0,0 UV-I 0 W/m² -2,8 °C -1,4 °C 0,0 km/h (0 Bft)
15.11.2019 05:37 -1,4 °C 90 % 995,3 hPa 0,0 mm 0,0 km/h (0 Bft) W-NW 284 ° 0 min 0,000 mm 0,0 UV-I 0 W/m² -2,8 °C -1,4 °C 0,0 km/h (0 Bft)
15.11.2019 05:38 -1,4 °C 90 % 995,3 hPa 0,0 mm 0,0 km/h (0 Bft) S 180 ° 0 min 0,000 mm 0,0 UV-I 0 W/m² -2,8 °C -1,4 °C 0,0 km/h (0 Bft)
15.11.2019 05:39 -1,4 °C 90 % 995,3 hPa 0,0 mm 0,0 km/h (0 Bft) S-SO 164 ° 0 min 0,000 mm 0,0 UV-I 0 W/m² -2,8 °C -1,4 °C 0,0 km/h (0 Bft)
15.11.2019 05:40 -1,4 °C 90 % 995,1 hPa 0,0 mm 0,0 km/h (0 Bft) S-SO 164 ° 0 min 0,000 mm 0,0 UV-I 0 W/m² -2,8 °C -1,4 °C 0,0 km/h (0 Bft)
15.11.2019 05:41 -1,3 °C 90 % 995,1 hPa 0,0 mm 0,0 km/h (0 Bft) S-SO 165 ° 0 min 0,000 mm 0,0 UV-I 0 W/m² -2,7 °C -1,3 °C 0,0 km/h (0 Bft)
15.11.2019 05:42 -1,3 °C 90 % 995,0 hPa 0,0 mm 0,0 km/h (0 Bft) S 184 ° 0 min 0,000 mm 0,0 UV-I 0 W/m² -2,7 °C -1,3 °C 0,0 km/h (0 Bft)
15.11.2019 05:43 -1,3 °C 90 % 995,1 hPa 0,0 mm 0,0 km/h (0 Bft) SO 124 ° 0 min 0,000 mm 0,0 UV-I 0 W/m² -2,7 °C -1,3 °C 0,0 km/h (0 Bft)
15.11.2019 05:44 -1,3 °C 90 % 995,1 hPa 0,0 mm 6,4 km/h (2 Bft) O-NO 57 ° 0 min 0,000 mm 0,0 UV-I 0 W/m² -2,7 °C -3,7 °C 9,7 km/h (2 Bft)
15.11.2019 05:45 -1,3 °C 90 % 995,2 hPa 0,0 mm 2,6 km/h (1 Bft) O-NO 58 ° 0 min 0,000 mm 0,0 UV-I 0 W/m² -2,7 °C -1,3 °C 9,7 km/h (2 Bft)
15.11.2019 05:46 -1,3 °C 90 % 995,0 hPa 0,0 mm 3,4 km/h (1 Bft) S-SW 201 ° 0 min 0,000 mm 0,0 UV-I 0 W/m² -2,7 °C -1,3 °C 4,8 km/h (1 Bft)
15.11.2019 05:47 -1,3 °C 90 % 994,9 hPa 0,0 mm 4,6 km/h (1 Bft) S-SW 201 ° 0 min 0,000 mm 0,0 UV-I 0 W/m² -2,7 °C -2,9 °C 6,4 km/h (2 Bft)
15.11.2019 05:48 -1,3 °C 91 % 994,9 hPa 0,0 mm 2,4 km/h (1 Bft) S-SW 201 ° 0 min 0,000 mm 0,0 UV-I 0 W/m² -2,6 °C -1,3 °C 3,2 km/h (1 Bft)
15.11.2019 05:49 -1,3 °C 91 % 994,9 hPa 0,0 mm 3,2 km/h (1 Bft) S 181 ° 0 min 0,000 mm 0,0 UV-I 0 W/m² -2,6 °C -1,3 °C 6,4 km/h (2 Bft)
15.11.2019 05:50 -1,2 °C 91 % 995,0 hPa 0,0 mm 3,5 km/h (1 Bft) S 181 ° 0 min 0,000 mm 0,0 UV-I 0 W/m² -2,5 °C -1,2 °C 6,4 km/h (2 Bft)
15.11.2019 05:51 -1,2 °C 91 % 995,0 hPa 0,0 mm 0,5 km/h (0 Bft) S 182 ° 0 min 0,000 mm 0,0 UV-I 0 W/m² -2,5 °C -1,2 °C 3,2 km/h (1 Bft)
15.11.2019 05:52 -1,1 °C 91 % 995,0 hPa 0,0 mm 2,3 km/h (1 Bft) S 182 ° 0 min 0,000 mm 0,0 UV-I 0 W/m² -2,4 °C -1,1 °C 3,2 km/h (1 Bft)
15.11.2019 05:53 -1,1 °C 91 % 995,1 hPa 0,0 mm 3,6 km/h (1 Bft) S-SW 192 ° 0 min 0,000 mm 0,0 UV-I 0 W/m² -2,4 °C -1,1 °C 6,4 km/h (2 Bft)
15.11.2019 05:54 -1,1 °C 91 % 995,1 hPa 0,0 mm 1,4 km/h (1 Bft) S 170 ° 0 min 0,000 mm 0,0 UV-I 0 W/m² -2,4 °C -1,1 °C 3,2 km/h (1 Bft)
15.11.2019 05:55 -0,9 °C 91 % 995,1 hPa 0,0 mm 0,1 km/h (0 Bft) S 170 ° 0 min 0,000 mm 0,0 UV-I 0 W/m² -2,2 °C -0,9 °C 1,6 km/h (1 Bft)
15.11.2019 05:56 -0,9 °C 91 % 995,0 hPa 0,0 mm 0,0 km/h (0 Bft) S 170 ° 0 min 0,000 mm 0,0 UV-I 0 W/m² -2,2 °C -0,9 °C 0,0 km/h (0 Bft)
15.11.2019 05:57 -0,9 °C 91 % 995,0 hPa 0,0 mm 0,0 km/h (0 Bft) S 170 ° 0 min 0,000 mm 0,0 UV-I 0 W/m² -2,2 °C -0,9 °C 0,0 km/h (0 Bft)
15.11.2019 05:58 -0,9 °C 91 % 994,9 hPa 0,0 mm 0,0 km/h (0 Bft) S 170 ° 0 min 0,000 mm 0,0 UV-I 0 W/m² -2,2 °C -0,9 °C 0,0 km/h (0 Bft)
15.11.2019 05:59 -0,9 °C 91 % 994,8 hPa 0,0 mm 0,0 km/h (0 Bft) S 170 ° 0 min 0,000 mm 0,0 UV-I 0 W/m² -2,2 °C -0,9 °C 0,0 km/h (0 Bft)
15.11.2019 06:00 -0,9 °C 91 % 994,8 hPa 0,0 mm 0,0 km/h (0 Bft) S 170 ° 0 min 0,000 mm 0,0 UV-I 0 W/m² -2,2 °C -0,9 °C 0,0 km/h (0 Bft)
15.11.2019 06:01 -0,9 °C 91 % 994,7 hPa 0,0 mm 0,0 km/h (0 Bft) S 170 ° 0 min 0,000 mm 0,0 UV-I 0 W/m² -2,2 °C -0,9 °C 0,0 km/h (0 Bft)
15.11.2019 06:02 -0,9 °C 91 % 994,6 hPa 0,0 mm 0,0 km/h (0 Bft) S 170 ° 0 min 0,000 mm 0,0 UV-I 0 W/m² -2,2 °C -0,9 °C 0,0 km/h (0 Bft)
15.11.2019 06:03 -0,8 °C 91 % 994,5 hPa 0,0 mm 0,0 km/h (0 Bft) S 170 ° 0 min 0,000 mm 0,0 UV-I 0 W/m² -2,1 °C -0,8 °C 0,0 km/h (0 Bft)
15.11.2019 06:04 -0,8 °C 91 % 994,5 hPa 0,0 mm 0,0 km/h (0 Bft) S 170 ° 0 min 0,000 mm 0,0 UV-I 0 W/m² -2,1 °C -0,8 °C 0,0 km/h (0 Bft)
15.11.2019 06:05 -0,8 °C 91 % 994,5 hPa 0,0 mm 0,0 km/h (0 Bft) S 170 ° 0 min 0,000 mm 0,0 UV-I 0 W/m² -2,1 °C -0,8 °C 0,0 km/h (0 Bft)
15.11.2019 06:06 -0,8 °C 91 % 994,6 hPa 0,0 mm 2,6 km/h (1 Bft) O 95 ° 0 min 0,000 mm 0,0 UV-I 0 W/m² -2,1 °C -0,8 °C 4,8 km/h (1 Bft)
15.11.2019 06:07 -0,8 °C 91 % 994,7 hPa 0,0 mm 3,2 km/h (1 Bft) O 95 ° 0 min 0,000 mm 0,0 UV-I 0 W/m² -2,1 °C -0,8 °C 4,8 km/h (1 Bft)
15.11.2019 06:08 -0,8 °C 91 % 994,7 hPa 0,0 mm 1,9 km/h (1 Bft) O 95 ° 0 min 0,000 mm 0,0 UV-I 0 W/m² -2,1 °C -0,8 °C 3,2 km/h (1 Bft)
15.11.2019 06:09 -0,8 °C 91 % 994,6 hPa 0,0 mm 1,0 km/h (0 Bft) O 95 ° 0 min 0,000 mm 0,0 UV-I 0 W/m² -2,1 °C -0,8 °C 3,2 km/h (1 Bft)
15.11.2019 06:10 -0,8 °C 91 % 994,5 hPa 0,0 mm 1,1 km/h (1 Bft) O 95 ° 0 min 0,000 mm 0,0 UV-I 0 W/m² -2,1 °C -0,8 °C 3,2 km/h (1 Bft)
15.11.2019 06:11 -0,8 °C 90 % 994,4 hPa 0,0 mm 0,4 km/h (0 Bft) O 95 ° 0 min 0,000 mm 0,0 UV-I 0 W/m² -2,2 °C -0,8 °C 3,2 km/h (1 Bft)
15.11.2019 06:12 -0,9 °C 90 % 994,3 hPa 0,0 mm 4,0 km/h (1 Bft) O 95 ° 0 min 0,000 mm 0,0 UV-I 0 W/m² -2,3 °C -0,9 °C 4,8 km/h (1 Bft)
15.11.2019 06:13 -0,9 °C 90 % 994,4 hPa 0,0 mm 3,6 km/h (1 Bft) SO 125 ° 0 min 0,000 mm 0,0 UV-I 0 W/m² -2,3 °C -0,9 °C 6,4 km/h (2 Bft)
15.11.2019 06:14 -0,8 °C 90 % 994,5 hPa 0,0 mm 0,4 km/h (0 Bft) SO 125 ° 0 min 0,000 mm 0,0 UV-I 0 W/m² -2,2 °C -0,8 °C 1,6 km/h (1 Bft)
15.11.2019 06:15 -0,9 °C 90 % 994,5 hPa 0,0 mm 0,0 km/h (0 Bft) SO 125 ° 0 min 0,000 mm 0,0 UV-I 0 W/m² -2,3 °C -0,9 °C 0,0 km/h (0 Bft)
15.11.2019 06:16 -0,9 °C 90 % 994,5 hPa 0,0 mm 2,0 km/h (1 Bft) SO 125 ° 0 min 0,000 mm 0,0 UV-I 0 W/m² -2,3 °C -0,9 °C 4,8 km/h (1 Bft)
15.11.2019 06:17 -0,9 °C 90 % 994,5 hPa 0,0 mm 2,5 km/h (1 Bft) SO 125 ° 0 min 0,000 mm 0,0 UV-I 0 W/m² -2,3 °C -0,9 °C 3,2 km/h (1 Bft)
15.11.2019 06:18 -0,9 °C 90 % 994,2 hPa 0,0 mm 1,9 km/h (1 Bft) SO 125 ° 0 min 0,000 mm 0,0 UV-I 0 W/m² -2,3 °C -0,9 °C 3,2 km/h (1 Bft)
15.11.2019 06:19 -0,9 °C 90 % 994,2 hPa 0,0 mm 3,1 km/h (1 Bft) SO 132 ° 0 min 0,000 mm 0,0 UV-I 0 W/m² -2,3 °C -0,9 °C 4,8 km/h (1 Bft)
15.11.2019 06:20 -0,9 °C 90 % 994,0 hPa 0,0 mm 2,5 km/h (1 Bft) SO 132 ° 0 min 0,000 mm 0,0 UV-I 0 W/m² -2,3 °C -0,9 °C 4,8 km/h (1 Bft)
15.11.2019 06:21 -0,9 °C 90 % 994,2 hPa 0,0 mm 4,3 km/h (1 Bft) S-SW 198 ° 0 min 0,000 mm 0,0 UV-I 0 W/m² -2,3 °C -0,9 °C 6,4 km/h (2 Bft)
15.11.2019 06:22 -0,9 °C 90 % 994,1 hPa 0,0 mm 6,2 km/h (2 Bft) S-SW 199 ° 0 min 0,000 mm 0,0 UV-I 0 W/m² -2,3 °C -3,1 °C 8,0 km/h (2 Bft)
15.11.2019 06:23 -1,0 °C 90 % 994,3 hPa 0,0 mm 2,8 km/h (1 Bft) S-SW 199 ° 0 min 0,000 mm 0,0 UV-I 0 W/m² -2,4 °C -1,0 °C 4,8 km/h (1 Bft)
15.11.2019 06:24 -1,0 °C 90 % 994,2 hPa 0,0 mm 0,1 km/h (0 Bft) S-SW 199 ° 0 min 0,000 mm 0,0 UV-I 0 W/m² -2,4 °C -1,0 °C 1,6 km/h (1 Bft)
15.11.2019 06:25 -1,0 °C 90 % 994,2 hPa 0,0 mm 5,0 km/h (1 Bft) N-NW 336 ° 0 min 0,000 mm 0,0 UV-I 0 W/m² -2,4 °C -2,7 °C 8,0 km/h (2 Bft)
15.11.2019 06:26 -1,0 °C 90 % 994,0 hPa 0,0 mm 3,6 km/h (1 Bft) S 178 ° 0 min 0,000 mm 0,0 UV-I 0 W/m² -2,4 °C -1,0 °C 6,4 km/h (2 Bft)
15.11.2019 06:27 -1,1 °C 90 % 994,2 hPa 0,0 mm 4,4 km/h (1 Bft) S 181 ° 0 min 0,000 mm 0,0 UV-I 0 W/m² -2,5 °C -1,1 °C 6,4 km/h (2 Bft)
15.11.2019 06:28 -1,1 °C 90 % 994,1 hPa 0,0 mm 5,3 km/h (1 Bft) W-SW 244 ° 0 min 0,000 mm 0,0 UV-I 0 W/m² -2,5 °C -3,0 °C 6,4 km/h (2 Bft)
15.11.2019 06:29 -1,0 °C 90 % 994,1 hPa 0,0 mm 1,3 km/h (1 Bft) W-SW 244 ° 0 min 0,000 mm 0,0 UV-I 0 W/m² -2,4 °C -1,0 °C 4,8 km/h (1 Bft)
15.11.2019 06:30 -1,1 °C 90 % 994,1 hPa 0,0 mm 1,1 km/h (1 Bft) S-SW 203 ° 0 min 0,000 mm 0,0 UV-I 0 W/m² -2,5 °C -1,1 °C 4,8 km/h (1 Bft)
15.11.2019 06:31 -1,1 °C 90 % 994,1 hPa 0,0 mm 2,1 km/h (1 Bft) S-SW 203 ° 0 min 0,000 mm 0,0 UV-I 0 W/m² -2,5 °C -1,1 °C 3,2 km/h (1 Bft)
15.11.2019 06:32 -1,1 °C 90 % 994,0 hPa 0,0 mm 0,3 km/h (0 Bft) S-SW 203 ° 0 min 0,000 mm 0,0 UV-I 0 W/m² -2,5 °C -1,1 °C 1,6 km/h (1 Bft)
15.11.2019 06:33 -1,1 °C 90 % 993,9 hPa 0,0 mm 0,0 km/h (0 Bft) S-SW 203 ° 0 min 0,000 mm 0,0 UV-I 0 W/m² -2,5 °C -1,1 °C 0,0 km/h (0 Bft)
15.11.2019 06:34 -1,1 °C 90 % 994,0 hPa 0,0 mm 0,0 km/h (0 Bft) S-SW 203 ° 0 min 0,000 mm 0,0 UV-I 0 W/m² -2,5 °C -1,1 °C 0,0 km/h (0 Bft)
15.11.2019 06:35 -1,1 °C 90 % 994,1 hPa 0,0 mm 0,2 km/h (0 Bft) S-SW 203 ° 0 min 0,000 mm 0,0 UV-I 0 W/m² -2,5 °C -1,1 °C 1,6 km/h (1 Bft)
15.11.2019 06:36 -1,1 °C 90 % 994,0 hPa 0,0 mm 0,1 km/h (0 Bft) S-SW 205 ° 0 min 0,000 mm 0,0 UV-I 0 W/m² -2,5 °C -1,1 °C 1,6 km/h (1 Bft)
15.11.2019 06:37 -1,1 °C 90 % 993,9 hPa 0,0 mm 4,8 km/h (1 Bft) W-SW 246 ° 0 min 0,000 mm 0,0 UV-I 0 W/m² -2,5 °C -2,7 °C 6,4 km/h (2 Bft)
15.11.2019 06:38 -1,1 °C 90 % 993,9 hPa 0,0 mm 7,5 km/h (2 Bft) S 185 ° 0 min 0,000 mm 0,0 UV-I 0 W/m² -2,5 °C -3,9 °C 11,3 km/h (2 Bft)
15.11.2019 06:39 -1,1 °C 90 % 993,8 hPa 0,0 mm 4,2 km/h (1 Bft) S 182 ° 0 min 0,000 mm 0,0 UV-I 0 W/m² -2,5 °C -1,1 °C 6,4 km/h (2 Bft)
15.11.2019 06:40 -1,0 °C 91 % 993,7 hPa 0,0 mm 3,8 km/h (1 Bft) S 182 ° 0 min 0,000 mm 0,0 UV-I 0 W/m² -2,3 °C -1,0 °C 4,8 km/h (1 Bft)
15.11.2019 06:41 -0,9 °C 91 % 993,6 hPa 0,0 mm 4,9 km/h (1 Bft) S 182 ° 0 min 0,000 mm 0,0 UV-I 0 W/m² -2,2 °C -2,6 °C 8,0 km/h (2 Bft)
15.11.2019 06:42 -0,9 °C 91 % 993,5 hPa 0,0 mm 3,5 km/h (1 Bft) S 182 ° 0 min 0,000 mm 0,0 UV-I 0 W/m² -2,2 °C -0,9 °C 4,8 km/h (1 Bft)
15.11.2019 06:43 -0,9 °C 91 % 993,4 hPa 0,0 mm 5,9 km/h (2 Bft) O 94 ° 0 min 0,000 mm 0,0 UV-I 0 W/m² -2,2 °C -3,0 °C 9,7 km/h (2 Bft)
15.11.2019 06:44 -0,8 °C 91 % 993,3 hPa 0,0 mm 5,2 km/h (1 Bft) O-NO 73 ° 0 min 0,000 mm 0,0 UV-I 0 W/m² -2,1 °C -2,6 °C 8,0 km/h (2 Bft)
15.11.2019 06:45 -0,8 °C 91 % 993,3 hPa 0,0 mm 0,6 km/h (0 Bft) O-NO 73 ° 0 min 0,000 mm 0,0 UV-I 0 W/m² -2,1 °C -0,8 °C 1,6 km/h (1 Bft)
15.11.2019 06:46 -0,7 °C 91 % 993,3 hPa 0,0 mm 4,4 km/h (1 Bft) S-SW 211 ° 0 min 0,000 mm 0,0 UV-I 0 W/m² -2,0 °C -0,7 °C 6,4 km/h (2 Bft)
15.11.2019 06:47 -0,6 °C 91 % 993,3 hPa 0,0 mm 2,8 km/h (1 Bft) S-SW 201 ° 0 min 0,000 mm 0,0 UV-I 0 W/m² -1,9 °C -0,6 °C 6,4 km/h (2 Bft)
15.11.2019 06:48 -0,6 °C 91 % 993,2 hPa 0,0 mm 3,6 km/h (1 Bft) SO 126 ° 0 min 0,000 mm 0,0 UV-I 0 W/m² -1,9 °C -0,6 °C 6,4 km/h (2 Bft)
15.11.2019 06:49 -0,6 °C 91 % 993,3 hPa 0,0 mm 0,9 km/h (0 Bft) SO 126 ° 0 min 0,000 mm 0,0 UV-I 0 W/m² -1,9 °C -0,6 °C 3,2 km/h (1 Bft)
15.11.2019 06:50 -0,5 °C 91 % 993,4 hPa 0,0 mm 0,8 km/h (0 Bft) SO 126 ° 0 min 0,000 mm 0,0 UV-I 0 W/m² -1,8 °C -0,5 °C 3,2 km/h (1 Bft)
15.11.2019 06:51 -0,4 °C 91 % 993,4 hPa 0,0 mm 3,6 km/h (1 Bft) W-NW 286 ° 0 min 0,000 mm 0,0 UV-I 0 W/m² -1,7 °C -0,4 °C 6,4 km/h (2 Bft)
15.11.2019 06:52 -0,4 °C 91 % 993,4 hPa 0,0 mm 7,4 km/h (2 Bft) W 264 ° 0 min 0,000 mm 0,0 UV-I 0 W/m² -1,7 °C -3,0 °C 11,3 km/h (2 Bft)
15.11.2019 06:53 -0,4 °C 91 % 993,4 hPa 0,0 mm 6,2 km/h (2 Bft) W 277 ° 0 min 0,000 mm 0,0 UV-I 0 W/m² -1,7 °C -2,6 °C 11,3 km/h (2 Bft)
15.11.2019 06:54 -0,3 °C 91 % 993,3 hPa 0,0 mm 4,8 km/h (1 Bft) W-SW 250 ° 0 min 0,000 mm 0,0 UV-I 0 W/m² -1,6 °C -1,8 °C 11,3 km/h (2 Bft)
15.11.2019 06:55 -0,3 °C 91 % 993,3 hPa 0,0 mm 5,8 km/h (2 Bft) W-SW 248 ° 0 min 0,000 mm 0,0 UV-I 0 W/m² -1,6 °C -2,3 °C 11,3 km/h (2 Bft)
15.11.2019 06:56 -0,3 °C 91 % 993,4 hPa 0,0 mm 0,1 km/h (0 Bft) W-SW 248 ° 0 min 0,000 mm 0,0 UV-I 0 W/m² -1,6 °C -0,3 °C 1,6 km/h (1 Bft)
15.11.2019 06:57 -0,3 °C 91 % 993,4 hPa 0,0 mm 3,8 km/h (1 Bft) SW 235 ° 0 min 0,000 mm 0,0 UV-I 0 W/m² -1,6 °C -0,3 °C 4,8 km/h (1 Bft)
15.11.2019 06:58 -0,3 °C 91 % 993,4 hPa 0,0 mm 2,9 km/h (1 Bft) SW 235 ° 0 min 0,000 mm 0,0 UV-I 0 W/m² -1,6 °C -0,3 °C 4,8 km/h (1 Bft)
15.11.2019 06:59 -0,2 °C 91 % 993,3 hPa 0,0 mm 2,3 km/h (1 Bft) SW 236 ° 0 min 0,000 mm 0,0 UV-I 0 W/m² -1,5 °C -0,2 °C 3,2 km/h (1 Bft)
15.11.2019 07:00 -0,2 °C 91 % 993,3 hPa 0,0 mm 4,8 km/h (1 Bft) SW 236 ° 0 min 0,000 mm 0,0 UV-I 0 W/m² -1,5 °C -1,7 °C 6,4 km/h (2 Bft)
15.11.2019 07:01 -0,1 °C 91 % 993,4 hPa 0,0 mm 7,5 km/h (2 Bft) S-SW 192 ° 0 min 0,000 mm 0,0 UV-I 0 W/m² -1,4 °C -2,7 °C 9,7 km/h (2 Bft)
15.11.2019 07:02 0,0 °C 91 % 993,7 hPa 0,0 mm 8,3 km/h (2 Bft) S-SO 151 ° 0 min 0,000 mm 0,0 UV-I 0 W/m² -1,3 °C -2,8 °C 14,5 km/h (3 Bft)
15.11.2019 07:03 0,1 °C 91 % 993,5 hPa 0,0 mm 1,9 km/h (1 Bft) S-SO 150 ° 0 min 0,000 mm 0,0 UV-I 0 W/m² -1,2 °C 0,1 °C 4,8 km/h (1 Bft)
15.11.2019 07:04 0,1 °C 91 % 993,4 hPa 0,0 mm 4,4 km/h (1 Bft) S-SO 167 ° 0 min 0,000 mm 0,0 UV-I 0 W/m² -1,2 °C 0,1 °C 8,0 km/h (2 Bft)
15.11.2019 07:05 0,2 °C 90 % 993,5 hPa 0,0 mm 6,0 km/h (2 Bft) S 177 ° 0 min 0,000 mm 0,0 UV-I 0 W/m² -1,2 °C -1,8 °C 8,0 km/h (2 Bft)
15.11.2019 07:06 0,3 °C 91 % 993,4 hPa 0,0 mm 1,6 km/h (1 Bft) S 177 ° 0 min 0,000 mm 0,0 UV-I 0 W/m² -1,0 °C 0,3 °C 4,8 km/h (1 Bft)
15.11.2019 07:07 0,3 °C 90 % 993,3 hPa 0,0 mm 0,0 km/h (0 Bft) S 177 ° 0 min 0,000 mm 0,0 UV-I 0 W/m² -1,1 °C 0,3 °C 0,0 km/h (0 Bft)
15.11.2019 07:08 0,4 °C 90 % 993,3 hPa 0,0 mm 1,3 km/h (1 Bft) SW 221 ° 0 min 0,000 mm 0,0 UV-I 0 W/m² -1,0 °C 0,4 °C 4,8 km/h (1 Bft)
15.11.2019 07:09 0,4 °C 90 % 993,5 hPa 0,0 mm 6,0 km/h (2 Bft) W-SW 253 ° 0 min 0,000 mm 0,0 UV-I 0 W/m² -1,0 °C -1,6 °C 6,4 km/h (2 Bft)
15.11.2019 07:10 0,6 °C 90 % 993,7 hPa 0,0 mm 4,4 km/h (1 Bft) SW 236 ° 0 min 0,000 mm 0,0 UV-I 0 W/m² -0,8 °C 0,6 °C 6,4 km/h (2 Bft)
15.11.2019 07:11 0,6 °C 90 % 993,7 hPa 0,0 mm 1,3 km/h (1 Bft) SW 236 ° 0 min 0,000 mm 0,0 UV-I 0 W/m² -0,8 °C 0,6 °C 3,2 km/h (1 Bft)
15.11.2019 07:12 0,7 °C 89 % 993,7 hPa 0,0 mm 0,5 km/h (0 Bft) SW 236 ° 0 min 0,000 mm 0,0 UV-I 0 W/m² -0,9 °C 0,7 °C 3,2 km/h (1 Bft)
15.11.2019 07:13 0,7 °C 89 % 993,6 hPa 0,0 mm 2,9 km/h (1 Bft) W-SW 237 ° 0 min 0,000 mm 0,0 UV-I 0 W/m² -0,9 °C 0,7 °C 4,8 km/h (1 Bft)
15.11.2019 07:14 0,8 °C 89 % 993,7 hPa 0,0 mm 3,0 km/h (1 Bft) W-SW 237 ° 0 min 0,000 mm 0,0 UV-I 0 W/m² -0,8 °C 0,8 °C 4,8 km/h (1 Bft)
15.11.2019 07:15 0,9 °C 89 % 993,6 hPa 0,0 mm 3,5 km/h (1 Bft) S-SW 196 ° 0 min 0,000 mm 0,0 UV-I 0 W/m² -0,7 °C 0,9 °C 6,4 km/h (2 Bft)
15.11.2019 07:16 1,0 °C 89 % 993,6 hPa 0,0 mm 7,8 km/h (2 Bft) S 171 ° 0 min 0,000 mm 0,0 UV-I 0 W/m² -0,6 °C -1,5 °C 9,7 km/h (2 Bft)
15.11.2019 07:17 1,1 °C 88 % 993,6 hPa 0,0 mm 6,1 km/h (2 Bft) S 173 ° 0 min 0,000 mm 0,0 UV-I 0 W/m² -0,7 °C -0,8 °C 9,7 km/h (2 Bft)
15.11.2019 07:18 1,2 °C 88 % 993,7 hPa 0,0 mm 4,5 km/h (1 Bft) S-SO 163 ° 0 min 0,000 mm 0,0 UV-I 0 W/m² -0,6 °C 1,2 °C 8,0 km/h (2 Bft)
15.11.2019 07:19 1,3 °C 88 % 993,6 hPa 0,0 mm 3,2 km/h (1 Bft) S-SO 163 ° 0 min 0,000 mm 0,0 UV-I 0 W/m² -0,5 °C 1,3 °C 6,4 km/h (2 Bft)
15.11.2019 07:20 1,3 °C 88 % 993,5 hPa 0,0 mm 1,7 km/h (1 Bft) S-SO 163 ° 0 min 0,000 mm 0,0 UV-I 0 W/m² -0,5 °C 1,3 °C 3,2 km/h (1 Bft)
15.11.2019 07:21 1,3 °C 88 % 993,6 hPa 0,0 mm 3,4 km/h (1 Bft) S-SO 163 ° 0 min 0,000 mm 0,0 UV-I 0 W/m² -0,5 °C 1,3 °C 6,4 km/h (2 Bft)
15.11.2019 07:22 1,3 °C 87 % 993,6 hPa 0,0 mm 2,6 km/h (1 Bft) S-SO 163 ° 0 min 0,000 mm 0,0 UV-I 0 W/m² -0,6 °C 1,3 °C 6,4 km/h (2 Bft)
15.11.2019 07:23 1,4 °C 88 % 993,6 hPa 0,0 mm 0,2 km/h (0 Bft) S-SO 163 ° 0 min 0,000 mm 0,0 UV-I 0 W/m² -0,4 °C 1,4 °C 1,6 km/h (1 Bft)
15.11.2019 07:24 1,4 °C 87 % 993,6 hPa 0,0 mm 2,5 km/h (1 Bft) S-SW 205 ° 0 min 0,000 mm 0,0 UV-I 0 W/m² -0,5 °C 1,4 °C 4,8 km/h (1 Bft)
15.11.2019 07:25 1,4 °C 87 % 993,7 hPa 0,0 mm 3,8 km/h (1 Bft) W 262 ° 0 min 0,000 mm 0,0 UV-I 0 W/m² -0,5 °C 1,4 °C 4,8 km/h (1 Bft)
15.11.2019 07:26 1,4 °C 87 % 993,6 hPa 0,0 mm 2,7 km/h (1 Bft) W 262 ° 0 min 0,000 mm 0,0 UV-I 5 W/m² -0,5 °C 1,4 °C 3,2 km/h (1 Bft)
15.11.2019 07:27 1,5 °C 87 % 993,7 hPa 0,0 mm 1,5 km/h (1 Bft) W 262 ° 0 min 0,000 mm 0,0 UV-I 5 W/m² -0,4 °C 1,5 °C 3,2 km/h (1 Bft)
15.11.2019 07:28 1,5 °C 87 % 993,7 hPa 0,0 mm 0,0 km/h (0 Bft) W 262 ° 0 min 0,000 mm 0,0 UV-I 5 W/m² -0,4 °C 1,5 °C 0,0 km/h (0 Bft)
15.11.2019 07:29 1,6 °C 87 % 993,6 hPa 0,0 mm 0,0 km/h (0 Bft) W 262 ° 0 min 0,000 mm 0,0 UV-I 5 W/m² -0,3 °C 1,6 °C 0,0 km/h (0 Bft)
15.11.2019 07:30 1,6 °C 87 % 993,6 hPa 0,0 mm 2,9 km/h (1 Bft) NW 316 ° 0 min 0,000 mm 0,0 UV-I 5 W/m² -0,3 °C 1,6 °C 8,0 km/h (2 Bft)
15.11.2019 07:31 1,6 °C 87 % 993,6 hPa 0,0 mm 5,0 km/h (1 Bft) SW 225 ° 0 min 0,000 mm 0,0 UV-I 5 W/m² -0,3 °C 0,2 °C 6,4 km/h (2 Bft)
15.11.2019 07:32 1,7 °C 86 % 993,6 hPa 0,0 mm 9,5 km/h (2 Bft) S-SO 159 ° 0 min 0,000 mm 0,0 UV-I 5 W/m² -0,4 °C -1,2 °C 16,1 km/h (3 Bft)
15.11.2019 07:33 1,7 °C 86 % 993,6 hPa 0,0 mm 7,5 km/h (2 Bft) S 182 ° 0 min 0,000 mm 0,0 UV-I 7 W/m² -0,4 °C -0,6 °C 16,1 km/h (3 Bft)
15.11.2019 07:34 1,8 °C 87 % 993,6 hPa 0,0 mm 2,7 km/h (1 Bft) S 182 ° 0 min 0,000 mm 0,0 UV-I 7 W/m² -0,1 °C 1,8 °C 6,4 km/h (2 Bft)
15.11.2019 07:35 1,8 °C 87 % 993,6 hPa 0,0 mm 2,6 km/h (1 Bft) S 182 ° 0 min 0,000 mm 0,0 UV-I 7 W/m² -0,1 °C 1,8 °C 4,8 km/h (1 Bft)
15.11.2019 07:36 1,9 °C 87 % 993,8 hPa 0,0 mm 3,0 km/h (1 Bft) S 183 ° 0 min 0,000 mm 0,0 UV-I 7 W/m² -0,0 °C 1,9 °C 4,8 km/h (1 Bft)
15.11.2019 07:37 2,0 °C 86 % 993,8 hPa 0,0 mm 4,7 km/h (1 Bft) S-SW 212 ° 0 min 0,000 mm 0,0 UV-I 9 W/m² -0,1 °C 0,8 °C 9,7 km/h (2 Bft)
15.11.2019 07:38 2,1 °C 86 % 993,8 hPa 0,0 mm 6,6 km/h (2 Bft) S 188 ° 0 min 0,000 mm 0,0 UV-I 9 W/m² 0,0 °C 0,2 °C 9,7 km/h (2 Bft)
15.11.2019 07:39 2,2 °C 86 % 993,7 hPa 0,0 mm 5,7 km/h (1 Bft) S 189 ° 0 min 0,000 mm 0,0 UV-I 9 W/m² 0,1 °C 0,6 °C 6,4 km/h (2 Bft)
15.11.2019 07:40 2,3 °C 86 % 993,7 hPa 0,0 mm 3,7 km/h (1 Bft) S 189 ° 0 min 0,000 mm 0,0 UV-I 9 W/m² 0,2 °C 2,3 °C 6,4 km/h (2 Bft)
15.11.2019 07:41 2,4 °C 86 % 993,7 hPa 0,0 mm 7,2 km/h (2 Bft) SW 214 ° 0 min 0,000 mm 0,0 UV-I 11 W/m² 0,3 °C 0,3 °C 9,7 km/h (2 Bft)
15.11.2019 07:42 2,5 °C 86 % 993,7 hPa 0,0 mm 7,1 km/h (2 Bft) S 183 ° 0 min 0,000 mm 0,0 UV-I 11 W/m² 0,4 °C 0,5 °C 9,7 km/h (2 Bft)
15.11.2019 07:43 2,6 °C 85 % 993,8 hPa 0,0 mm 3,1 km/h (1 Bft) S 183 ° 0 min 0,000 mm 0,0 UV-I 11 W/m² 0,3 °C 2,6 °C 4,8 km/h (1 Bft)
15.11.2019 07:44 2,6 °C 85 % 993,7 hPa 0,0 mm 0,0 km/h (0 Bft) S 183 ° 0 min 0,000 mm 0,0 UV-I 11 W/m² 0,3 °C 2,6 °C 0,0 km/h (0 Bft)
15.11.2019 07:45 2,7 °C 84 % 993,8 hPa 0,0 mm 0,0 km/h (0 Bft) S 183 ° 0 min 0,000 mm 0,0 UV-I 11 W/m² 0,3 °C 2,7 °C 0,0 km/h (0 Bft)
15.11.2019 07:46 2,7 °C 84 % 993,8 hPa 0,0 mm 0,1 km/h (0 Bft) S 183 ° 0 min 0,000 mm 0,0 UV-I 11 W/m² 0,3 °C 2,7 °C 1,6 km/h (1 Bft)
15.11.2019 07:47 2,8 °C 85 % 993,9 hPa 0,0 mm 6,8 km/h (2 Bft) S-SO 150 ° 0 min 0,000 mm 0,0 UV-I 12 W/m² 0,5 °C 0,9 °C 11,3 km/h (2 Bft)
15.11.2019 07:48 2,8 °C 84 % 993,9 hPa 0,0 mm 5,2 km/h (1 Bft) SO 144 ° 0 min 0,000 mm 0,0 UV-I 12 W/m² 0,4 °C 1,5 °C 8,0 km/h (2 Bft)
15.11.2019 07:49 2,9 °C 84 % 993,8 hPa 0,0 mm 3,9 km/h (1 Bft) W-SW 248 ° 0 min 0,000 mm 0,0 UV-I 12 W/m² 0,5 °C 2,9 °C 8,0 km/h (2 Bft)
15.11.2019 07:50 3,1 °C 84 % 993,8 hPa 0,0 mm 6,5 km/h (2 Bft) W-SW 248 ° 0 min 0,000 mm 0,0 UV-I 14 W/m² 0,7 °C 1,4 °C 8,0 km/h (2 Bft)
15.11.2019 07:51 3,2 °C 84 % 993,8 hPa 0,0 mm 5,5 km/h (1 Bft) NW 317 ° 0 min 0,000 mm 0,0 UV-I 14 W/m² 0,8 °C 1,8 °C 8,0 km/h (2 Bft)
15.11.2019 07:52 3,3 °C 83 % 993,7 hPa 0,0 mm 2,1 km/h (1 Bft) O-NO 78 ° 0 min 0,000 mm 0,0 UV-I 16 W/m² 0,7 °C 3,3 °C 4,8 km/h (1 Bft)
15.11.2019 07:53 3,2 °C 82 % 993,7 hPa 0,0 mm 3,6 km/h (1 Bft) O 92 ° 0 min 0,000 mm 0,0 UV-I 16 W/m² 0,4 °C 3,2 °C 4,8 km/h (1 Bft)
15.11.2019 07:54 3,2 °C 81 % 993,6 hPa 0,0 mm 1,4 km/h (1 Bft) O 100 ° 0 min 0,000 mm 0,0 UV-I 19 W/m² 0,3 °C 3,2 °C 4,8 km/h (1 Bft)
15.11.2019 07:55 3,2 °C 82 % 993,7 hPa 0,0 mm 5,0 km/h (1 Bft) S-SO 161 ° 0 min 0,000 mm 0,0 UV-I 19 W/m² 0,4 °C 2,0 °C 8,0 km/h (2 Bft)
15.11.2019 07:56 3,2 °C 82 % 993,7 hPa 0,0 mm 2,6 km/h (1 Bft) S-SO 161 ° 0 min 0,000 mm 0,0 UV-I 21 W/m² 0,4 °C 3,2 °C 6,4 km/h (2 Bft)
15.11.2019 07:57 3,2 °C 82 % 993,6 hPa 0,0 mm 1,5 km/h (1 Bft) SW 235 ° 0 min 0,000 mm 0,0 UV-I 21 W/m² 0,4 °C 3,2 °C 4,8 km/h (1 Bft)
15.11.2019 07:58 3,3 °C 82 % 993,6 hPa 0,0 mm 4,8 km/h (1 Bft) NW 315 ° 0 min 0,000 mm 0,0 UV-I 23 W/m² 0,5 °C 2,2 °C 6,4 km/h (2 Bft)
15.11.2019 07:59 3,3 °C 82 % 993,5 hPa 0,0 mm 3,2 km/h (1 Bft) S 180 ° 0 min 0,000 mm 0,0 UV-I 25 W/m² 0,5 °C 3,3 °C 4,8 km/h (1 Bft)
15.11.2019 08:00 3,4 °C 82 % 993,7 hPa 0,0 mm 6,2 km/h (2 Bft) S-SO 151 ° 0 min 0,000 mm 0,0 UV-I 25 W/m² 0,6 °C 1,8 °C 9,7 km/h (2 Bft)
15.11.2019 08:01 3,5 °C 82 % 993,6 hPa 0,0 mm 4,2 km/h (1 Bft) S-SW 202 ° 0 min 0,000 mm 0,0 UV-I 26 W/m² 0,7 °C 3,5 °C 8,0 km/h (2 Bft)
15.11.2019 08:02 3,7 °C 82 % 993,7 hPa 0,0 mm 7,4 km/h (2 Bft) W 261 ° 0 min 0,000 mm 0,0 UV-I 26 W/m² 0,9 °C 1,8 °C 11,3 km/h (2 Bft)
15.11.2019 08:03 3,8 °C 81 % 993,8 hPa 0,0 mm 8,0 km/h (2 Bft) NW 306 ° 0 min 0,000 mm 0,0 UV-I 28 W/m² 0,8 °C 1,7 °C 11,3 km/h (2 Bft)
15.11.2019 08:04 3,9 °C 81 % 993,6 hPa 0,0 mm 6,9 km/h (2 Bft) N-NW 327 ° 0 min 0,000 mm 0,0 UV-I 28 W/m² 0,9 °C 2,2 °C 11,3 km/h (2 Bft)
15.11.2019 08:05 4,1 °C 81 % 993,5 hPa 0,0 mm 4,8 km/h (1 Bft) S-SW 198 ° 0 min 0,000 mm 0,0 UV-I 32 W/m² 1,1 °C 3,1 °C 9,7 km/h (2 Bft)
15.11.2019 08:06 4,2 °C 80 % 993,6 hPa 0,0 mm 5,3 km/h (1 Bft) S-SW 200 ° 0 min 0,000 mm 0,0 UV-I 32 W/m² 1,1 °C 3,1 °C 8,0 km/h (2 Bft)
15.11.2019 08:07 4,3 °C 80 % 993,6 hPa 0,0 mm 2,7 km/h (1 Bft) N-NW 332 ° 0 min 0,000 mm 0,0 UV-I 33 W/m² 1,2 °C 4,3 °C 4,8 km/h (1 Bft)
15.11.2019 08:08 4,4 °C 79 % 993,5 hPa 0,0 mm 3,2 km/h (1 Bft) N 349 ° 0 min 0,000 mm 0,0 UV-I 33 W/m² 1,1 °C 4,4 °C 4,8 km/h (1 Bft)
15.11.2019 08:09 4,5 °C 79 % 993,6 hPa 0,0 mm 0,3 km/h (0 Bft) N 349 ° 0 min 0,000 mm 0,0 UV-I 35 W/m² 1,2 °C 4,5 °C 1,6 km/h (1 Bft)
15.11.2019 08:10 4,6 °C 78 % 993,5 hPa 0,0 mm 1,2 km/h (1 Bft) W-SW 255 ° 0 min 0,000 mm 0,0 UV-I 35 W/m² 1,1 °C 4,6 °C 4,8 km/h (1 Bft)
15.11.2019 08:11 4,6 °C 78 % 993,5 hPa 0,0 mm 4,7 km/h (1 Bft) S-SW 200 ° 0 min 0,000 mm 0,0 UV-I 37 W/m² 1,1 °C 3,8 °C 8,0 km/h (2 Bft)
15.11.2019 08:12 4,7 °C 78 % 993,5 hPa 0,0 mm 6,2 km/h (2 Bft) S-SW 200 ° 0 min 0,000 mm 0,0 UV-I 37 W/m² 1,2 °C 3,3 °C 8,0 km/h (2 Bft)
15.11.2019 08:13 4,7 °C 78 % 993,5 hPa 0,0 mm 4,8 km/h (1 Bft) S-SW 200 ° 0 min 0,000 mm 0,0 UV-I 39 W/m² 1,2 °C 3,8 °C 6,4 km/h (2 Bft)
15.11.2019 08:14 4,8 °C 78 % 993,4 hPa 0,0 mm 6,5 km/h (2 Bft) W-NW 283 ° 0 min 0,000 mm 0,0 UV-I 39 W/m² 1,3 °C 3,3 °C 11,3 km/h (2 Bft)
15.11.2019 08:15 4,9 °C 77 % 993,4 hPa 0,0 mm 6,2 km/h (2 Bft) W 267 ° 0 min 0,000 mm 0,0 UV-I 39 W/m² 1,2 °C 3,5 °C 9,7 km/h (2 Bft)
15.11.2019 08:16 4,9 °C 76 % 993,4 hPa 0,0 mm 2,1 km/h (1 Bft) N-NW 328 ° 0 min 0,000 mm 0,0 UV-I 42 W/m² 1,0 °C 4,9 °C 4,8 km/h (1 Bft)
15.11.2019 08:17 4,9 °C 76 % 993,5 hPa 0,0 mm 2,4 km/h (1 Bft) NW 324 ° 0 min 0,000 mm 0,0 UV-I 44 W/m² 1,0 °C 4,9 °C 3,2 km/h (1 Bft)
15.11.2019 08:18 5,0 °C 76 % 993,5 hPa 0,0 mm 4,0 km/h (1 Bft) W 279 ° 0 min 0,000 mm 0,0 UV-I 46 W/m² 1,1 °C 5,0 °C 9,7 km/h (2 Bft)
15.11.2019 08:19 5,1 °C 76 % 993,5 hPa 0,0 mm 9,8 km/h (2 Bft) W 265 ° 0 min 0,000 mm 0,0 UV-I 46 W/m² 1,2 °C 2,8 °C 11,3 km/h (2 Bft)
15.11.2019 08:20 5,1 °C 76 % 993,6 hPa 0,0 mm 9,1 km/h (2 Bft) W-SW 252 ° 0 min 0,000 mm 0,0 UV-I 47 W/m² 1,2 °C 3,0 °C 11,3 km/h (2 Bft)
15.11.2019 08:21 5,1 °C 75 % 993,6 hPa 0,0 mm 7,4 km/h (2 Bft) SW 217 ° 0 min 0,000 mm 0,0 UV-I 47 W/m² 1,0 °C 3,4 °C 9,7 km/h (2 Bft)
15.11.2019 08:22 5,1 °C 75 % 993,7 hPa 0,0 mm 8,2 km/h (2 Bft) W 266 ° 0 min 0,000 mm 0,0 UV-I 49 W/m² 1,0 °C 3,2 °C 12,9 km/h (3 Bft)
15.11.2019 08:23 5,1 °C 75 % 993,5 hPa 0,0 mm 9,1 km/h (2 Bft) S-SW 209 ° 0 min 0,000 mm 0,0 UV-I 49 W/m² 1,0 °C 3,0 °C 12,9 km/h (3 Bft)
15.11.2019 08:24 5,1 °C 75 % 993,8 hPa 0,0 mm 11,1 km/h (2 Bft) S-SW 204 ° 0 min 0,000 mm 0,0 UV-I 51 W/m² 1,0 °C 2,6 °C 20,9 km/h (4 Bft)
15.11.2019 08:25 5,1 °C 75 % 993,7 hPa 0,0 mm 10,2 km/h (2 Bft) NW 306 ° 0 min 0,000 mm 0,0 UV-I 51 W/m² 1,0 °C 2,7 °C 16,1 km/h (3 Bft)
15.11.2019 08:26 5,1 °C 75 % 993,6 hPa 0,0 mm 12,0 km/h (2 Bft) W 264 ° 0 min 0,000 mm 0,0 UV-I 51 W/m² 1,0 °C 2,4 °C 17,7 km/h (3 Bft)
15.11.2019 08:27 5,1 °C 75 % 993,7 hPa 0,0 mm 7,8 km/h (2 Bft) W 280 ° 0 min 0,000 mm 0,0 UV-I 53 W/m² 1,0 °C 3,3 °C 12,9 km/h (3 Bft)
15.11.2019 08:28 5,1 °C 75 % 993,6 hPa 0,0 mm 6,0 km/h (2 Bft) W 273 ° 0 min 0,000 mm 0,0 UV-I 53 W/m² 1,0 °C 3,8 °C 9,7 km/h (2 Bft)
15.11.2019 08:29 5,2 °C 75 % 993,7 hPa 0,0 mm 2,4 km/h (1 Bft) W 265 ° 0 min 0,000 mm 0,0 UV-I 53 W/m² 1,1 °C 5,2 °C 4,8 km/h (1 Bft)
15.11.2019 08:30 5,2 °C 75 % 993,7 hPa 0,0 mm 0,0 km/h (0 Bft) W 265 ° 0 min 0,000 mm 0,0 UV-I 53 W/m² 1,1 °C 5,2 °C 0,0 km/h (0 Bft)
15.11.2019 08:31 5,3 °C 75 % 993,6 hPa 0,0 mm 6,1 km/h (2 Bft) W-SW 238 ° 0 min 0,000 mm 0,0 UV-I 53 W/m² 1,2 °C 4,0 °C 9,7 km/h (2 Bft)
15.11.2019 08:32 5,3 °C 75 % 993,7 hPa 0,0 mm 7,5 km/h (2 Bft) S-SW 196 ° 0 min 0,000 mm 0,0 UV-I 53 W/m² 1,2 °C 3,6 °C 9,7 km/h (2 Bft)
15.11.2019 08:33 5,4 °C 75 % 993,7 hPa 0,0 mm 5,4 km/h (1 Bft) S-SW 207 ° 0 min 0,000 mm 0,0 UV-I 53 W/m² 1,3 °C 4,4 °C 8,0 km/h (2 Bft)
15.11.2019 08:34 5,4 °C 74 % 993,7 hPa 0,0 mm 4,9 km/h (1 Bft) W-NW 295 ° 0 min 0,000 mm 0,0 UV-I 54 W/m² 1,1 °C 4,6 °C 11,3 km/h (2 Bft)
15.11.2019 08:35 5,5 °C 74 % 993,9 hPa 0,0 mm 4,9 km/h (1 Bft) W-SW 250 ° 0 min 0,000 mm 0,0 UV-I 54 W/m² 1,2 °C 4,7 °C 6,4 km/h (2 Bft)
15.11.2019 08:36 5,6 °C 74 % 993,9 hPa 0,0 mm 6,8 km/h (2 Bft) S-SW 198 ° 0 min 0,000 mm 0,0 UV-I 54 W/m² 1,3 °C 4,2 °C 11,3 km/h (2 Bft)
15.11.2019 08:37 5,6 °C 74 % 994,0 hPa 0,0 mm 7,6 km/h (2 Bft) S-SW 202 ° 0 min 0,000 mm 0,0 UV-I 54 W/m² 1,3 °C 3,9 °C 11,3 km/h (2 Bft)
15.11.2019 08:38 5,7 °C 74 % 994,0 hPa 0,0 mm 2,7 km/h (1 Bft) S-SW 202 ° 0 min 0,000 mm 0,0 UV-I 54 W/m² 1,4 °C 5,7 °C 4,8 km/h (1 Bft)
15.11.2019 08:39 5,7 °C 74 % 994,0 hPa 0,0 mm 1,0 km/h (0 Bft) S-SW 202 ° 0 min 0,000 mm 0,0 UV-I 54 W/m² 1,4 °C 5,7 °C 3,2 km/h (1 Bft)
15.11.2019 08:40 5,7 °C 75 % 994,0 hPa 0,0 mm 4,0 km/h (1 Bft) SO 138 ° 0 min 0,000 mm 0,0 UV-I 56 W/m² 1,6 °C 5,7 °C 6,4 km/h (2 Bft)
15.11.2019 08:41 5,8 °C 75 % 994,1 hPa 0,0 mm 3,9 km/h (1 Bft) SO 138 ° 0 min 0,000 mm 0,0 UV-I 56 W/m² 1,7 °C 5,8 °C 4,8 km/h (1 Bft)
15.11.2019 08:42 5,8 °C 75 % 994,1 hPa 0,0 mm 2,1 km/h (1 Bft) SO 138 ° 0 min 0,000 mm 0,0 UV-I 56 W/m² 1,7 °C 5,8 °C 3,2 km/h (1 Bft)
15.11.2019 08:43 5,8 °C 75 % 994,2 hPa 0,0 mm 3,7 km/h (1 Bft) S-SO 148 ° 0 min 0,000 mm 0,0 UV-I 56 W/m² 1,7 °C 5,8 °C 4,8 km/h (1 Bft)
15.11.2019 08:44 5,8 °C 74 % 994,2 hPa 0,0 mm 5,0 km/h (1 Bft) S-SW 213 ° 0 min 0,000 mm 0,0 UV-I 58 W/m² 1,5 °C 5,0 °C 8,0 km/h (2 Bft)
15.11.2019 08:45 5,8 °C 74 % 994,1 hPa 0,0 mm 6,2 km/h (2 Bft) W-SW 248 ° 0 min 0,000 mm 0,0 UV-I 58 W/m² 1,5 °C 4,6 °C 8,0 km/h (2 Bft)
15.11.2019 08:46 5,8 °C 74 % 994,1 hPa 0,0 mm 4,8 km/h (1 Bft) SW 234 ° 0 min 0,000 mm 0,0 UV-I 58 W/m² 1,5 °C 5,1 °C 6,4 km/h (2 Bft)
15.11.2019 08:47 5,8 °C 74 % 994,1 hPa 0,0 mm 3,8 km/h (1 Bft) SW 234 ° 0 min 0,000 mm 0,0 UV-I 58 W/m² 1,5 °C 5,8 °C 4,8 km/h (1 Bft)
15.11.2019 08:48 5,9 °C 74 % 994,0 hPa 0,0 mm 6,1 km/h (2 Bft) S-SO 167 ° 0 min 0,000 mm 0,0 UV-I 58 W/m² 1,6 °C 4,7 °C 8,0 km/h (2 Bft)
15.11.2019 08:49 5,9 °C 74 % 994,1 hPa 0,0 mm 8,9 km/h (2 Bft) S-SO 167 ° 0 min 0,000 mm 0,0 UV-I 58 W/m² 1,6 °C 4,0 °C 12,9 km/h (3 Bft)
15.11.2019 08:50 5,9 °C 74 % 994,3 hPa 0,0 mm 8,2 km/h (2 Bft) S 169 ° 0 min 0,000 mm 0,0 UV-I 58 W/m² 1,6 °C 4,1 °C 11,3 km/h (2 Bft)
15.11.2019 08:51 6,0 °C 73 % 994,3 hPa 0,0 mm 4,8 km/h (1 Bft) S 169 ° 0 min 0,000 mm 0,0 UV-I 60 W/m² 1,5 °C 5,3 °C 8,0 km/h (2 Bft)
15.11.2019 08:52 6,1 °C 73 % 994,2 hPa 0,0 mm 3,4 km/h (1 Bft) S 169 ° 0 min 0,000 mm 0,0 UV-I 60 W/m² 1,6 °C 6,1 °C 6,4 km/h (2 Bft)
15.11.2019 08:53 6,1 °C 73 % 994,2 hPa 0,0 mm 1,7 km/h (1 Bft) S 169 ° 0 min 0,000 mm 0,0 UV-I 60 W/m² 1,6 °C 6,1 °C 3,2 km/h (1 Bft)
15.11.2019 08:54 6,1 °C 73 % 994,3 hPa 0,0 mm 0,5 km/h (0 Bft) S 169 ° 0 min 0,000 mm 0,0 UV-I 60 W/m² 1,6 °C 6,1 °C 3,2 km/h (1 Bft)
15.11.2019 08:55 6,1 °C 73 % 994,5 hPa 0,0 mm 1,2 km/h (1 Bft) NW 323 ° 0 min 0,000 mm 0,0 UV-I 60 W/m² 1,6 °C 6,1 °C 4,8 km/h (1 Bft)
15.11.2019 08:56 6,1 °C 74 % 994,5 hPa 0,0 mm 5,4 km/h (1 Bft) N-NW 331 ° 0 min 0,000 mm 0,0 UV-I 60 W/m² 1,8 °C 5,2 °C 6,4 km/h (2 Bft)
15.11.2019 08:57 6,1 °C 74 % 994,5 hPa 0,0 mm 5,0 km/h (1 Bft) W 260 ° 0 min 0,000 mm 0,0 UV-I 60 W/m² 1,8 °C 5,3 °C 6,4 km/h (2 Bft)
15.11.2019 08:58 6,1 °C 74 % 994,4 hPa 0,0 mm 2,9 km/h (1 Bft) W 260 ° 0 min 0,000 mm 0,0 UV-I 60 W/m² 1,8 °C 6,1 °C 3,2 km/h (1 Bft)
15.11.2019 08:59 6,0 °C 74 % 994,4 hPa 0,0 mm 3,1 km/h (1 Bft) SW 221 ° 0 min 0,000 mm 0,0 UV-I 60 W/m² 1,7 °C 6,0 °C 4,8 km/h (1 Bft)
15.11.2019 09:00 6,0 °C 74 % 994,6 hPa 0,0 mm 7,5 km/h (2 Bft) S 176 ° 0 min 0,025 mm 0,0 UV-I 58 W/m² 1,7 °C 4,4 °C 11,3 km/h (2 Bft)
15.11.2019 09:01 5,9 °C 74 % 994,6 hPa 0,0 mm 9,8 km/h (2 Bft) S 178 ° 0 min 0,000 mm 0,0 UV-I 58 W/m² 1,6 °C 3,8 °C 12,9 km/h (3 Bft)
15.11.2019 09:02 5,9 °C 74 % 994,6 hPa 0,2 mm 10,1 km/h (2 Bft) S 181 ° 0 min 0,000 mm 0,0 UV-I 56 W/m² 1,6 °C 3,7 °C 16,1 km/h (3 Bft)
15.11.2019 09:03 5,9 °C 75 % 994,6 hPa 0,0 mm 5,0 km/h (1 Bft) S-SO 150 ° 0 min 0,000 mm 0,0 UV-I 54 W/m² 1,8 °C 5,1 °C 6,4 km/h (2 Bft)
15.11.2019 09:04 5,9 °C 75 % 994,7 hPa 0,0 mm 3,7 km/h (1 Bft) S-SO 150 ° 0 min 0,000 mm 0,0 UV-I 53 W/m² 1,8 °C 5,9 °C 4,8 km/h (1 Bft)
15.11.2019 09:05 5,9 °C 76 % 994,8 hPa 0,0 mm 4,8 km/h (1 Bft) S-SO 153 ° 0 min 0,000 mm 0,0 UV-I 53 W/m² 2,0 °C 5,2 °C 6,4 km/h (2 Bft)
15.11.2019 09:06 5,9 °C 75 % 994,8 hPa 0,0 mm 10,2 km/h (2 Bft) S-SW 192 ° 0 min 0,000 mm 0,0 UV-I 51 W/m² 1,8 °C 3,7 °C 17,7 km/h (3 Bft)
15.11.2019 09:07 6,0 °C 74 % 994,9 hPa 0,0 mm 13,6 km/h (3 Bft) S-SW 195 ° 0 min 0,000 mm 0,0 UV-I 51 W/m² 1,7 °C 3,2 °C 17,7 km/h (3 Bft)
15.11.2019 09:08 6,1 °C 74 % 995,0 hPa 0,0 mm 11,6 km/h (2 Bft) S-SO 166 ° 0 min 0,000 mm 0,0 UV-I 49 W/m² 1,8 °C 3,7 °C 17,7 km/h (3 Bft)
15.11.2019 09:09 6,2 °C 74 % 995,0 hPa 0,0 mm 5,9 km/h (2 Bft) S-SO 155 ° 0 min 0,000 mm 0,0 UV-I 49 W/m² 1,9 °C 5,1 °C 9,7 km/h (2 Bft)
15.11.2019 09:10 6,2 °C 74 % 995,1 hPa 0,0 mm 4,1 km/h (1 Bft) S-SO 155 ° 0 min 0,000 mm 0,0 UV-I 49 W/m² 1,9 °C 6,2 °C 4,8 km/h (1 Bft)
15.11.2019 09:11 6,4 °C 74 % 995,2 hPa 0,0 mm 7,5 km/h (2 Bft) SW 214 ° 0 min 0,000 mm 0,0 UV-I 49 W/m² 2,1 °C 4,9 °C 11,3 km/h (2 Bft)
15.11.2019 09:12 6,6 °C 72 % 995,2 hPa 0,0 mm 6,5 km/h (2 Bft) W 269 ° 0 min 0,000 mm 0,0 UV-I 49 W/m² 1,9 °C 5,4 °C 11,3 km/h (2 Bft)
15.11.2019 09:13 6,7 °C 72 % 995,1 hPa 0,0 mm 10,0 km/h (2 Bft) W-NW 292 ° 0 min 0,000 mm 0,0 UV-I 49 W/m² 2,0 °C 4,7 °C 12,9 km/h (3 Bft)
15.11.2019 09:14 6,7 °C 72 % 995,0 hPa 0,0 mm 7,7 km/h (2 Bft) W-NW 294 ° 0 min 0,000 mm 0,0 UV-I 51 W/m² 2,0 °C 5,2 °C 11,3 km/h (2 Bft)
15.11.2019 09:15 6,8 °C 71 % 995,0 hPa 0,0 mm 8,7 km/h (2 Bft) W 267 ° 0 min 0,000 mm 0,0 UV-I 51 W/m² 1,9 °C 5,1 °C 12,9 km/h (3 Bft)
15.11.2019 09:16 6,9 °C 71 % 994,9 hPa 0,0 mm 7,8 km/h (2 Bft) W 278 ° 0 min 0,000 mm 0,0 UV-I 53 W/m² 2,0 °C 5,4 °C 16,1 km/h (3 Bft)
15.11.2019 09:17 7,1 °C 71 % 994,9 hPa 0,0 mm 5,6 km/h (1 Bft) W-SW 244 ° 0 min 0,000 mm 0,0 UV-I 53 W/m² 2,2 °C 6,3 °C 9,7 km/h (2 Bft)
15.11.2019 09:18 7,1 °C 71 % 994,9 hPa 0,0 mm 5,6 km/h (1 Bft) S-SW 205 ° 0 min 0,000 mm 0,0 UV-I 54 W/m² 2,2 °C 6,3 °C 8,0 km/h (2 Bft)
15.11.2019 09:19 7,2 °C 70 % 995,2 hPa 0,0 mm 8,4 km/h (2 Bft) S-SW 192 ° 0 min 0,000 mm 0,0 UV-I 54 W/m² 2,1 °C 5,6 °C 14,5 km/h (3 Bft)
15.11.2019 09:20 7,3 °C 70 % 995,4 hPa 0,0 mm 10,4 km/h (2 Bft) S-SW 199 ° 0 min 0,000 mm 0,0 UV-I 54 W/m² 2,2 °C 5,3 °C 14,5 km/h (3 Bft)
15.11.2019 09:21 7,4 °C 69 % 995,4 hPa 0,0 mm 8,2 km/h (2 Bft) S-SW 208 ° 0 min 0,000 mm 0,0 UV-I 56 W/m² 2,1 °C 5,9 °C 12,9 km/h (3 Bft)
15.11.2019 09:22 7,5 °C 69 % 995,3 hPa 0,0 mm 9,3 km/h (2 Bft) S-SW 208 ° 0 min 0,000 mm 0,0 UV-I 56 W/m² 2,2 °C 5,8 °C 12,9 km/h (3 Bft)
15.11.2019 09:23 7,6 °C 68 % 995,4 hPa 0,0 mm 10,2 km/h (2 Bft) S 188 ° 0 min 0,000 mm 0,0 UV-I 58 W/m² 2,1 °C 5,7 °C 12,9 km/h (3 Bft)
15.11.2019 09:24 7,7 °C 68 % 995,7 hPa 0,0 mm 11,3 km/h (2 Bft) S-SW 196 ° 0 min 0,000 mm 0,0 UV-I 60 W/m² 2,2 °C 5,6 °C 14,5 km/h (3 Bft)
15.11.2019 09:25 7,8 °C 67 % 996,0 hPa 0,2 mm 11,7 km/h (2 Bft) S-SW 199 ° 0 min 0,000 mm 0,0 UV-I 62 W/m² 2,1 °C 5,7 °C 16,1 km/h (3 Bft)
15.11.2019 09:26 7,9 °C 67 % 996,1 hPa 0,0 mm 4,8 km/h (1 Bft) S-SW 198 ° 0 min 0,000 mm 0,0 UV-I 63 W/m² 2,2 °C 7,4 °C 9,7 km/h (2 Bft)
15.11.2019 09:27 8,0 °C 66 % 996,1 hPa 0,0 mm 5,1 km/h (1 Bft) W-NW 294 ° 0 min 0,000 mm 0,0 UV-I 67 W/m² 2,0 °C 7,5 °C 9,7 km/h (2 Bft)
15.11.2019 09:28 8,1 °C 67 % 996,0 hPa 0,0 mm 6,5 km/h (2 Bft) W-NW 295 ° 0 min 0,000 mm 0,0 UV-I 69 W/m² 2,3 °C 7,1 °C 9,7 km/h (2 Bft)
15.11.2019 09:29 8,1 °C 66 % 995,8 hPa 0,0 mm 9,6 km/h (2 Bft) NW 315 ° 0 min 0,000 mm 0,0 UV-I 70 W/m² 2,1 °C 6,4 °C 12,9 km/h (3 Bft)
15.11.2019 09:30 8,1 °C 65 % 995,8 hPa 0,0 mm 10,7 km/h (2 Bft) NW 312 ° 0 min 0,000 mm 0,0 UV-I 70 W/m² 1,9 °C 6,2 °C 16,1 km/h (3 Bft)
15.11.2019 09:31 8,2 °C 64 % 995,8 hPa 0,0 mm 8,9 km/h (2 Bft) W 267 ° 0 min 0,000 mm 0,0 UV-I 70 W/m² 1,8 °C 6,7 °C 11,3 km/h (2 Bft)
15.11.2019 09:32 8,3 °C 64 % 995,9 hPa 0,0 mm 11,5 km/h (2 Bft) W 262 ° 0 min 0,000 mm 0,0 UV-I 69 W/m² 1,9 °C 6,3 °C 14,5 km/h (3 Bft)
15.11.2019 09:33 8,3 °C 64 % 996,0 hPa 0,0 mm 8,1 km/h (2 Bft) W-SW 244 ° 0 min 0,000 mm 0,0 UV-I 65 W/m² 1,9 °C 7,0 °C 12,9 km/h (3 Bft)
15.11.2019 09:34 8,3 °C 64 % 996,2 hPa 0,0 mm 8,8 km/h (2 Bft) W 269 ° 0 min 0,000 mm 0,0 UV-I 62 W/m² 1,9 °C 6,8 °C 12,9 km/h (3 Bft)
15.11.2019 09:35 8,4 °C 64 % 996,2 hPa 0,0 mm 5,4 km/h (1 Bft) W-NW 282 ° 0 min 0,000 mm 0,0 UV-I 60 W/m² 2,0 °C 7,8 °C 9,7 km/h (2 Bft)
15.11.2019 09:36 8,4 °C 64 % 996,2 hPa 0,0 mm 5,7 km/h (1 Bft) NW 309 ° 0 min 0,000 mm 0,0 UV-I 58 W/m² 2,0 °C 7,7 °C 9,7 km/h (2 Bft)
15.11.2019 09:37 8,4 °C 64 % 996,2 hPa 0,0 mm 5,8 km/h (2 Bft) NW 325 ° 0 min 0,000 mm 0,0 UV-I 58 W/m² 2,0 °C 7,7 °C 8,0 km/h (2 Bft)
15.11.2019 09:38 8,4 °C 64 % 996,1 hPa 0,0 mm 5,0 km/h (1 Bft) NW 317 ° 0 min 0,000 mm 0,0 UV-I 58 W/m² 2,0 °C 7,9 °C 8,0 km/h (2 Bft)
15.11.2019 09:39 8,4 °C 65 % 996,2 hPa 0,0 mm 3,5 km/h (1 Bft) W-NW 284 ° 0 min 0,000 mm 0,0 UV-I 62 W/m² 2,2 °C 8,4 °C 6,4 km/h (2 Bft)
15.11.2019 09:40 8,4 °C 65 % 996,1 hPa 0,0 mm 6,0 km/h (2 Bft) W-SW 246 ° 0 min 0,000 mm 0,0 UV-I 62 W/m² 2,2 °C 7,6 °C 9,7 km/h (2 Bft)
15.11.2019 09:41 8,4 °C 65 % 996,1 hPa 0,0 mm 6,0 km/h (2 Bft) SW 236 ° 0 min 0,000 mm 0,0 UV-I 62 W/m² 2,2 °C 7,6 °C 8,0 km/h (2 Bft)
15.11.2019 09:42 8,4 °C 65 % 996,2 hPa 0,0 mm 7,7 km/h (2 Bft) W-SW 246 ° 0 min 0,000 mm 0,0 UV-I 60 W/m² 2,2 °C 7,2 °C 11,3 km/h (2 Bft)
15.11.2019 09:43 8,3 °C 64 % 996,3 hPa 0,0 mm 7,1 km/h (2 Bft) SW 231 ° 0 min 0,000 mm 0,0 UV-I 62 W/m² 1,9 °C 7,2 °C 11,3 km/h (2 Bft)
15.11.2019 09:44 8,3 °C 64 % 996,4 hPa 0,0 mm 6,8 km/h (2 Bft) S-SW 207 ° 0 min 0,000 mm 0,0 UV-I 60 W/m² 1,9 °C 7,3 °C 11,3 km/h (2 Bft)
15.11.2019 09:45 8,3 °C 64 % 996,4 hPa 0,0 mm 6,8 km/h (2 Bft) S-SW 195 ° 0 min 0,000 mm 0,0 UV-I 54 W/m² 1,9 °C 7,3 °C 9,7 km/h (2 Bft)
15.11.2019 09:46 8,3 °C 64 % 996,5 hPa 0,2 mm 5,6 km/h (1 Bft) S 175 ° 0 min 0,000 mm 0,0 UV-I 53 W/m² 1,9 °C 7,6 °C 8,0 km/h (2 Bft)
15.11.2019 09:47 8,3 °C 64 % 996,5 hPa 0,0 mm 4,6 km/h (1 Bft) S 190 ° 0 min 0,000 mm 0,0 UV-I 51 W/m² 1,9 °C 8,0 °C 6,4 km/h (2 Bft)
15.11.2019 09:48 8,3 °C 64 % 996,5 hPa 0,0 mm 3,4 km/h (1 Bft) S-SW 195 ° 0 min 0,000 mm 0,0 UV-I 51 W/m² 1,9 °C 8,3 °C 4,8 km/h (1 Bft)
15.11.2019 09:49 8,3 °C 64 % 996,6 hPa 0,0 mm 7,0 km/h (2 Bft) S-SW 194 ° 0 min 0,000 mm 0,0 UV-I 49 W/m² 1,9 °C 7,2 °C 8,0 km/h (2 Bft)
15.11.2019 09:50 8,3 °C 64 % 996,7 hPa 0,0 mm 7,8 km/h (2 Bft) S 184 ° 0 min 0,000 mm 0,0 UV-I 46 W/m² 1,9 °C 7,1 °C 14,5 km/h (3 Bft)
15.11.2019 09:51 8,3 °C 63 % 996,9 hPa 0,0 mm 6,9 km/h (2 Bft) S-SO 164 ° 0 min 0,000 mm 0,0 UV-I 42 W/m² 1,7 °C 7,3 °C 9,7 km/h (2 Bft)
15.11.2019 09:52 8,4 °C 63 % 996,9 hPa 0,0 mm 6,7 km/h (2 Bft) S 180 ° 0 min 0,000 mm 0,0 UV-I 42 W/m² 1,8 °C 7,4 °C 9,7 km/h (2 Bft)
15.11.2019 09:53 8,4 °C 63 % 997,1 hPa 0,0 mm 8,0 km/h (2 Bft) S 179 ° 0 min 0,000 mm 0,0 UV-I 44 W/m² 1,8 °C 7,1 °C 9,7 km/h (2 Bft)
15.11.2019 09:54 8,4 °C 64 % 997,1 hPa 0,0 mm 5,8 km/h (2 Bft) S 178 ° 0 min 0,000 mm 0,0 UV-I 46 W/m² 2,0 °C 7,7 °C 8,0 km/h (2 Bft)
15.11.2019 09:55 8,4 °C 64 % 996,9 hPa 0,0 mm 4,6 km/h (1 Bft) S 184 ° 0 min 0,000 mm 0,0 UV-I 46 W/m² 2,0 °C 8,1 °C 8,0 km/h (2 Bft)
15.11.2019 09:56 8,4 °C 64 % 997,0 hPa 0,0 mm 6,4 km/h (2 Bft) S-SW 192 ° 0 min 0,000 mm 0,0 UV-I 46 W/m² 2,0 °C 7,5 °C 8,0 km/h (2 Bft)
15.11.2019 09:57 8,4 °C 65 % 997,1 hPa 0,0 mm 5,6 km/h (1 Bft) SW 214 ° 0 min 0,000 mm 0,0 UV-I 46 W/m² 2,2 °C 7,7 °C 6,4 km/h (2 Bft)
15.11.2019 09:58 8,4 °C 65 % 997,2 hPa 0,0 mm 3,9 km/h (1 Bft) W 267 ° 0 min 0,000 mm 0,0 UV-I 46 W/m² 2,2 °C 8,4 °C 4,8 km/h (1 Bft)
15.11.2019 09:59 8,3 °C 64 % 997,2 hPa 0,2 mm 1,6 km/h (1 Bft) W 266 ° 0 min 0,000 mm 0,0 UV-I 46 W/m² 1,9 °C 8,3 °C 4,8 km/h (1 Bft)
15.11.2019 10:00 8,3 °C 64 % 997,2 hPa 0,0 mm 0,0 km/h (0 Bft) W 266 ° 0 min 0,000 mm 0,0 UV-I 44 W/m² 1,9 °C 8,3 °C 0,0 km/h (0 Bft)
15.11.2019 10:01 8,3 °C 65 % 997,3 hPa 0,0 mm 1,6 km/h (1 Bft) W 266 ° 0 min 0,051 mm 0,0 UV-I 44 W/m² 2,1 °C 8,3 °C 3,2 km/h (1 Bft)
15.11.2019 10:02 8,3 °C 64 % 997,4 hPa 0,0 mm 4,6 km/h (1 Bft) W-SW 248 ° 0 min 0,000 mm 0,0 UV-I 49 W/m² 1,9 °C 8,0 °C 8,0 km/h (2 Bft)
15.11.2019 10:03 8,3 °C 64 % 997,5 hPa 0,0 mm 7,7 km/h (2 Bft) W-NW 284 ° 0 min 0,000 mm 0,0 UV-I 49 W/m² 1,9 °C 7,1 °C 11,3 km/h (2 Bft)
15.11.2019 10:04 8,2 °C 64 % 997,6 hPa 0,0 mm 11,1 km/h (2 Bft) W 265 ° 0 min 0,000 mm 0,0 UV-I 49 W/m² 1,8 °C 6,3 °C 14,5 km/h (3 Bft)
15.11.2019 10:05 8,2 °C 64 % 997,7 hPa 0,0 mm 10,4 km/h (2 Bft) W 262 ° 0 min 0,000 mm 0,0 UV-I 49 W/m² 1,8 °C 6,4 °C 17,7 km/h (3 Bft)
15.11.2019 10:06 8,2 °C 64 % 997,7 hPa 0,0 mm 13,9 km/h (3 Bft) NW 308 ° 0 min 0,000 mm 0,0 UV-I 49 W/m² 1,8 °C 5,8 °C 17,7 km/h (3 Bft)
15.11.2019 10:07 8,2 °C 64 % 997,8 hPa 0,0 mm 9,7 km/h (2 Bft) W 281 ° 0 min 0,000 mm 0,0 UV-I 51 W/m² 1,8 °C 6,5 °C 14,5 km/h (3 Bft)
15.11.2019 10:08 8,2 °C 64 % 997,9 hPa 0,0 mm 12,3 km/h (3 Bft) W-NW 289 ° 0 min 0,000 mm 0,0 UV-I 54 W/m² 1,8 °C 6,1 °C 19,3 km/h (3 Bft)
15.11.2019 10:09 8,2 °C 65 % 998,0 hPa 0,0 mm 10,0 km/h (2 Bft) W 278 ° 0 min 0,000 mm 0,0 UV-I 56 W/m² 2,0 °C 6,5 °C 14,5 km/h (3 Bft)
15.11.2019 10:10 8,2 °C 65 % 998,1 hPa 0,0 mm 9,8 km/h (2 Bft) NW 319 ° 0 min 0,000 mm 0,0 UV-I 56 W/m² 2,0 °C 6,5 °C 16,1 km/h (3 Bft)
15.11.2019 10:11 8,2 °C 65 % 998,1 hPa 0,0 mm 9,8 km/h (2 Bft) N-NW 328 ° 0 min 0,000 mm 0,0 UV-I 58 W/m² 2,0 °C 6,5 °C 17,7 km/h (3 Bft)
15.11.2019 10:12 8,2 °C 65 % 998,2 hPa 0,0 mm 10,6 km/h (2 Bft) NW 309 ° 0 min 0,000 mm 0,0 UV-I 60 W/m² 2,0 °C 6,4 °C 17,7 km/h (3 Bft)
15.11.2019 10:13 8,1 °C 64 % 998,3 hPa 0,0 mm 10,0 km/h (2 Bft) W 267 ° 0 min 0,000 mm 0,0 UV-I 60 W/m² 1,7 °C 6,4 °C 14,5 km/h (3 Bft)
15.11.2019 10:14 8,1 °C 64 % 998,6 hPa 0,2 mm 7,2 km/h (2 Bft) W-NW 294 ° 0 min 0,000 mm 0,0 UV-I 60 W/m² 1,7 °C 7,0 °C 14,5 km/h (3 Bft)
15.11.2019 10:15 8,1 °C 64 % 998,8 hPa 0,0 mm 9,4 km/h (2 Bft) W-NW 285 ° 0 min 0,000 mm 0,0 UV-I 60 W/m² 1,7 °C 6,5 °C 14,5 km/h (3 Bft)
15.11.2019 10:16 8,0 °C 65 % 998,9 hPa 0,0 mm 8,9 km/h (2 Bft) NW 312 ° 0 min 0,000 mm 0,0 UV-I 60 W/m² 1,8 °C 6,5 °C 12,9 km/h (3 Bft)
15.11.2019 10:17 7,9 °C 65 % 998,9 hPa 0,0 mm 8,8 km/h (2 Bft) NW 317 ° 0 min 0,000 mm 0,0 UV-I 62 W/m² 1,7 °C 6,4 °C 11,3 km/h (2 Bft)
15.11.2019 10:18 7,8 °C 65 % 999,0 hPa 0,2 mm 10,2 km/h (2 Bft) W-NW 299 ° 0 min 0,000 mm 0,0 UV-I 63 W/m² 1,6 °C 6,0 °C 14,5 km/h (3 Bft)
15.11.2019 10:19 7,7 °C 66 % 999,0 hPa 0,0 mm 7,7 km/h (2 Bft) W 263 ° 0 min 0,000 mm 0,0 UV-I 65 W/m² 1,8 °C 6,4 °C 12,9 km/h (3 Bft)
15.11.2019 10:20 7,6 °C 66 % 999,0 hPa 0,0 mm 15,1 km/h (3 Bft) NW 316 ° 0 min 0,000 mm 0,5 UV-I 76 W/m² 1,7 °C 4,9 °C 22,5 km/h (4 Bft)
15.11.2019 10:21 7,6 °C 66 % 998,9 hPa 0,0 mm 13,4 km/h (3 Bft) W 267 ° 0 min 0,000 mm 0,5 UV-I 79 W/m² 1,7 °C 5,2 °C 16,1 km/h (3 Bft)
15.11.2019 10:22 7,4 °C 67 % 999,1 hPa 0,0 mm 23,6 km/h (4 Bft) W-NW 295 ° 0 min 0,000 mm 0,5 UV-I 79 W/m² 1,7 °C 3,7 °C 33,8 km/h (5 Bft)
15.11.2019 10:23 7,3 °C 67 % 999,2 hPa 0,2 mm 23,0 km/h (4 Bft) W 268 ° 0 min 0,000 mm 0,5 UV-I 81 W/m² 1,6 °C 3,7 °C 29,0 km/h (5 Bft)
15.11.2019 10:24 7,1 °C 68 % 999,3 hPa 0,0 mm 25,9 km/h (4 Bft) W 280 ° 0 min 0,000 mm 0,5 UV-I 84 W/m² 1,6 °C 3,1 °C 33,8 km/h (5 Bft)
15.11.2019 10:25 6,9 °C 68 % 999,3 hPa 0,0 mm 21,3 km/h (4 Bft) W 272 ° 0 min 0,000 mm 0,6 UV-I 90 W/m² 1,4 °C 3,3 °C 27,4 km/h (4 Bft)
15.11.2019 10:26 6,8 °C 68 % 999,3 hPa 0,0 mm 17,9 km/h (3 Bft) W-NW 289 ° 0 min 0,000 mm 0,6 UV-I 95 W/m² 1,3 °C 3,6 °C 24,1 km/h (4 Bft)
15.11.2019 10:27 6,7 °C 69 % 999,3 hPa 0,0 mm 17,0 km/h (3 Bft) W 279 ° 0 min 0,000 mm 0,6 UV-I 97 W/m² 1,4 °C 3,6 °C 22,5 km/h (4 Bft)
15.11.2019 10:28 6,5 °C 70 % 999,3 hPa 0,2 mm 16,2 km/h (3 Bft) W-NW 299 ° 0 min 0,000 mm 0,6 UV-I 100 W/m² 1,4 °C 3,4 °C 24,1 km/h (4 Bft)
15.11.2019 10:29 6,2 °C 71 % 999,3 hPa 0,0 mm 18,1 km/h (3 Bft) W 278 ° 0 min 0,000 mm 0,7 UV-I 102 W/m² 1,3 °C 2,8 °C 24,1 km/h (4 Bft)
15.11.2019 10:30 6,1 °C 72 % 999,4 hPa 0,0 mm 19,3 km/h (3 Bft) W 264 ° 0 min 0,000 mm 0,7 UV-I 105 W/m² 1,4 °C 2,5 °C 24,1 km/h (4 Bft)
15.11.2019 10:31 5,8 °C 72 % 999,5 hPa 0,0 mm 9,4 km/h (2 Bft) W-SW 257 ° 0 min 0,000 mm 0,7 UV-I 107 W/m² 1,2 °C 3,7 °C 16,1 km/h (3 Bft)
15.11.2019 10:32 5,6 °C 73 % 999,5 hPa 0,0 mm 16,8 km/h (3 Bft) W-NW 292 ° 0 min 0,000 mm 0,7 UV-I 111 W/m² 1,2 °C 2,2 °C 29,0 km/h (5 Bft)
15.11.2019 10:33 5,5 °C 74 % 999,5 hPa 0,0 mm 14,6 km/h (3 Bft) W 270 ° 0 min 0,000 mm 0,7 UV-I 111 W/m² 1,2 °C 2,4 °C 22,5 km/h (4 Bft)
15.11.2019 10:34 5,3 °C 75 % 999,5 hPa 0,2 mm 15,5 km/h (3 Bft) W 263 ° 0 min 0,000 mm 0,7 UV-I 114 W/m² 1,2 °C 2,0 °C 22,5 km/h (4 Bft)
15.11.2019 10:35 5,2 °C 75 % 999,3 hPa 0,0 mm 15,0 km/h (3 Bft) W-NW 283 ° 0 min 0,000 mm 0,7 UV-I 116 W/m² 1,1 °C 2,0 °C 20,9 km/h (4 Bft)
15.11.2019 10:36 5,2 °C 76 % 999,4 hPa 0,0 mm 16,2 km/h (3 Bft) W-NW 282 ° 0 min 0,000 mm 0,7 UV-I 118 W/m² 1,3 °C 1,8 °C 22,5 km/h (4 Bft)
15.11.2019 10:37 5,1 °C 76 % 999,6 hPa 0,0 mm 14,5 km/h (3 Bft) W-NW 287 ° 0 min 0,000 mm 0,8 UV-I 120 W/m² 1,2 °C 2,0 °C 25,7 km/h (4 Bft)
15.11.2019 10:38 5,1 °C 76 % 999,7 hPa 0,2 mm 11,7 km/h (2 Bft) NW 316 ° 0 min 0,000 mm 0,8 UV-I 120 W/m² 1,2 °C 2,4 °C 19,3 km/h (3 Bft)
15.11.2019 10:39 5,0 °C 77 % 999,6 hPa 0,0 mm 14,6 km/h (3 Bft) W-NW 286 ° 0 min 0,000 mm 0,8 UV-I 118 W/m² 1,3 °C 1,8 °C 20,9 km/h (4 Bft)
15.11.2019 10:40 4,9 °C 77 % 999,5 hPa 0,0 mm 12,1 km/h (2 Bft) W 273 ° 0 min 0,000 mm 0,8 UV-I 118 W/m² 1,2 °C 2,1 °C 16,1 km/h (3 Bft)
15.11.2019 10:41 4,8 °C 77 % 999,6 hPa 0,0 mm 18,6 km/h (3 Bft) W-NW 287 ° 0 min 0,000 mm 0,8 UV-I 120 W/m² 1,1 °C 1,0 °C 24,1 km/h (4 Bft)
15.11.2019 10:42 4,8 °C 78 % 999,6 hPa 0,0 mm 15,5 km/h (3 Bft) W-NW 292 ° 0 min 0,000 mm 0,8 UV-I 120 W/m² 1,3 °C 1,4 °C 19,3 km/h (3 Bft)
15.11.2019 10:43 4,8 °C 78 % 999,7 hPa 0,0 mm 19,8 km/h (3 Bft) W-NW 293 ° 0 min 0,000 mm 0,8 UV-I 121 W/m² 1,3 °C 0,8 °C 25,7 km/h (4 Bft)
15.11.2019 10:44 4,7 °C 78 % 999,7 hPa 0,0 mm 9,7 km/h (2 Bft) W 277 ° 0 min 0,000 mm 0,8 UV-I 123 W/m² 1,2 °C 2,4 °C 16,1 km/h (3 Bft)
15.11.2019 10:45 4,7 °C 78 % 999,8 hPa 0,2 mm 7,9 km/h (2 Bft) W-NW 293 ° 0 min 0,000 mm 0,8 UV-I 125 W/m² 1,2 °C 2,8 °C 14,5 km/h (3 Bft)
15.11.2019 10:46 4,7 °C 78 % 999,9 hPa 0,0 mm 17,4 km/h (3 Bft) W-NW 290 ° 0 min 0,000 mm 0,8 UV-I 127 W/m² 1,2 °C 1,0 °C 25,7 km/h (4 Bft)
15.11.2019 10:47 4,6 °C 79 % 999,8 hPa 0,0 mm 11,1 km/h (2 Bft) W 279 ° 0 min 0,000 mm 0,8 UV-I 128 W/m² 1,3 °C 1,9 °C 19,3 km/h (3 Bft)
15.11.2019 10:48 4,6 °C 79 % 999,9 hPa 0,0 mm 13,9 km/h (3 Bft) W 276 ° 0 min 0,000 mm 0,8 UV-I 130 W/m² 1,3 °C 1,4 °C 17,7 km/h (3 Bft)
15.11.2019 10:49 4,5 °C 79 % 999,9 hPa 0,0 mm 10,6 km/h (2 Bft) W-NW 296 ° 0 min 0,000 mm 0,8 UV-I 134 W/m² 1,2 °C 1,9 °C 20,9 km/h (4 Bft)
15.11.2019 10:50 4,4 °C 79 % 999,9 hPa 0,0 mm 13,0 km/h (3 Bft) NW 307 ° 0 min 0,000 mm 0,9 UV-I 135 W/m² 1,1 °C 1,3 °C 20,9 km/h (4 Bft)
15.11.2019 10:51 4,4 °C 79 % 1000,0 hPa 0,0 mm 11,7 km/h (2 Bft) NW 321 ° 0 min 0,000 mm 0,9 UV-I 137 W/m² 1,1 °C 1,6 °C 20,9 km/h (4 Bft)
15.11.2019 10:52 4,3 °C 80 % 1000,0 hPa 0,2 mm 5,6 km/h (1 Bft) W 280 ° 0 min 0,000 mm 0,9 UV-I 139 W/m² 1,2 °C 3,1 °C 9,7 km/h (2 Bft)
15.11.2019 10:53 4,3 °C 80 % 1000,0 hPa 0,0 mm 15,5 km/h (3 Bft) W-NW 290 ° 0 min 0,000 mm 0,9 UV-I 139 W/m² 1,2 °C 0,8 °C 24,1 km/h (4 Bft)
15.11.2019 10:54 4,3 °C 80 % 1000,0 hPa 0,0 mm 12,4 km/h (3 Bft) W-NW 292 ° 0 min 0,000 mm 0,9 UV-I 141 W/m² 1,2 °C 1,3 °C 17,7 km/h (3 Bft)
15.11.2019 10:55 4,3 °C 80 % 1000,1 hPa 0,0 mm 12,9 km/h (3 Bft) W-NW 296 ° 0 min 0,000 mm 0,9 UV-I 139 W/m² 1,2 °C 1,2 °C 19,3 km/h (3 Bft)
15.11.2019 10:56 4,2 °C 80 % 1000,0 hPa 0,0 mm 12,5 km/h (3 Bft) W 265 ° 0 min 0,000 mm 0,9 UV-I 139 W/m² 1,1 °C 1,2 °C 19,3 km/h (3 Bft)
15.11.2019 10:57 4,2 °C 81 % 1000,1 hPa 0,0 mm 17,3 km/h (3 Bft) W-NW 288 ° 0 min 0,000 mm 0,9 UV-I 137 W/m² 1,2 °C 0,4 °C 20,9 km/h (4 Bft)
15.11.2019 10:58 4,2 °C 81 % 1000,0 hPa 0,0 mm 10,1 km/h (2 Bft) NW 307 ° 0 min 0,000 mm 0,9 UV-I 135 W/m² 1,2 °C 1,7 °C 14,5 km/h (3 Bft)
15.11.2019 10:59 4,2 °C 81 % 999,9 hPa 0,0 mm 11,3 km/h (2 Bft) SW 230 ° 0 min 0,000 mm 0,9 UV-I 135 W/m² 1,2 °C 1,4 °C 14,5 km/h (3 Bft)
15.11.2019 11:00 4,1 °C 81 % 1000,1 hPa 0,2 mm 18,3 km/h (3 Bft) W 274 ° 0 min 0,000 mm 0,9 UV-I 135 W/m² 1,1 °C 0,2 °C 24,1 km/h (4 Bft)
15.11.2019 11:01 4,1 °C 81 % 1000,2 hPa 0,0 mm 16,5 km/h (3 Bft) W 268 ° 0 min 0,076 mm 0,9 UV-I 135 W/m² 1,1 °C 0,4 °C 24,1 km/h (4 Bft)
15.11.2019 11:02 4,1 °C 81 % 1000,2 hPa 0,0 mm 16,8 km/h (3 Bft) W 273 ° 0 min 0,000 mm 0,9 UV-I 135 W/m² 1,1 °C 0,4 °C 20,9 km/h (4 Bft)
15.11.2019 11:03 4,1 °C 82 % 1000,1 hPa 0,0 mm 19,0 km/h (3 Bft) W-SW 252 ° 0 min 0,000 mm 0,9 UV-I 135 W/m² 1,3 °C 0,1 °C 24,1 km/h (4 Bft)
15.11.2019 11:04 4,1 °C 82 % 1000,1 hPa 0,0 mm 20,1 km/h (4 Bft) NW 306 ° 0 min 0,000 mm 0,9 UV-I 135 W/m² 1,3 °C -0,1 °C 24,1 km/h (4 Bft)
15.11.2019 11:05 4,1 °C 82 % 1000,1 hPa 0,0 mm 12,3 km/h (3 Bft) W-NW 286 ° 0 min 0,000 mm 0,9 UV-I 137 W/m² 1,3 °C 1,1 °C 16,1 km/h (3 Bft)
15.11.2019 11:06 4,1 °C 82 % 1000,0 hPa 0,0 mm 11,7 km/h (2 Bft) W-NW 290 ° 0 min 0,000 mm 0,9 UV-I 139 W/m² 1,3 °C 1,2 °C 19,3 km/h (3 Bft)
15.11.2019 11:07 4,0 °C 82 % 1000,1 hPa 0,2 mm 12,7 km/h (3 Bft) W 273 ° 0 min 0,000 mm 0,9 UV-I 142 W/m² 1,2 °C 0,9 °C 20,9 km/h (4 Bft)
15.11.2019 11:08 3,9 °C 82 % 1000,1 hPa 0,0 mm 15,9 km/h (3 Bft) W 271 ° 0 min 0,000 mm 0,9 UV-I 144 W/m² 1,1 °C 0,3 °C 25,7 km/h (4 Bft)
15.11.2019 11:09 3,9 °C 82 % 1000,2 hPa 0,0 mm 18,4 km/h (3 Bft) W 272 ° 0 min 0,000 mm 0,9 UV-I 144 W/m² 1,1 °C -0,1 °C 24,1 km/h (4 Bft)
15.11.2019 11:10 3,9 °C 82 % 1000,2 hPa 0,0 mm 12,8 km/h (3 Bft) W-NW 291 ° 0 min 0,000 mm 0,9 UV-I 146 W/m² 1,1 °C 0,8 °C 16,1 km/h (3 Bft)
15.11.2019 11:11 3,9 °C 82 % 1000,1 hPa 0,0 mm 15,0 km/h (3 Bft) W-NW 292 ° 0 min 0,000 mm 0,9 UV-I 148 W/m² 1,1 °C 0,4 °C 22,5 km/h (4 Bft)
15.11.2019 11:12 3,9 °C 82 % 1000,0 hPa 0,0 mm 21,9 km/h (4 Bft) W 271 ° 0 min 0,000 mm 1,0 UV-I 148 W/m² 1,1 °C -0,6 °C 48,3 km/h (6 Bft)
15.11.2019 11:13 3,9 °C 82 % 1000,0 hPa 0,0 mm 15,2 km/h (3 Bft) NW 310 ° 0 min 0,000 mm 1,0 UV-I 148 W/m² 1,1 °C 0,4 °C 22,5 km/h (4 Bft)
15.11.2019 11:14 3,9 °C 82 % 1000,0 hPa 0,2 mm 11,9 km/h (2 Bft) W-NW 293 ° 0 min 0,000 mm 1,0 UV-I 148 W/m² 1,1 °C 0,9 °C 16,1 km/h (3 Bft)
15.11.2019 11:15 3,9 °C 83 % 1000,0 hPa 0,0 mm 11,8 km/h (2 Bft) W 263 ° 0 min 0,000 mm 0,9 UV-I 144 W/m² 1,3 °C 1,0 °C 19,3 km/h (3 Bft)
15.11.2019 11:16 3,9 °C 83 % 1000,1 hPa 0,0 mm 14,8 km/h (3 Bft) SW 233 ° 0 min 0,000 mm 0,9 UV-I 139 W/m² 1,3 °C 0,4 °C 22,5 km/h (4 Bft)
15.11.2019 11:17 3,9 °C 83 % 1000,2 hPa 0,0 mm 18,0 km/h (3 Bft) W-NW 286 ° 0 min 0,000 mm 0,9 UV-I 134 W/m² 1,3 °C -0,1 °C 25,7 km/h (4 Bft)
15.11.2019 11:18 3,9 °C 83 % 1000,2 hPa 0,0 mm 15,8 km/h (3 Bft) W 260 ° 0 min 0,000 mm 0,9 UV-I 130 W/m² 1,3 °C 0,3 °C 25,7 km/h (4 Bft)
15.11.2019 11:19 3,9 °C 83 % 1000,2 hPa 0,0 mm 9,0 km/h (2 Bft) W-SW 254 ° 0 min 0,000 mm 0,9 UV-I 127 W/m² 1,3 °C 1,6 °C 16,1 km/h (3 Bft)
15.11.2019 11:20 3,9 °C 83 % 1000,2 hPa 0,0 mm 10,4 km/h (2 Bft) W-NW 288 ° 0 min 0,000 mm 0,9 UV-I 127 W/m² 1,3 °C 1,3 °C 16,1 km/h (3 Bft)
15.11.2019 11:21 3,8 °C 83 % 1000,1 hPa 0,2 mm 12,8 km/h (3 Bft) W 281 ° 0 min 0,000 mm 0,9 UV-I 125 W/m² 1,2 °C 0,7 °C 22,5 km/h (4 Bft)
15.11.2019 11:22 3,8 °C 83 % 1000,0 hPa 0,0 mm 9,4 km/h (2 Bft) W 265 ° 0 min 0,000 mm 0,8 UV-I 123 W/m² 1,2 °C 1,4 °C 14,5 km/h (3 Bft)
15.11.2019 11:23 3,8 °C 83 % 1000,1 hPa 0,0 mm 14,6 km/h (3 Bft) NW 312 ° 0 min 0,000 mm 0,8 UV-I 123 W/m² 1,2 °C 0,3 °C 24,1 km/h (4 Bft)
15.11.2019 11:24 3,8 °C 83 % 1000,2 hPa 0,0 mm 14,6 km/h (3 Bft) W 265 ° 0 min 0,000 mm 0,8 UV-I 121 W/m² 1,2 °C 0,3 °C 22,5 km/h (4 Bft)
15.11.2019 11:25 3,8 °C 83 % 1000,3 hPa 0,0 mm 13,3 km/h (3 Bft) W 261 ° 0 min 0,000 mm 0,8 UV-I 120 W/m² 1,2 °C 0,6 °C 19,3 km/h (3 Bft)
15.11.2019 11:26 3,8 °C 83 % 1000,3 hPa 0,0 mm 16,5 km/h (3 Bft) W-NW 288 ° 0 min 0,000 mm 0,8 UV-I 120 W/m² 1,2 °C 0,0 °C 24,1 km/h (4 Bft)
15.11.2019 11:27 3,8 °C 83 % 1000,3 hPa 0,0 mm 8,4 km/h (2 Bft) W 275 ° 0 min 0,000 mm 0,8 UV-I 120 W/m² 1,2 °C 1,6 °C 12,9 km/h (3 Bft)
15.11.2019 11:28 3,8 °C 83 % 1000,3 hPa 0,0 mm 10,8 km/h (2 Bft) W-NW 285 ° 0 min 0,000 mm 0,8 UV-I 120 W/m² 1,2 °C 1,0 °C 17,7 km/h (3 Bft)
15.11.2019 11:29 3,8 °C 83 % 1000,1 hPa 0,0 mm 7,4 km/h (2 Bft) NW 310 ° 0 min 0,000 mm 0,8 UV-I 118 W/m² 1,2 °C 1,9 °C 12,9 km/h (3 Bft)
15.11.2019 11:30 3,8 °C 83 % 1000,1 hPa 0,2 mm 5,1 km/h (1 Bft) NW 307 ° 0 min 0,000 mm 0,8 UV-I 114 W/m² 1,2 °C 2,7 °C 6,4 km/h (2 Bft)
15.11.2019 11:31 3,8 °C 83 % 1000,1 hPa 0,0 mm 5,8 km/h (2 Bft) W-NW 290 ° 0 min 0,000 mm 0,7 UV-I 111 W/m² 1,2 °C 2,4 °C 9,7 km/h (2 Bft)
15.11.2019 11:32 3,8 °C 83 % 1000,2 hPa 0,0 mm 5,3 km/h (1 Bft) W-NW 284 ° 0 min 0,000 mm 0,7 UV-I 111 W/m² 1,2 °C 2,6 °C 9,7 km/h (2 Bft)
15.11.2019 11:33 3,8 °C 83 % 1000,3 hPa 0,0 mm 5,8 km/h (2 Bft) SW 235 ° 0 min 0,000 mm 0,7 UV-I 109 W/m² 1,2 °C 2,4 °C 8,0 km/h (2 Bft)
15.11.2019 11:34 3,7 °C 83 % 1000,5 hPa 0,0 mm 4,3 km/h (1 Bft) W 274 ° 0 min 0,000 mm 0,7 UV-I 107 W/m² 1,1 °C 3,7 °C 6,4 km/h (2 Bft)
15.11.2019 11:35 3,7 °C 84 % 1000,4 hPa 0,0 mm 11,3 km/h (2 Bft) NW 312 ° 0 min 0,000 mm 0,7 UV-I 104 W/m² 1,3 °C 0,8 °C 16,1 km/h (3 Bft)
15.11.2019 11:36 3,7 °C 84 % 1000,4 hPa 0,0 mm 13,1 km/h (3 Bft) W-NW 290 ° 0 min 0,000 mm 0,7 UV-I 100 W/m² 1,3 °C 0,5 °C 17,7 km/h (3 Bft)
15.11.2019 11:37 3,8 °C 84 % 1000,5 hPa 0,0 mm 4,0 km/h (1 Bft) W-NW 296 ° 0 min 0,000 mm 0,7 UV-I 98 W/m² 1,4 °C 3,8 °C 4,8 km/h (1 Bft)
15.11.2019 11:38 3,8 °C 84 % 1000,5 hPa 0,0 mm 6,2 km/h (2 Bft) W-NW 283 ° 0 min 0,000 mm 0,7 UV-I 98 W/m² 1,4 °C 2,3 °C 11,3 km/h (2 Bft)
15.11.2019 11:39 3,8 °C 84 % 1000,5 hPa 0,2 mm 12,1 km/h (2 Bft) W-NW 283 ° 0 min 0,000 mm 0,7 UV-I 100 W/m² 1,4 °C 0,8 °C 22,5 km/h (4 Bft)
15.11.2019 11:40 3,8 °C 83 % 1000,3 hPa 0,0 mm 7,8 km/h (2 Bft) W-NW 294 ° 0 min 0,000 mm 0,7 UV-I 102 W/m² 1,2 °C 1,8 °C 16,1 km/h (3 Bft)
15.11.2019 11:41 3,7 °C 83 % 1000,2 hPa 0,0 mm 2,7 km/h (1 Bft) NW 311 ° 0 min 0,000 mm 0,7 UV-I 104 W/m² 1,1 °C 3,7 °C 6,4 km/h (2 Bft)
15.11.2019 11:42 3,7 °C 83 % 1000,3 hPa 0,0 mm 1,5 km/h (1 Bft) NW 316 ° 0 min 0,000 mm 0,7 UV-I 107 W/m² 1,1 °C 3,7 °C 6,4 km/h (2 Bft)
15.11.2019 11:43 3,7 °C 83 % 1000,4 hPa 0,0 mm 3,9 km/h (1 Bft) NO 41 ° 0 min 0,000 mm 0,7 UV-I 107 W/m² 1,1 °C 3,7 °C 6,4 km/h (2 Bft)
15.11.2019 11:44 3,7 °C 84 % 1000,6 hPa 0,0 mm 3,4 km/h (1 Bft) NW 311 ° 0 min 0,000 mm 0,7 UV-I 107 W/m² 1,3 °C 3,7 °C 8,0 km/h (2 Bft)
15.11.2019 11:45 3,7 °C 84 % 1000,6 hPa 0,0 mm 4,0 km/h (1 Bft) NW 307 ° 0 min 0,000 mm 0,7 UV-I 105 W/m² 1,3 °C 3,7 °C 6,4 km/h (2 Bft)
15.11.2019 11:46 3,7 °C 84 % 1000,6 hPa 0,0 mm 1,9 km/h (1 Bft) NW 308 ° 0 min 0,000 mm 0,7 UV-I 102 W/m² 1,3 °C 3,7 °C 3,2 km/h (1 Bft)
15.11.2019 11:47 3,6 °C 84 % 1000,7 hPa 0,0 mm 0,0 km/h (0 Bft) NW 308 ° 0 min 0,000 mm 0,7 UV-I 102 W/m² 1,2 °C 3,6 °C 0,0 km/h (0 Bft)
15.11.2019 11:48 3,6 °C 84 % 1000,8 hPa 0,0 mm 2,0 km/h (1 Bft) NW 308 ° 0 min 0,000 mm 0,7 UV-I 98 W/m² 1,2 °C 3,6 °C 3,2 km/h (1 Bft)
15.11.2019 11:49 3,6 °C 84 % 1000,9 hPa 0,0 mm 2,7 km/h (1 Bft) NW 308 ° 0 min 0,000 mm 0,6 UV-I 93 W/m² 1,2 °C 3,6 °C 3,2 km/h (1 Bft)
15.11.2019 11:50 3,7 °C 84 % 1001,0 hPa 0,0 mm 1,8 km/h (1 Bft) NW 308 ° 0 min 0,000 mm 0,6 UV-I 91 W/m² 1,3 °C 3,7 °C 3,2 km/h (1 Bft)
15.11.2019 11:51 3,7 °C 84 % 1001,0 hPa 0,0 mm 6,3 km/h (2 Bft) S 191 ° 0 min 0,000 mm 0,6 UV-I 91 W/m² 1,3 °C 2,1 °C 9,7 km/h (2 Bft)
15.11.2019 11:52 3,7 °C 84 % 1001,0 hPa 0,2 mm 5,9 km/h (2 Bft) S-SW 198 ° 0 min 0,000 mm 0,6 UV-I 91 W/m² 1,3 °C 2,3 °C 9,7 km/h (2 Bft)
15.11.2019 11:53 3,7 °C 84 % 1001,0 hPa 0,0 mm 3,8 km/h (1 Bft) S-SW 198 ° 0 min 0,000 mm 0,6 UV-I 88 W/m² 1,3 °C 3,7 °C 6,4 km/h (2 Bft)
15.11.2019 11:54 3,7 °C 84 % 1001,0 hPa 0,0 mm 2,0 km/h (1 Bft) W 259 ° 0 min 0,000 mm 0,6 UV-I 81 W/m² 1,3 °C 3,7 °C 4,8 km/h (1 Bft)
15.11.2019 11:55 3,7 °C 84 % 1001,0 hPa 0,0 mm 4,2 km/h (1 Bft) W 275 ° 0 min 0,000 mm 0,6 UV-I 84 W/m² 1,3 °C 3,7 °C 4,8 km/h (1 Bft)
15.11.2019 11:56 3,7 °C 84 % 1000,9 hPa 0,0 mm 3,4 km/h (1 Bft) W 271 ° 0 min 0,000 mm 0,6 UV-I 84 W/m² 1,3 °C 3,7 °C 4,8 km/h (1 Bft)
15.11.2019 11:57 3,6 °C 84 % 1001,0 hPa 0,0 mm 1,7 km/h (1 Bft) W 271 ° 0 min 0,000 mm 0,6 UV-I 88 W/m² 1,2 °C 3,6 °C 3,2 km/h (1 Bft)
15.11.2019 11:58 3,6 °C 84 % 1001,2 hPa 0,0 mm 2,3 km/h (1 Bft) W 271 ° 0 min 0,000 mm 0,6 UV-I 90 W/m² 1,2 °C 3,6 °C 3,2 km/h (1 Bft)
15.11.2019 11:59 3,6 °C 84 % 1001,3 hPa 0,0 mm 3,4 km/h (1 Bft) W 271 ° 0 min 0,000 mm 0,6 UV-I 90 W/m² 1,2 °C 3,6 °C 4,8 km/h (1 Bft)
15.11.2019 12:00 3,6 °C 84 % 1001,3 hPa 0,0 mm 1,9 km/h (1 Bft) W 271 ° 0 min 0,000 mm 0,6 UV-I 91 W/m² 1,2 °C 3,6 °C 3,2 km/h (1 Bft)
15.11.2019 12:01 3,6 °C 84 % 1001,2 hPa 0,0 mm 0,0 km/h (0 Bft) W 271 ° 0 min 0,051 mm 0,6 UV-I 91 W/m² 1,2 °C 3,6 °C 0,0 km/h (0 Bft)
15.11.2019 12:02 3,6 °C 85 % 1001,1 hPa 0,0 mm 0,0 km/h (0 Bft) W 272 ° 0 min 0,000 mm 0,6 UV-I 90 W/m² 1,3 °C 3,6 °C 0,0 km/h (0 Bft)
15.11.2019 12:03 3,6 °C 84 % 1001,0 hPa 0,2 mm 0,0 km/h (0 Bft) W 272 ° 0 min 0,000 mm 0,6 UV-I 88 W/m² 1,2 °C 3,6 °C 0,0 km/h (0 Bft)
15.11.2019 12:04 3,6 °C 84 % 1001,2 hPa 0,0 mm 0,0 km/h (0 Bft) W 271 ° 0 min 0,000 mm 0,6 UV-I 84 W/m² 1,2 °C 3,6 °C 0,0 km/h (0 Bft)
15.11.2019 12:05 3,6 °C 85 % 1001,3 hPa 0,0 mm 0,0 km/h (0 Bft) W 271 ° 0 min 0,000 mm 0,5 UV-I 81 W/m² 1,3 °C 3,6 °C 0,0 km/h (0 Bft)
15.11.2019 12:06 3,7 °C 85 % 1001,4 hPa 0,0 mm 0,0 km/h (0 Bft) W 272 ° 0 min 0,000 mm 0,5 UV-I 81 W/m² 1,4 °C 3,7 °C 0,0 km/h (0 Bft)
15.11.2019 12:07 3,7 °C 85 % 1001,3 hPa 0,0 mm 5,0 km/h (1 Bft) N-NW 338 ° 0 min 0,000 mm 0,5 UV-I 81 W/m² 1,4 °C 2,6 °C 8,0 km/h (2 Bft)
15.11.2019 12:08 3,6 °C 84 % 1001,0 hPa 0,0 mm 7,7 km/h (2 Bft) NW 317 ° 0 min 0,000 mm 0,5 UV-I 84 W/m² 1,2 °C 1,6 °C 9,7 km/h (2 Bft)
15.11.2019 12:09 3,6 °C 85 % 1000,9 hPa 0,0 mm 2,1 km/h (1 Bft) SW 225 ° 0 min 0,000 mm 0,6 UV-I 86 W/m² 1,3 °C 3,6 °C 4,8 km/h (1 Bft)
15.11.2019 12:10 3,6 °C 85 % 1001,0 hPa 0,0 mm 4,1 km/h (1 Bft) S-SW 210 ° 0 min 0,000 mm 0,6 UV-I 91 W/m² 1,3 °C 3,6 °C 4,8 km/h (1 Bft)
15.11.2019 12:11 3,6 °C 85 % 1001,2 hPa 0,0 mm 3,6 km/h (1 Bft) S-SW 209 ° 0 min 0,000 mm 0,6 UV-I 105 W/m² 1,3 °C 3,6 °C 4,8 km/h (1 Bft)
15.11.2019 12:12 3,7 °C 85 % 1001,2 hPa 0,0 mm 0,6 km/h (0 Bft) S-SW 211 ° 0 min 0,000 mm 0,7 UV-I 114 W/m² 1,4 °C 3,7 °C 3,2 km/h (1 Bft)
15.11.2019 12:13 3,7 °C 85 % 1001,0 hPa 0,0 mm 4,8 km/h (1 Bft) N-NW 328 ° 0 min 0,000 mm 0,7 UV-I 121 W/m² 1,4 °C 2,7 °C 6,4 km/h (2 Bft)
15.11.2019 12:14 3,7 °C 85 % 1000,9 hPa 0,0 mm 3,7 km/h (1 Bft) N-NW 329 ° 0 min 0,000 mm 0,8 UV-I 121 W/m² 1,4 °C 3,7 °C 4,8 km/h (1 Bft)
15.11.2019 12:15 3,7 °C 85 % 1001,0 hPa 0,0 mm 0,6 km/h (0 Bft) N-NW 329 ° 0 min 0,000 mm 0,8 UV-I 134 W/m² 1,4 °C 3,7 °C 1,6 km/h (1 Bft)
15.11.2019 12:16 3,7 °C 85 % 1001,1 hPa 0,0 mm 3,9 km/h (1 Bft) O 92 ° 0 min 0,000 mm 0,8 UV-I 139 W/m² 1,4 °C 3,7 °C 4,8 km/h (1 Bft)
15.11.2019 12:17 3,7 °C 85 % 1001,1 hPa 0,0 mm 4,0 km/h (1 Bft) O 94 ° 0 min 0,000 mm 0,9 UV-I 141 W/m² 1,4 °C 3,7 °C 4,8 km/h (1 Bft)
15.11.2019 12:18 3,7 °C 85 % 1001,2 hPa 0,0 mm 2,0 km/h (1 Bft) O 94 ° 0 min 0,000 mm 0,9 UV-I 141 W/m² 1,4 °C 3,7 °C 3,2 km/h (1 Bft)
15.11.2019 12:19 3,7 °C 85 % 1001,2 hPa 0,2 mm 0,0 km/h (0 Bft) O 94 ° 0 min 0,000 mm 0,9 UV-I 141 W/m² 1,4 °C 3,7 °C 0,0 km/h (0 Bft)
15.11.2019 12:20 3,8 °C 85 % 1001,2 hPa 0,0 mm 1,7 km/h (1 Bft) O 94 ° 0 min 0,000 mm 0,9 UV-I 139 W/m² 1,5 °C 3,8 °C 3,2 km/h (1 Bft)
15.11.2019 12:21 3,8 °C 84 % 1001,2 hPa 0,0 mm 1,8 km/h (1 Bft) O 94 ° 0 min 0,000 mm 0,9 UV-I 139 W/m² 1,4 °C 3,8 °C 3,2 km/h (1 Bft)
15.11.2019 12:22 3,9 °C 84 % 1001,2 hPa 0,0 mm 0,5 km/h (0 Bft) O 94 ° 0 min 0,000 mm 0,9 UV-I 137 W/m² 1,4 °C 3,9 °C 3,2 km/h (1 Bft)
15.11.2019 12:23 3,9 °C 85 % 1001,2 hPa 0,0 mm 1,5 km/h (1 Bft) O 94 ° 0 min 0,000 mm 0,9 UV-I 137 W/m² 1,6 °C 3,9 °C 3,2 km/h (1 Bft)
15.11.2019 12:24 3,9 °C 85 % 1001,2 hPa 0,0 mm 4,2 km/h (1 Bft) N 351 ° 0 min 0,000 mm 0,9 UV-I 137 W/m² 1,6 °C 3,9 °C 6,4 km/h (2 Bft)
15.11.2019 12:25 3,9 °C 85 % 1001,2 hPa 0,0 mm 6,0 km/h (2 Bft) N 349 ° 0 min 0,000 mm 0,9 UV-I 137 W/m² 1,6 °C 2,5 °C 6,4 km/h (2 Bft)
15.11.2019 12:26 3,9 °C 84 % 1001,2 hPa 0,0 mm 3,9 km/h (1 Bft) N 350 ° 0 min 0,000 mm 0,9 UV-I 141 W/m² 1,4 °C 3,9 °C 6,4 km/h (2 Bft)
15.11.2019 12:27 3,9 °C 84 % 1001,4 hPa 0,0 mm 1,4 km/h (1 Bft) N 350 ° 0 min 0,000 mm 0,9 UV-I 144 W/m² 1,4 °C 3,9 °C 4,8 km/h (1 Bft)
15.11.2019 12:28 3,9 °C 85 % 1001,4 hPa 0,0 mm 0,0 km/h (0 Bft) N 350 ° 0 min 0,000 mm 0,9 UV-I 149 W/m² 1,6 °C 3,9 °C 0,0 km/h (0 Bft)
15.11.2019 12:29 3,9 °C 85 % 1001,5 hPa 0,0 mm 2,8 km/h (1 Bft) N-NW 347 ° 0 min 0,000 mm 1,0 UV-I 163 W/m² 1,6 °C 3,9 °C 6,4 km/h (2 Bft)
15.11.2019 12:30 3,9 °C 85 % 1001,4 hPa 0,0 mm 2,5 km/h (1 Bft) N-NW 347 ° 0 min 0,000 mm 1,0 UV-I 169 W/m² 1,6 °C 3,9 °C 6,4 km/h (2 Bft)
15.11.2019 12:31 3,9 °C 85 % 1001,4 hPa 0,2 mm 2,6 km/h (1 Bft) N-NW 347 ° 0 min 0,000 mm 1,1 UV-I 174 W/m² 1,6 °C 3,9 °C 4,8 km/h (1 Bft)
15.11.2019 12:32 3,9 °C 85 % 1001,5 hPa 0,0 mm 2,5 km/h (1 Bft) N-NW 347 ° 0 min 0,000 mm 1,1 UV-I 174 W/m² 1,6 °C 3,9 °C 4,8 km/h (1 Bft)
15.11.2019 12:33 3,9 °C 84 % 1001,5 hPa 0,0 mm 3,3 km/h (1 Bft) N-NW 343 ° 0 min 0,000 mm 1,1 UV-I 181 W/m² 1,4 °C 3,9 °C 4,8 km/h (1 Bft)
15.11.2019 12:34 3,9 °C 85 % 1001,5 hPa 0,0 mm 2,5 km/h (1 Bft) N-NW 343 ° 0 min 0,000 mm 1,1 UV-I 179 W/m² 1,6 °C 3,9 °C 4,8 km/h (1 Bft)
15.11.2019 12:35 3,9 °C 85 % 1001,6 hPa 0,0 mm 2,3 km/h (1 Bft) N-NW 343 ° 0 min 0,000 mm 1,1 UV-I 171 W/m² 1,6 °C 3,9 °C 4,8 km/h (1 Bft)
15.11.2019 12:36 3,9 °C 85 % 1001,6 hPa 0,0 mm 0,0 km/h (0 Bft) N-NW 343 ° 0 min 0,000 mm 1,1 UV-I 165 W/m² 1,6 °C 3,9 °C 0,0 km/h (0 Bft)
15.11.2019 12:37 3,9 °C 85 % 1001,6 hPa 0,0 mm 0,0 km/h (0 Bft) N-NW 343 ° 0 min 0,000 mm 1,1 UV-I 162 W/m² 1,6 °C 3,9 °C 0,0 km/h (0 Bft)
15.11.2019 12:38 3,9 °C 85 % 1001,7 hPa 0,0 mm 0,0 km/h (0 Bft) N-NW 343 ° 0 min 0,000 mm 1,1 UV-I 160 W/m² 1,6 °C 3,9 °C 0,0 km/h (0 Bft)
15.11.2019 12:39 3,9 °C 85 % 1001,6 hPa 0,0 mm 0,0 km/h (0 Bft) N-NW 343 ° 0 min 0,000 mm 1,1 UV-I 156 W/m² 1,6 °C 3,9 °C 0,0 km/h (0 Bft)
15.11.2019 12:40 3,9 °C 84 % 1001,6 hPa 0,0 mm 0,5 km/h (0 Bft) N-NW 343 ° 0 min 0,000 mm 1,0 UV-I 153 W/m² 1,4 °C 3,9 °C 3,2 km/h (1 Bft)
15.11.2019 12:41 4,0 °C 84 % 1001,6 hPa 0,0 mm 2,3 km/h (1 Bft) N-NW 343 ° 0 min 0,000 mm 1,0 UV-I 148 W/m² 1,5 °C 4,0 °C 4,8 km/h (1 Bft)
15.11.2019 12:42 4,0 °C 84 % 1001,6 hPa 0,0 mm 0,2 km/h (0 Bft) N-NW 343 ° 0 min 0,000 mm 1,0 UV-I 149 W/m² 1,5 °C 4,0 °C 1,6 km/h (1 Bft)
15.11.2019 12:43 4,1 °C 84 % 1001,6 hPa 0,0 mm 0,0 km/h (0 Bft) N-NW 343 ° 0 min 0,000 mm 1,0 UV-I 151 W/m² 1,6 °C 4,1 °C 0,0 km/h (0 Bft)
15.11.2019 12:44 4,1 °C 84 % 1001,6 hPa 0,0 mm 0,0 km/h (0 Bft) N-NW 343 ° 0 min 0,000 mm 1,1 UV-I 153 W/m² 1,6 °C 4,1 °C 0,0 km/h (0 Bft)
15.11.2019 12:45 4,1 °C 84 % 1001,6 hPa 0,0 mm 0,0 km/h (0 Bft) N-NW 343 ° 0 min 0,000 mm 1,1 UV-I 155 W/m² 1,6 °C 4,1 °C 0,0 km/h (0 Bft)
15.11.2019 12:46 4,0 °C 84 % 1001,5 hPa 0,0 mm 0,0 km/h (0 Bft) N-NW 343 ° 0 min 0,000 mm 1,1 UV-I 155 W/m² 1,5 °C 4,0 °C 0,0 km/h (0 Bft)
15.11.2019 12:47 4,1 °C 84 % 1001,5 hPa 0,2 mm 0,0 km/h (0 Bft) N-NW 343 ° 0 min 0,000 mm 1,1 UV-I 153 W/m² 1,6 °C 4,1 °C 0,0 km/h (0 Bft)
15.11.2019 12:48 4,0 °C 84 % 1001,5 hPa 0,0 mm 0,0 km/h (0 Bft) N-NW 343 ° 0 min 0,000 mm 1,1 UV-I 153 W/m² 1,5 °C 4,0 °C 0,0 km/h (0 Bft)
15.11.2019 12:49 4,0 °C 84 % 1001,4 hPa 0,0 mm 0,0 km/h (0 Bft) N-NW 343 ° 0 min 0,000 mm 1,1 UV-I 151 W/m² 1,5 °C 4,0 °C 0,0 km/h (0 Bft)
15.11.2019 12:50 4,0 °C 84 % 1001,4 hPa 0,0 mm 0,0 km/h (0 Bft) N-NW 343 ° 0 min 0,000 mm 1,1 UV-I 151 W/m² 1,5 °C 4,0 °C 0,0 km/h (0 Bft)
15.11.2019 12:51 4,1 °C 84 % 1001,3 hPa 0,0 mm 0,3 km/h (0 Bft) N-NW 343 ° 0 min 0,000 mm 1,1 UV-I 144 W/m² 1,6 °C 4,1 °C 1,6 km/h (1 Bft)
15.11.2019 12:52 4,0 °C 84 % 1001,3 hPa 0,0 mm 2,6 km/h (1 Bft) N-NW 343 ° 0 min 0,000 mm 1,1 UV-I 139 W/m² 1,5 °C 4,0 °C 3,2 km/h (1 Bft)
15.11.2019 12:53 4,1 °C 84 % 1001,3 hPa 0,0 mm 1,3 km/h (1 Bft) N-NW 343 ° 0 min 0,000 mm 1,1 UV-I 137 W/m² 1,6 °C 4,1 °C 3,2 km/h (1 Bft)
15.11.2019 12:54 4,1 °C 84 % 1001,3 hPa 0,0 mm 0,1 km/h (0 Bft) N-NW 343 ° 0 min 0,000 mm 1,1 UV-I 135 W/m² 1,6 °C 4,1 °C 1,6 km/h (1 Bft)
15.11.2019 12:55 4,1 °C 84 % 1001,4 hPa 0,0 mm 0,0 km/h (0 Bft) N-NW 343 ° 0 min 0,000 mm 1,1 UV-I 135 W/m² 1,6 °C 4,1 °C 0,0 km/h (0 Bft)
15.11.2019 12:56 4,1 °C 84 % 1001,5 hPa 0,0 mm 0,0 km/h (0 Bft) N-NW 343 ° 0 min 0,000 mm 1,1 UV-I 134 W/m² 1,6 °C 4,1 °C 0,0 km/h (0 Bft)
15.11.2019 12:57 4,1 °C 84 % 1001,5 hPa 0,0 mm 0,7 km/h (0 Bft) N-NW 343 ° 0 min 0,000 mm 1,1 UV-I 134 W/m² 1,6 °C 4,1 °C 1,6 km/h (1 Bft)
15.11.2019 12:58 4,1 °C 84 % 1001,6 hPa 0,0 mm 4,3 km/h (1 Bft) N-NW 343 ° 0 min 0,000 mm 1,1 UV-I 128 W/m² 1,6 °C 4,1 °C 6,4 km/h (2 Bft)
15.11.2019 12:59 4,1 °C 85 % 1001,5 hPa 0,0 mm 3,2 km/h (1 Bft) N-NW 343 ° 0 min 0,000 mm 1,1 UV-I 125 W/m² 1,8 °C 4,1 °C 3,2 km/h (1 Bft)
15.11.2019 13:00 4,1 °C 84 % 1001,5 hPa 0,0 mm 3,9 km/h (1 Bft) N-NW 342 ° 0 min 0,051 mm 1,1 UV-I 121 W/m² 1,6 °C 4,1 °C 6,4 km/h (2 Bft)
15.11.2019 13:01 4,1 °C 84 % 1001,5 hPa 0,2 mm 4,3 km/h (1 Bft) NW 310 ° 0 min 0,000 mm 1,0 UV-I 118 W/m² 1,6 °C 4,1 °C 6,4 km/h (2 Bft)
15.11.2019 13:02 4,1 °C 84 % 1001,5 hPa 0,0 mm 1,7 km/h (1 Bft) NW 310 ° 0 min 0,000 mm 1,0 UV-I 114 W/m² 1,6 °C 4,1 °C 3,2 km/h (1 Bft)
15.11.2019 13:03 4,1 °C 84 % 1001,4 hPa 0,0 mm 1,9 km/h (1 Bft) NW 310 ° 0 min 0,000 mm 1,0 UV-I 109 W/m² 1,6 °C 4,1 °C 3,2 km/h (1 Bft)
15.11.2019 13:04 4,0 °C 85 % 1001,5 hPa 0,0 mm 1,5 km/h (1 Bft) NW 310 ° 0 min 0,000 mm 0,9 UV-I 97 W/m² 1,7 °C 4,0 °C 3,2 km/h (1 Bft)
15.11.2019 13:05 3,9 °C 84 % 1001,4 hPa 0,0 mm 1,1 km/h (1 Bft) NW 310 ° 0 min 0,000 mm 0,9 UV-I 91 W/m² 1,4 °C 3,9 °C 3,2 km/h (1 Bft)
15.11.2019 13:06 3,9 °C 85 % 1001,4 hPa 0,0 mm 3,0 km/h (1 Bft) NW 310 ° 0 min 0,000 mm 0,9 UV-I 90 W/m² 1,6 °C 3,9 °C 4,8 km/h (1 Bft)
15.11.2019 13:07 3,9 °C 85 % 1001,4 hPa 0,0 mm 3,5 km/h (1 Bft) NW 310 ° 0 min 0,000 mm 0,8 UV-I 88 W/m² 1,6 °C 3,9 °C 4,8 km/h (1 Bft)
15.11.2019 13:08 3,9 °C 85 % 1001,4 hPa 0,0 mm 2,5 km/h (1 Bft) NW 310 ° 0 min 0,000 mm 0,8 UV-I 88 W/m² 1,6 °C 3,9 °C 3,2 km/h (1 Bft)
15.11.2019 13:09 3,9 °C 85 % 1001,4 hPa 0,0 mm 2,1 km/h (1 Bft) NW 310 ° 0 min 0,000 mm 0,8 UV-I 90 W/m² 1,6 °C 3,9 °C 3,2 km/h (1 Bft)
15.11.2019 13:10 3,9 °C 85 % 1001,4 hPa 0,0 mm 2,8 km/h (1 Bft) NW 310 ° 0 min 0,000 mm 0,9 UV-I 105 W/m² 1,6 °C 3,9 °C 3,2 km/h (1 Bft)
15.11.2019 13:11 3,9 °C 85 % 1001,4 hPa 0,0 mm 0,1 km/h (0 Bft) NW 310 ° 0 min 0,000 mm 0,9 UV-I 114 W/m² 1,6 °C 3,9 °C 1,6 km/h (1 Bft)
15.11.2019 13:12 3,8 °C 85 % 1001,4 hPa 0,0 mm 0,0 km/h (0 Bft) NW 310 ° 0 min 0,000 mm 1,0 UV-I 125 W/m² 1,5 °C 3,8 °C 0,0 km/h (0 Bft)
15.11.2019 13:13 3,8 °C 85 % 1001,5 hPa 0,0 mm 0,1 km/h (0 Bft) NW 310 ° 0 min 0,000 mm 1,0 UV-I 135 W/m² 1,5 °C 3,8 °C 1,6 km/h (1 Bft)
15.11.2019 13:14 3,8 °C 86 % 1001,5 hPa 0,0 mm 0,0 km/h (0 Bft) NW 310 ° 0 min 0,000 mm 1,0 UV-I 142 W/m² 1,7 °C 3,8 °C 0,0 km/h (0 Bft)
15.11.2019 13:15 3,8 °C 86 % 1001,4 hPa 0,0 mm 0,0 km/h (0 Bft) NW 310 ° 0 min 0,000 mm 1,0 UV-I 146 W/m² 1,7 °C 3,8 °C 0,0 km/h (0 Bft)
15.11.2019 13:16 3,9 °C 85 % 1001,5 hPa 0,2 mm 0,0 km/h (0 Bft) NW 310 ° 0 min 0,000 mm 1,1 UV-I 144 W/m² 1,6 °C 3,9 °C 0,0 km/h (0 Bft)
15.11.2019 13:17 3,9 °C 85 % 1001,5 hPa 0,0 mm 0,1 km/h (0 Bft) NW 310 ° 0 min 0,000 mm 1,1 UV-I 141 W/m² 1,6 °C 3,9 °C 1,6 km/h (1 Bft)
15.11.2019 13:18 4,0 °C 85 % 1001,6 hPa 0,0 mm 0,0 km/h (0 Bft) NW 310 ° 0 min 0,000 mm 1,0 UV-I 135 W/m² 1,7 °C 4,0 °C 0,0 km/h (0 Bft)
15.11.2019 13:19 4,1 °C 85 % 1001,7 hPa 0,0 mm 0,0 km/h (0 Bft) NW 310 ° 0 min 0,000 mm 1,0 UV-I 128 W/m² 1,8 °C 4,1 °C 0,0 km/h (0 Bft)
15.11.2019 13:20 4,1 °C 85 % 1001,7 hPa 0,0 mm 0,0 km/h (0 Bft) NW 310 ° 0 min 0,000 mm 1,0 UV-I 120 W/m² 1,8 °C 4,1 °C 0,0 km/h (0 Bft)
15.11.2019 13:21 4,2 °C 85 % 1001,7 hPa 0,0 mm 0,0 km/h (0 Bft) NW 310 ° 0 min 0,000 mm 1,0 UV-I 113 W/m² 1,9 °C 4,2 °C 0,0 km/h (0 Bft)
15.11.2019 13:22 4,2 °C 85 % 1001,8 hPa 0,0 mm 0,0 km/h (0 Bft) NW 310 ° 0 min 0,000 mm 0,9 UV-I 102 W/m² 1,9 °C 4,2 °C 0,0 km/h (0 Bft)
15.11.2019 13:23 4,3 °C 85 % 1001,7 hPa 0,0 mm 0,0 km/h (0 Bft) NW 310 ° 0 min 0,000 mm 0,9 UV-I 97 W/m² 2,0 °C 4,3 °C 0,0 km/h (0 Bft)
15.11.2019 13:24 4,2 °C 84 % 1001,7 hPa 0,0 mm 0,0 km/h (0 Bft) NW 310 ° 0 min 0,000 mm 0,9 UV-I 93 W/m² 1,7 °C 4,2 °C 0,0 km/h (0 Bft)
15.11.2019 13:25 4,2 °C 84 % 1001,7 hPa 0,0 mm 0,0 km/h (0 Bft) NW 310 ° 0 min 0,000 mm 0,8 UV-I 90 W/m² 1,7 °C 4,2 °C 0,0 km/h (0 Bft)
15.11.2019 13:26 4,3 °C 84 % 1001,7 hPa 0,0 mm 0,0 km/h (0 Bft) NW 310 ° 0 min 0,000 mm 0,8 UV-I 90 W/m² 1,8 °C 4,3 °C 0,0 km/h (0 Bft)
15.11.2019 13:27 4,3 °C 84 % 1001,7 hPa 0,0 mm 0,0 km/h (0 Bft) NW 310 ° 0 min 0,000 mm 0,8 UV-I 86 W/m² 1,8 °C 4,3 °C 0,0 km/h (0 Bft)
15.11.2019 13:28 4,2 °C 84 % 1001,7 hPa 0,0 mm 0,0 km/h (0 Bft) NW 310 ° 0 min 0,000 mm 0,8 UV-I 86 W/m² 1,7 °C 4,2 °C 0,0 km/h (0 Bft)
15.11.2019 13:29 4,2 °C 84 % 1001,7 hPa 0,0 mm 0,0 km/h (0 Bft) NW 310 ° 0 min 0,000 mm 0,8 UV-I 86 W/m² 1,7 °C 4,2 °C 0,0 km/h (0 Bft)
15.11.2019 13:30 4,2 °C 84 % 1001,7 hPa 0,0 mm 0,0 km/h (0 Bft) NW 310 ° 0 min 0,000 mm 0,8 UV-I 86 W/m² 1,7 °C 4,2 °C 0,0 km/h (0 Bft)
15.11.2019 13:31 4,2 °C 85 % 1001,6 hPa 0,0 mm 0,0 km/h (0 Bft) NW 310 ° 0 min 0,000 mm 0,8 UV-I 88 W/m² 1,9 °C 4,2 °C 0,0 km/h (0 Bft)
15.11.2019 13:32 4,2 °C 85 % 1001,6 hPa 0,2 mm 0,0 km/h (0 Bft) NW 310 ° 0 min 0,000 mm 0,8 UV-I 90 W/m² 1,9 °C 4,2 °C 0,0 km/h (0 Bft)
15.11.2019 13:33 4,1 °C 86 % 1001,5 hPa 0,0 mm 0,0 km/h (0 Bft) NW 310 ° 0 min 0,000 mm 0,8 UV-I 93 W/m² 2,0 °C 4,1 °C 0,0 km/h (0 Bft)
15.11.2019 13:34 4,1 °C 86 % 1001,5 hPa 0,0 mm 0,0 km/h (0 Bft) NW 310 ° 0 min 0,000 mm 0,8 UV-I 95 W/m² 2,0 °C 4,1 °C 0,0 km/h (0 Bft)
15.11.2019 13:35 4,1 °C 86 % 1001,5 hPa 0,0 mm 0,0 km/h (0 Bft) NW 310 ° 0 min 0,000 mm 0,8 UV-I 97 W/m² 2,0 °C 4,1 °C 0,0 km/h (0 Bft)
15.11.2019 13:36 4,1 °C 86 % 1001,5 hPa 0,0 mm 0,0 km/h (0 Bft) NW 310 ° 0 min 0,000 mm 0,8 UV-I 97 W/m² 2,0 °C 4,1 °C 0,0 km/h (0 Bft)
15.11.2019 13:37 4,1 °C 86 % 1001,5 hPa 0,0 mm 0,0 km/h (0 Bft) NW 310 ° 0 min 0,000 mm 0,7 UV-I 100 W/m² 2,0 °C 4,1 °C 0,0 km/h (0 Bft)
15.11.2019 13:38 4,1 °C 86 % 1001,5 hPa 0,0 mm 0,0 km/h (0 Bft) NW 310 ° 0 min 0,000 mm 0,7 UV-I 102 W/m² 2,0 °C 4,1 °C 0,0 km/h (0 Bft)
15.11.2019 13:39 4,1 °C 86 % 1001,5 hPa 0,0 mm 0,0 km/h (0 Bft) NW 310 ° 0 min 0,000 mm 0,7 UV-I 105 W/m² 2,0 °C 4,1 °C 0,0 km/h (0 Bft)
15.11.2019 13:40 3,9 °C 85 % 1001,5 hPa 0,0 mm 0,0 km/h (0 Bft) NW 310 ° 0 min 0,000 mm 0,7 UV-I 120 W/m² 1,6 °C 3,9 °C 0,0 km/h (0 Bft)
15.11.2019 13:41 3,9 °C 85 % 1001,5 hPa 0,0 mm 0,0 km/h (0 Bft) NW 310 ° 0 min 0,000 mm 0,7 UV-I 125 W/m² 1,6 °C 3,9 °C 0,0 km/h (0 Bft)
15.11.2019 13:42 3,9 °C 86 % 1001,5 hPa 0,0 mm 0,0 km/h (0 Bft) NW 310 ° 0 min 0,000 mm 0,8 UV-I 142 W/m² 1,8 °C 3,9 °C 0,0 km/h (0 Bft)
15.11.2019 13:43 4,0 °C 86 % 1001,4 hPa 0,0 mm 0,0 km/h (0 Bft) NW 310 ° 0 min 0,000 mm 0,9 UV-I 142 W/m² 1,9 °C 4,0 °C 0,0 km/h (0 Bft)
15.11.2019 13:44 4,0 °C 86 % 1001,5 hPa 0,0 mm 0,0 km/h (0 Bft) NW 310 ° 0 min 0,000 mm 1,0 UV-I 142 W/m² 1,9 °C 4,0 °C 0,0 km/h (0 Bft)
15.11.2019 13:45 4,1 °C 86 % 1001,4 hPa 0,0 mm 0,0 km/h (0 Bft) NW 310 ° 0 min 0,000 mm 1,0 UV-I 376 W/m² 2,0 °C 4,1 °C 0,0 km/h (0 Bft)
15.11.2019 13:46 4,2 °C 86 % 1001,4 hPa 0,0 mm 0,0 km/h (0 Bft) NW 310 ° 0 min 0,000 mm 1,1 UV-I 394 W/m² 2,1 °C 4,2 °C 0,0 km/h (0 Bft)
15.11.2019 13:47 4,3 °C 86 % 1001,3 hPa 0,0 mm 0,0 km/h (0 Bft) NW 310 ° 0 min 0,000 mm 1,1 UV-I 418 W/m² 2,2 °C 4,3 °C 0,0 km/h (0 Bft)
15.11.2019 13:48 4,3 °C 85 % 1001,2 hPa 0,2 mm 0,0 km/h (0 Bft) NW 310 ° 0 min 0,000 mm 1,2 UV-I 388 W/m² 2,0 °C 4,3 °C 0,0 km/h (0 Bft)
15.11.2019 13:49 4,3 °C 85 % 1001,2 hPa 0,0 mm 0,0 km/h (0 Bft) NW 310 ° 0 min 0,000 mm 1,3 UV-I 420 W/m² 2,0 °C 4,3 °C 0,0 km/h (0 Bft)
15.11.2019 13:50 4,4 °C 85 % 1001,1 hPa 0,0 mm 0,0 km/h (0 Bft) NW 310 ° 0 min 0,000 mm 1,3 UV-I 422 W/m² 2,1 °C 4,4 °C 0,0 km/h (0 Bft)
15.11.2019 13:51 4,5 °C 85 % 1001,1 hPa 0,0 mm 0,0 km/h (0 Bft) NW 310 ° 0 min 0,000 mm 1,4 UV-I 341 W/m² 2,2 °C 4,5 °C 0,0 km/h (0 Bft)
15.11.2019 13:52 4,5 °C 84 % 1001,0 hPa 0,0 mm 0,0 km/h (0 Bft) NW 310 ° 0 min 0,000 mm 1,3 UV-I 329 W/m² 2,0 °C 4,5 °C 0,0 km/h (0 Bft)
15.11.2019 13:53 4,5 °C 84 % 1000,9 hPa 0,0 mm 0,0 km/h (0 Bft) NW 310 ° 0 min 0,000 mm 1,3 UV-I 294 W/m² 2,0 °C 4,5 °C 0,0 km/h (0 Bft)
15.11.2019 13:54 4,5 °C 84 % 1000,9 hPa 0,0 mm 0,0 km/h (0 Bft) NW 310 ° 0 min 0,000 mm 1,3 UV-I 264 W/m² 2,0 °C 4,5 °C 0,0 km/h (0 Bft)
15.11.2019 13:55 4,5 °C 84 % 1001,0 hPa 0,0 mm 0,0 km/h (0 Bft) NW 310 ° 0 min 0,000 mm 1,2 UV-I 251 W/m² 2,0 °C 4,5 °C 0,0 km/h (0 Bft)
15.11.2019 13:56 4,5 °C 84 % 1001,0 hPa 0,0 mm 0,0 km/h (0 Bft) NW 310 ° 0 min 0,000 mm 1,2 UV-I 230 W/m² 2,0 °C 4,5 °C 0,0 km/h (0 Bft)
15.11.2019 13:57 4,6 °C 84 % 1001,0 hPa 0,2 mm 0,0 km/h (0 Bft) NW 310 ° 0 min 0,000 mm 1,1 UV-I 188 W/m² 2,1 °C 4,6 °C 0,0 km/h (0 Bft)
15.11.2019 13:58 4,6 °C 84 % 1001,2 hPa 0,0 mm 0,0 km/h (0 Bft) NW 310 ° 0 min 0,000 mm 1,0 UV-I 130 W/m² 2,1 °C 4,6 °C 0,0 km/h (0 Bft)
15.11.2019 13:59 4,7 °C 84 % 1001,2 hPa 0,0 mm 0,0 km/h (0 Bft) NW 310 ° 0 min 0,000 mm 1,0 UV-I 125 W/m² 2,2 °C 4,7 °C 0,0 km/h (0 Bft)
15.11.2019 14:00 4,7 °C 83 % 1001,1 hPa 0,0 mm 0,0 km/h (0 Bft) NW 310 ° 0 min 0,000 mm 0,9 UV-I 90 W/m² 2,1 °C 4,7 °C 0,0 km/h (0 Bft)
15.11.2019 14:01 4,7 °C 83 % 1000,9 hPa 0,0 mm 0,0 km/h (0 Bft) NW 310 ° 0 min 0,076 mm 0,9 UV-I 88 W/m² 2,1 °C 4,7 °C 0,0 km/h (0 Bft)
15.11.2019 14:02 4,7 °C 83 % 1000,8 hPa 0,0 mm 0,0 km/h (0 Bft) NW 310 ° 0 min 0,000 mm 0,9 UV-I 88 W/m² 2,1 °C 4,7 °C 0,0 km/h (0 Bft)
15.11.2019 14:03 4,7 °C 83 % 1000,7 hPa 0,0 mm 0,0 km/h (0 Bft) NW 310 ° 0 min 0,000 mm 0,9 UV-I 81 W/m² 2,1 °C 4,7 °C 0,0 km/h (0 Bft)
15.11.2019 14:04 4,7 °C 83 % 1000,8 hPa 0,0 mm 0,0 km/h (0 Bft) NW 310 ° 0 min 0,000 mm 0,8 UV-I 83 W/m² 2,1 °C 4,7 °C 0,0 km/h (0 Bft)
15.11.2019 14:05 4,7 °C 83 % 1000,9 hPa 0,0 mm 0,0 km/h (0 Bft) NW 310 ° 0 min 0,000 mm 0,8 UV-I 114 W/m² 2,1 °C 4,7 °C 0,0 km/h (0 Bft)
15.11.2019 14:06 4,7 °C 83 % 1001,1 hPa 0,0 mm 0,0 km/h (0 Bft) NW 310 ° 0 min 0,000 mm 0,8 UV-I 95 W/m² 2,1 °C 4,7 °C 0,0 km/h (0 Bft)
15.11.2019 14:07 4,7 °C 83 % 1001,3 hPa 0,2 mm 0,0 km/h (0 Bft) NW 310 ° 0 min 0,000 mm 0,8 UV-I 93 W/m² 2,1 °C 4,7 °C 0,0 km/h (0 Bft)
15.11.2019 14:08 4,6 °C 83 % 1001,5 hPa 0,0 mm 0,0 km/h (0 Bft) NW 310 ° 0 min 0,000 mm 0,8 UV-I 90 W/m² 2,0 °C 4,6 °C 0,0 km/h (0 Bft)
15.11.2019 14:09 4,6 °C 83 % 1001,4 hPa 0,0 mm 0,0 km/h (0 Bft) NW 310 ° 0 min 0,000 mm 0,8 UV-I 109 W/m² 2,0 °C 4,6 °C 0,0 km/h (0 Bft)
15.11.2019 14:10 4,5 °C 83 % 1001,3 hPa 0,0 mm 0,0 km/h (0 Bft) NW 310 ° 0 min 0,000 mm 0,8 UV-I 109 W/m² 1,9 °C 4,5 °C 0,0 km/h (0 Bft)
15.11.2019 14:11 4,3 °C 84 % 1001,3 hPa 0,0 mm 0,0 km/h (0 Bft) NW 310 ° 0 min 0,000 mm 0,8 UV-I 109 W/m² 1,8 °C 4,3 °C 0,0 km/h (0 Bft)
15.11.2019 14:12 4,2 °C 83 % 1001,3 hPa 0,0 mm 0,0 km/h (0 Bft) NW 310 ° 0 min 0,000 mm 0,8 UV-I 113 W/m² 1,6 °C 4,2 °C 0,0 km/h (0 Bft)
15.11.2019 14:13 4,1 °C 85 % 1001,2 hPa 0,0 mm 0,0 km/h (0 Bft) NW 310 ° 0 min 0,000 mm 0,8 UV-I 116 W/m² 1,8 °C 4,1 °C 0,0 km/h (0 Bft)
15.11.2019 14:14 4,2 °C 85 % 1001,2 hPa 0,0 mm 0,0 km/h (0 Bft) NW 310 ° 0 min 0,000 mm 0,8 UV-I 116 W/m² 1,9 °C 4,2 °C 0,0 km/h (0 Bft)
15.11.2019 14:15 4,2 °C 86 % 1001,2 hPa 0,0 mm 0,0 km/h (0 Bft) NW 310 ° 0 min 0,000 mm 0,8 UV-I 114 W/m² 2,1 °C 4,2 °C 0,0 km/h (0 Bft)
15.11.2019 14:16 4,2 °C 86 % 1001,3 hPa 0,0 mm 0,0 km/h (0 Bft) NW 310 ° 0 min 0,000 mm 0,8 UV-I 113 W/m² 2,1 °C 4,2 °C 0,0 km/h (0 Bft)
15.11.2019 14:17 4,2 °C 86 % 1001,4 hPa 0,0 mm 0,0 km/h (0 Bft) NW 310 ° 0 min 0,000 mm 0,8 UV-I 109 W/m² 2,1 °C 4,2 °C 0,0 km/h (0 Bft)
15.11.2019 14:18 4,3 °C 86 % 1001,5 hPa 0,2 mm 0,0 km/h (0 Bft) NW 310 ° 0 min 0,000 mm 0,8 UV-I 109 W/m² 2,2 °C 4,3 °C 0,0 km/h (0 Bft)
15.11.2019 14:19 4,4 °C 85 % 1001,6 hPa 0,0 mm 0,0 km/h (0 Bft) NW 310 ° 0 min 0,000 mm 0,7 UV-I 105 W/m² 2,1 °C 4,4 °C 0,0 km/h (0 Bft)
15.11.2019 14:20 4,4 °C 85 % 1001,7 hPa 0,0 mm 0,0 km/h (0 Bft) NW 310 ° 0 min 0,000 mm 0,7 UV-I 100 W/m² 2,1 °C 4,4 °C 0,0 km/h (0 Bft)
15.11.2019 14:21 4,3 °C 85 % 1001,7 hPa 0,0 mm 0,0 km/h (0 Bft) NW 310 ° 0 min 0,000 mm 0,7 UV-I 98 W/m² 2,0 °C 4,3 °C 0,0 km/h (0 Bft)
15.11.2019 14:22 4,3 °C 85 % 1001,7 hPa 0,0 mm 0,0 km/h (0 Bft) NW 310 ° 0 min 0,000 mm 0,7 UV-I 95 W/m² 2,0 °C 4,3 °C 0,0 km/h (0 Bft)
15.11.2019 14:23 4,3 °C 85 % 1001,7 hPa 0,0 mm 0,0 km/h (0 Bft) NW 310 ° 0 min 0,000 mm 0,7 UV-I 93 W/m² 2,0 °C 4,3 °C 0,0 km/h (0 Bft)
15.11.2019 14:24 4,2 °C 86 % 1001,7 hPa 0,0 mm 0,0 km/h (0 Bft) NW 310 ° 0 min 0,000 mm 0,6 UV-I 91 W/m² 2,1 °C 4,2 °C 0,0 km/h (0 Bft)
15.11.2019 14:25 4,2 °C 86 % 1001,8 hPa 0,0 mm 0,0 km/h (0 Bft) NW 310 ° 0 min 0,000 mm 0,6 UV-I 91 W/m² 2,1 °C 4,2 °C 0,0 km/h (0 Bft)
15.11.2019 14:26 4,2 °C 86 % 1001,8 hPa 0,0 mm 0,0 km/h (0 Bft) NW 310 ° 0 min 0,000 mm 0,6 UV-I 91 W/m² 2,1 °C 4,2 °C 0,0 km/h (0 Bft)
15.11.2019 14:27 4,2 °C 86 % 1001,7 hPa 0,0 mm 0,0 km/h (0 Bft) NW 310 ° 0 min 0,000 mm 0,6 UV-I 93 W/m² 2,1 °C 4,2 °C 0,0 km/h (0 Bft)
15.11.2019 14:28 4,2 °C 86 % 1001,7 hPa 0,0 mm 0,0 km/h (0 Bft) NW 310 ° 0 min 0,000 mm 0,6 UV-I 95 W/m² 2,1 °C 4,2 °C 0,0 km/h (0 Bft)
15.11.2019 14:29 4,3 °C 85 % 1001,7 hPa 0,0 mm 0,0 km/h (0 Bft) NW 310 ° 0 min 0,000 mm 0,6 UV-I 97 W/m² 2,0 °C 4,3 °C 0,0 km/h (0 Bft)
15.11.2019 14:30 4,3 °C 85 % 1001,7 hPa 0,0 mm 0,0 km/h (0 Bft) NW 310 ° 0 min 0,000 mm 0,6 UV-I 100 W/m² 2,0 °C 4,3 °C 0,0 km/h (0 Bft)
15.11.2019 14:31 4,4 °C 86 % 1001,6 hPa 0,0 mm 0,0 km/h (0 Bft) NW 310 ° 0 min 0,000 mm 0,6 UV-I 102 W/m² 2,3 °C 4,4 °C 0,0 km/h (0 Bft)
15.11.2019 14:32 4,4 °C 85 % 1001,6 hPa 0,0 mm 0,0 km/h (0 Bft) NW 310 ° 0 min 0,000 mm 0,6 UV-I 98 W/m² 2,1 °C 4,4 °C 0,0 km/h (0 Bft)
15.11.2019 14:33 4,5 °C 85 % 1001,6 hPa 0,0 mm 0,0 km/h (0 Bft) NW 310 ° 0 min 0,000 mm 0,6 UV-I 95 W/m² 2,2 °C 4,5 °C 0,0 km/h (0 Bft)
15.11.2019 14:34 4,5 °C 85 % 1001,5 hPa 0,0 mm 0,0 km/h (0 Bft) NW 310 ° 0 min 0,000 mm 0,6 UV-I 95 W/m² 2,2 °C 4,5 °C 0,0 km/h (0 Bft)
15.11.2019 14:35 4,6 °C 84 % 1001,5 hPa 0,0 mm 0,0 km/h (0 Bft) NW 310 ° 0 min 0,000 mm 0,6 UV-I 95 W/m² 2,1 °C 4,6 °C 0,0 km/h (0 Bft)
15.11.2019 14:36 4,6 °C 84 % 1001,5 hPa 0,2 mm 0,0 km/h (0 Bft) NW 310 ° 0 min 0,000 mm 0,6 UV-I 95 W/m² 2,1 °C 4,6 °C 0,0 km/h (0 Bft)
15.11.2019 14:37 4,7 °C 84 % 1001,5 hPa 0,0 mm 0,0 km/h (0 Bft) NW 310 ° 0 min 0,000 mm 0,6 UV-I 95 W/m² 2,2 °C 4,7 °C 0,0 km/h (0 Bft)
15.11.2019 14:38 4,7 °C 84 % 1001,4 hPa 0,0 mm 0,0 km/h (0 Bft) NW 310 ° 0 min 0,000 mm 0,6 UV-I 93 W/m² 2,2 °C 4,7 °C 0,0 km/h (0 Bft)
15.11.2019 14:39 4,7 °C 84 % 1001,4 hPa 0,0 mm 0,0 km/h (0 Bft) NW 310 ° 0 min 0,000 mm 0,6 UV-I 91 W/m² 2,2 °C 4,7 °C 0,0 km/h (0 Bft)
15.11.2019 14:40 4,6 °C 84 % 1001,4 hPa 0,0 mm 0,0 km/h (0 Bft) NW 310 ° 0 min 0,000 mm 0,6 UV-I 88 W/m² 2,1 °C 4,6 °C 0,0 km/h (0 Bft)
15.11.2019 14:41 4,6 °C 84 % 1001,3 hPa 0,0 mm 0,0 km/h (0 Bft) NW 310 ° 0 min 0,000 mm 0,5 UV-I 86 W/m² 2,1 °C 4,6 °C 0,0 km/h (0 Bft)
15.11.2019 14:42 4,6 °C 84 % 1001,3 hPa 0,0 mm 0,0 km/h (0 Bft) NW 310 ° 0 min 0,000 mm 0,5 UV-I 83 W/m² 2,1 °C 4,6 °C 0,0 km/h (0 Bft)
15.11.2019 14:43 4,6 °C 84 % 1001,4 hPa 0,0 mm 0,0 km/h (0 Bft) NW 310 ° 0 min 0,000 mm 0,5 UV-I 77 W/m² 2,1 °C 4,6 °C 0,0 km/h (0 Bft)
15.11.2019 14:44 4,6 °C 84 % 1001,5 hPa 0,0 mm 0,0 km/h (0 Bft) NW 310 ° 0 min 0,000 mm 0,5 UV-I 74 W/m² 2,1 °C 4,6 °C 0,0 km/h (0 Bft)
15.11.2019 14:45 4,6 °C 84 % 1001,6 hPa 0,0 mm 0,0 km/h (0 Bft) NW 310 ° 0 min 0,000 mm 0,0 UV-I 70 W/m² 2,1 °C 4,6 °C 0,0 km/h (0 Bft)
15.11.2019 14:46 4,7 °C 85 % 1001,8 hPa 0,0 mm 0,0 km/h (0 Bft) NW 310 ° 0 min 0,000 mm 0,0 UV-I 67 W/m² 2,4 °C 4,7 °C 0,0 km/h (0 Bft)
15.11.2019 14:47 4,7 °C 85 % 1001,9 hPa 0,0 mm 0,0 km/h (0 Bft) NW 310 ° 0 min 0,000 mm 0,0 UV-I 67 W/m² 2,4 °C 4,7 °C 0,0 km/h (0 Bft)
15.11.2019 14:48 4,6 °C 85 % 1001,9 hPa 0,0 mm 0,0 km/h (0 Bft) NW 310 ° 0 min 0,000 mm 0,0 UV-I 67 W/m² 2,3 °C 4,6 °C 0,0 km/h (0 Bft)
15.11.2019 14:49 4,6 °C 85 % 1001,8 hPa 0,2 mm 0,0 km/h (0 Bft) NW 310 ° 0 min 0,000 mm 0,0 UV-I 67 W/m² 2,3 °C 4,6 °C 0,0 km/h (0 Bft)
15.11.2019 14:50 4,4 °C 84 % 1001,8 hPa 0,0 mm 0,0 km/h (0 Bft) NW 310 ° 0 min 0,000 mm 0,0 UV-I 65 W/m² 1,9 °C 4,4 °C 0,0 km/h (0 Bft)
15.11.2019 14:51 4,2 °C 84 % 1001,8 hPa 0,0 mm 0,0 km/h (0 Bft) NW 310 ° 0 min 0,000 mm 0,0 UV-I 63 W/m² 1,7 °C 4,2 °C 0,0 km/h (0 Bft)
15.11.2019 14:52 4,1 °C 84 % 1001,7 hPa 0,0 mm 0,0 km/h (0 Bft) NW 310 ° 0 min 0,000 mm 0,0 UV-I 60 W/m² 1,6 °C 4,1 °C 0,0 km/h (0 Bft)
15.11.2019 14:53 4,2 °C 86 % 1001,6 hPa 0,0 mm 0,0 km/h (0 Bft) NW 310 ° 0 min 0,000 mm 0,0 UV-I 58 W/m² 2,1 °C 4,2 °C 0,0 km/h (0 Bft)
15.11.2019 14:54 4,2 °C 86 % 1001,6 hPa 0,0 mm 0,0 km/h (0 Bft) NW 310 ° 0 min 0,000 mm 0,0 UV-I 56 W/m² 2,1 °C 4,2 °C 0,0 km/h (0 Bft)
15.11.2019 14:55 4,3 °C 86 % 1001,7 hPa 0,0 mm 0,0 km/h (0 Bft) NW 310 ° 0 min 0,000 mm 0,0 UV-I 56 W/m² 2,2 °C 4,3 °C 0,0 km/h (0 Bft)
15.11.2019 14:56 4,3 °C 86 % 1001,6 hPa 0,0 mm 0,0 km/h (0 Bft) NW 310 ° 0 min 0,000 mm 0,0 UV-I 54 W/m² 2,2 °C 4,3 °C 0,0 km/h (0 Bft)
15.11.2019 14:57 4,3 °C 86 % 1001,6 hPa 0,0 mm 0,0 km/h (0 Bft) NW 310 ° 0 min 0,000 mm 0,0 UV-I 54 W/m² 2,2 °C 4,3 °C 0,0 km/h (0 Bft)
15.11.2019 14:58 4,3 °C 85 % 1001,6 hPa 0,0 mm 0,0 km/h (0 Bft) NW 310 ° 0 min 0,000 mm 0,0 UV-I 54 W/m² 2,0 °C 4,3 °C 0,0 km/h (0 Bft)
15.11.2019 14:59 4,4 °C 85 % 1001,7 hPa 0,0 mm 0,0 km/h (0 Bft) NW 310 ° 0 min 0,000 mm 0,0 UV-I 53 W/m² 2,1 °C 4,4 °C 0,0 km/h (0 Bft)
15.11.2019 15:00 4,4 °C 85 % 1001,8 hPa 0,0 mm 0,0 km/h (0 Bft) NW 310 ° 0 min 0,000 mm 0,0 UV-I 51 W/m² 2,1 °C 4,4 °C 0,0 km/h (0 Bft)
15.11.2019 15:01 4,4 °C 86 % 1001,8 hPa 0,0 mm 0,0 km/h (0 Bft) NW 310 ° 0 min 0,026 mm 0,0 UV-I 47 W/m² 2,3 °C 4,4 °C 0,0 km/h (0 Bft)
15.11.2019 15:02 4,5 °C 86 % 1001,8 hPa 0,0 mm 0,0 km/h (0 Bft) NW 310 ° 0 min 0,000 mm 0,0 UV-I 47 W/m² 2,4 °C 4,5 °C 0,0 km/h (0 Bft)
15.11.2019 15:03 4,6 °C 86 % 1001,9 hPa 0,0 mm 0,0 km/h (0 Bft) NW 310 ° 0 min 0,000 mm 0,0 UV-I 47 W/m² 2,5 °C 4,6 °C 0,0 km/h (0 Bft)
15.11.2019 15:04 4,6 °C 86 % 1001,9 hPa 0,0 mm 0,0 km/h (0 Bft) NW 310 ° 0 min 0,000 mm 0,0 UV-I 46 W/m² 2,5 °C 4,6 °C 0,0 km/h (0 Bft)
15.11.2019 15:05 4,6 °C 86 % 1001,9 hPa 0,0 mm 0,0 km/h (0 Bft) NW 310 ° 0 min 0,000 mm 0,0 UV-I 46 W/m² 2,5 °C 4,6 °C 0,0 km/h (0 Bft)
15.11.2019 15:06 4,5 °C 86 % 1002,0 hPa 0,0 mm 0,0 km/h (0 Bft) NW 310 ° 0 min 0,000 mm 0,0 UV-I 46 W/m² 2,4 °C 4,5 °C 0,0 km/h (0 Bft)
15.11.2019 15:07 4,4 °C 85 % 1001,9 hPa 0,2 mm 0,0 km/h (0 Bft) NW 310 ° 0 min 0,000 mm 0,0 UV-I 44 W/m² 2,1 °C 4,4 °C 0,0 km/h (0 Bft)
15.11.2019 15:08 4,3 °C 85 % 1001,9 hPa 0,0 mm 0,0 km/h (0 Bft) NW 310 ° 0 min 0,000 mm 0,0 UV-I 44 W/m² 2,0 °C 4,3 °C 0,0 km/h (0 Bft)
15.11.2019 15:09 4,2 °C 85 % 1001,9 hPa 0,0 mm 0,0 km/h (0 Bft) NW 310 ° 0 min 0,000 mm 0,0 UV-I 44 W/m² 1,9 °C 4,2 °C 0,0 km/h (0 Bft)
15.11.2019 15:10 4,2 °C 86 % 1001,8 hPa 0,0 mm 0,0 km/h (0 Bft) NW 310 ° 0 min 0,000 mm 0,0 UV-I 42 W/m² 2,1 °C 4,2 °C 0,0 km/h (0 Bft)
15.11.2019 15:11 4,2 °C 87 % 1001,8 hPa 0,0 mm 0,0 km/h (0 Bft) NW 310 ° 0 min 0,000 mm 0,0 UV-I 40 W/m² 2,2 °C 4,2 °C 0,0 km/h (0 Bft)
15.11.2019 15:12 4,1 °C 87 % 1001,9 hPa 0,0 mm 0,0 km/h (0 Bft) NW 310 ° 0 min 0,000 mm 0,0 UV-I 40 W/m² 2,1 °C 4,1 °C 0,0 km/h (0 Bft)
15.11.2019 15:13 4,1 °C 87 % 1002,0 hPa 0,0 mm 0,0 km/h (0 Bft) NW 310 ° 0 min 0,000 mm 0,0 UV-I 40 W/m² 2,1 °C 4,1 °C 0,0 km/h (0 Bft)
15.11.2019 15:14 4,1 °C 87 % 1002,0 hPa 0,0 mm 0,0 km/h (0 Bft) NW 310 ° 0 min 0,000 mm 0,0 UV-I 42 W/m² 2,1 °C 4,1 °C 0,0 km/h (0 Bft)
15.11.2019 15:15 4,1 °C 87 % 1001,9 hPa 0,0 mm 0,0 km/h (0 Bft) NW 310 ° 0 min 0,000 mm 0,0 UV-I 44 W/m² 2,1 °C 4,1 °C 0,0 km/h (0 Bft)
15.11.2019 15:16 4,1 °C 87 % 1001,9 hPa 0,0 mm 0,0 km/h (0 Bft) NW 310 ° 0 min 0,000 mm 0,0 UV-I 46 W/m² 2,1 °C 4,1 °C 0,0 km/h (0 Bft)
15.11.2019 15:17 4,1 °C 87 % 1001,8 hPa 0,0 mm 0,0 km/h (0 Bft) NW 310 ° 0 min 0,000 mm 0,0 UV-I 47 W/m² 2,1 °C 4,1 °C 0,0 km/h (0 Bft)
15.11.2019 15:18 4,0 °C 87 % 1001,9 hPa 0,0 mm 0,0 km/h (0 Bft) NW 310 ° 0 min 0,000 mm 0,0 UV-I 47 W/m² 2,0 °C 4,0 °C 0,0 km/h (0 Bft)
15.11.2019 15:19 4,0 °C 88 % 1001,9 hPa 0,0 mm 0,0 km/h (0 Bft) NW 310 ° 0 min 0,000 mm 0,0 UV-I 46 W/m² 2,2 °C 4,0 °C 0,0 km/h (0 Bft)
15.11.2019 15:20 4,0 °C 88 % 1001,9 hPa 0,0 mm 0,0 km/h (0 Bft) NW 310 ° 0 min 0,000 mm 0,0 UV-I 44 W/m² 2,2 °C 4,0 °C 0,0 km/h (0 Bft)
15.11.2019 15:21 4,1 °C 89 % 1002,0 hPa 0,2 mm 0,0 km/h (0 Bft) NW 310 ° 0 min 0,000 mm 0,0 UV-I 40 W/m² 2,5 °C 4,1 °C 0,0 km/h (0 Bft)
15.11.2019 15:22 4,2 °C 89 % 1002,0 hPa 0,0 mm 0,0 km/h (0 Bft) NW 310 ° 0 min 0,000 mm 0,0 UV-I 39 W/m² 2,6 °C 4,2 °C 0,0 km/h (0 Bft)
15.11.2019 15:23 4,2 °C 89 % 1002,1 hPa 0,0 mm 0,0 km/h (0 Bft) NW 310 ° 0 min 0,000 mm 0,0 UV-I 39 W/m² 2,6 °C 4,2 °C 0,0 km/h (0 Bft)
15.11.2019 15:24 4,2 °C 89 % 1002,1 hPa 0,0 mm 0,0 km/h (0 Bft) NW 310 ° 0 min 0,000 mm 0,0 UV-I 39 W/m² 2,6 °C 4,2 °C 0,0 km/h (0 Bft)
15.11.2019 15:25 4,2 °C 89 % 1002,0 hPa 0,0 mm 0,0 km/h (0 Bft) NW 310 ° 0 min 0,000 mm 0,0 UV-I 39 W/m² 2,6 °C 4,2 °C 0,0 km/h (0 Bft)
15.11.2019 15:26 4,3 °C 88 % 1002,0 hPa 0,0 mm 0,0 km/h (0 Bft) NW 310 ° 0 min 0,000 mm 0,0 UV-I 37 W/m² 2,5 °C 4,3 °C 0,0 km/h (0 Bft)
15.11.2019 15:27 4,3 °C 88 % 1002,0 hPa 0,0 mm 0,0 km/h (0 Bft) NW 310 ° 0 min 0,000 mm 0,0 UV-I 33 W/m² 2,5 °C 4,3 °C 0,0 km/h (0 Bft)
15.11.2019 15:28 4,3 °C 88 % 1002,0 hPa 0,0 mm 0,0 km/h (0 Bft) NW 310 ° 0 min 0,000 mm 0,0 UV-I 32 W/m² 2,5 °C 4,3 °C 0,0 km/h (0 Bft)
15.11.2019 15:29 4,3 °C 88 % 1002,1 hPa 0,0 mm 0,0 km/h (0 Bft) NW 310 ° 0 min 0,000 mm 0,0 UV-I 30 W/m² 2,5 °C 4,3 °C 0,0 km/h (0 Bft)
15.11.2019 15:30 4,3 °C 88 % 1002,1 hPa 0,0 mm 0,0 km/h (0 Bft) NW 310 ° 0 min 0,000 mm 0,0 UV-I 33 W/m² 2,5 °C 4,3 °C 0,0 km/h (0 Bft)
15.11.2019 15:31 4,3 °C 88 % 1002,0 hPa 0,0 mm 0,0 km/h (0 Bft) NW 310 ° 0 min 0,000 mm 0,0 UV-I 35 W/m² 2,5 °C 4,3 °C 0,0 km/h (0 Bft)
15.11.2019 15:32 4,2 °C 87 % 1002,0 hPa 0,0 mm 0,0 km/h (0 Bft) NW 310 ° 0 min 0,000 mm 0,0 UV-I 37 W/m² 2,2 °C 4,2 °C 0,0 km/h (0 Bft)
15.11.2019 15:33 4,2 °C 87 % 1001,9 hPa 0,0 mm 0,0 km/h (0 Bft) NW 310 ° 0 min 0,000 mm 0,0 UV-I 39 W/m² 2,2 °C 4,2 °C 0,0 km/h (0 Bft)
15.11.2019 15:34 4,2 °C 88 % 1002,0 hPa 0,0 mm 0,0 km/h (0 Bft) NW 310 ° 0 min 0,000 mm 0,0 UV-I 39 W/m² 2,4 °C 4,2 °C 0,0 km/h (0 Bft)
15.11.2019 15:35 4,2 °C 88 % 1002,0 hPa 0,0 mm 0,0 km/h (0 Bft) NW 310 ° 0 min 0,000 mm 0,0 UV-I 40 W/m² 2,4 °C 4,2 °C 0,0 km/h (0 Bft)
15.11.2019 15:36 4,2 °C 87 % 1002,0 hPa 0,0 mm 0,0 km/h (0 Bft) NW 310 ° 0 min 0,000 mm 0,0 UV-I 40 W/m² 2,2 °C 4,2 °C 0,0 km/h (0 Bft)
15.11.2019 15:37 4,1 °C 88 % 1002,0 hPa 0,0 mm 0,0 km/h (0 Bft) NW 310 ° 0 min 0,000 mm 0,0 UV-I 40 W/m² 2,3 °C 4,1 °C 0,0 km/h (0 Bft)
15.11.2019 15:38 4,1 °C 88 % 1002,0 hPa 0,0 mm 0,0 km/h (0 Bft) NW 310 ° 0 min 0,000 mm 0,0 UV-I 40 W/m² 2,3 °C 4,1 °C 0,0 km/h (0 Bft)
15.11.2019 15:39 4,1 °C 88 % 1002,0 hPa 0,2 mm 0,0 km/h (0 Bft) NW 310 ° 0 min 0,000 mm 0,0 UV-I 40 W/m² 2,3 °C 4,1 °C 0,0 km/h (0 Bft)
15.11.2019 15:40 4,1 °C 88 % 1002,0 hPa 0,0 mm 0,0 km/h (0 Bft) NW 310 ° 0 min 0,000 mm 0,0 UV-I 39 W/m² 2,3 °C 4,1 °C 0,0 km/h (0 Bft)
15.11.2019 15:41 4,2 °C 88 % 1002,0 hPa 0,0 mm 0,0 km/h (0 Bft) NW 310 ° 0 min 0,000 mm 0,0 UV-I 37 W/m² 2,4 °C 4,2 °C 0,0 km/h (0 Bft)
15.11.2019 15:42 4,2 °C 88 % 1001,9 hPa 0,0 mm 0,0 km/h (0 Bft) NW 310 ° 0 min 0,000 mm 0,0 UV-I 28 W/m² 2,4 °C 4,2 °C 0,0 km/h (0 Bft)
15.11.2019 15:43 4,2 °C 88 % 1002,0 hPa 0,0 mm 0,0 km/h (0 Bft) NW 310 ° 0 min 0,000 mm 0,0 UV-I 25 W/m² 2,4 °C 4,2 °C 0,0 km/h (0 Bft)
15.11.2019 15:44 4,2 °C 88 % 1002,0 hPa 0,0 mm 0,0 km/h (0 Bft) NW 310 ° 0 min 0,000 mm 0,0 UV-I 21 W/m² 2,4 °C 4,2 °C 0,0 km/h (0 Bft)
15.11.2019 15:45 4,2 °C 88 % 1002,0 hPa 0,0 mm 0,0 km/h (0 Bft) NW 310 ° 0 min 0,000 mm 0,0 UV-I 21 W/m² 2,4 °C 4,2 °C 0,0 km/h (0 Bft)
15.11.2019 15:46 4,2 °C 88 % 1002,0 hPa 0,0 mm 0,0 km/h (0 Bft) NW 310 ° 0 min 0,000 mm 0,0 UV-I 19 W/m² 2,4 °C 4,2 °C 0,0 km/h (0 Bft)
15.11.2019 15:47 4,2 °C 88 % 1002,0 hPa 0,0 mm 0,0 km/h (0 Bft) NW 310 ° 0 min 0,000 mm 0,0 UV-I 19 W/m² 2,4 °C 4,2 °C 0,0 km/h (0 Bft)
15.11.2019 15:48 4,2 °C 88 % 1002,0 hPa 0,0 mm 0,0 km/h (0 Bft) NW 310 ° 0 min 0,000 mm 0,0 UV-I 18 W/m² 2,4 °C 4,2 °C 0,0 km/h (0 Bft)
15.11.2019 15:49 4,2 °C 88 % 1002,0 hPa 0,0 mm 0,0 km/h (0 Bft) NW 310 ° 0 min 0,000 mm 0,0 UV-I 18 W/m² 2,4 °C 4,2 °C 0,0 km/h (0 Bft)
15.11.2019 15:50 4,2 °C 88 % 1002,0 hPa 0,0 mm 0,0 km/h (0 Bft) NW 310 ° 0 min 0,000 mm 0,0 UV-I 19 W/m² 2,4 °C 4,2 °C 0,0 km/h (0 Bft)
15.11.2019 15:51 4,2 °C 88 % 1001,9 hPa 0,0 mm 0,0 km/h (0 Bft) NW 310 ° 0 min 0,000 mm 0,0 UV-I 21 W/m² 2,4 °C 4,2 °C 0,0 km/h (0 Bft)
15.11.2019 15:52 4,2 °C 88 % 1001,8 hPa 0,0 mm 0,0 km/h (0 Bft) NW 310 ° 0 min 0,000 mm 0,0 UV-I 21 W/m² 2,4 °C 4,2 °C 0,0 km/h (0 Bft)
15.11.2019 15:53 4,2 °C 88 % 1001,7 hPa 0,0 mm 0,0 km/h (0 Bft) NW 310 ° 0 min 0,000 mm 0,0 UV-I 21 W/m² 2,4 °C 4,2 °C 0,0 km/h (0 Bft)
15.11.2019 15:54 4,2 °C 88 % 1001,7 hPa 0,0 mm 0,0 km/h (0 Bft) NW 310 ° 0 min 0,000 mm 0,0 UV-I 18 W/m² 2,4 °C 4,2 °C 0,0 km/h (0 Bft)
15.11.2019 15:55 4,2 °C 88 % 1001,8 hPa 0,0 mm 0,0 km/h (0 Bft) NW 310 ° 0 min 0,000 mm 0,0 UV-I 16 W/m² 2,4 °C 4,2 °C 0,0 km/h (0 Bft)
15.11.2019 15:56 4,2 °C 88 % 1002,0 hPa 0,2 mm 0,0 km/h (0 Bft) NW 310 ° 0 min 0,000 mm 0,0 UV-I 16 W/m² 2,4 °C 4,2 °C 0,0 km/h (0 Bft)
15.11.2019 15:57 4,2 °C 88 % 1002,0 hPa 0,0 mm 0,0 km/h (0 Bft) NW 310 ° 0 min 0,000 mm 0,0 UV-I 16 W/m² 2,4 °C 4,2 °C 0,0 km/h (0 Bft)
15.11.2019 15:58 4,2 °C 88 % 1002,1 hPa 0,0 mm 0,0 km/h (0 Bft) NW 310 ° 0 min 0,000 mm 0,0 UV-I 14 W/m² 2,4 °C 4,2 °C 0,0 km/h (0 Bft)
15.11.2019 15:59 4,2 °C 88 % 1002,2 hPa 0,0 mm 0,0 km/h (0 Bft) NW 310 ° 0 min 0,000 mm 0,0 UV-I 12 W/m² 2,4 °C 4,2 °C 0,0 km/h (0 Bft)
15.11.2019 16:00 4,2 °C 88 % 1002,3 hPa 0,0 mm 0,0 km/h (0 Bft) NW 310 ° 0 min 0,000 mm 0,0 UV-I 11 W/m² 2,4 °C 4,2 °C 0,0 km/h (0 Bft)
15.11.2019 16:01 4,2 °C 88 % 1002,3 hPa 0,0 mm 0,0 km/h (0 Bft) NW 310 ° 0 min 0,025 mm 0,0 UV-I 11 W/m² 2,4 °C 4,2 °C 0,0 km/h (0 Bft)
15.11.2019 16:02 4,2 °C 88 % 1002,2 hPa 0,0 mm 0,0 km/h (0 Bft) NW 310 ° 0 min 0,000 mm 0,0 UV-I 12 W/m² 2,4 °C 4,2 °C 0,0 km/h (0 Bft)
15.11.2019 16:03 4,2 °C 88 % 1002,2 hPa 0,0 mm 0,0 km/h (0 Bft) NW 310 ° 0 min 0,000 mm 0,0 UV-I 14 W/m² 2,4 °C 4,2 °C 0,0 km/h (0 Bft)
15.11.2019 16:04 4,2 °C 88 % 1002,0 hPa 0,0 mm 0,0 km/h (0 Bft) NW 310 ° 0 min 0,000 mm 0,0 UV-I 16 W/m² 2,4 °C 4,2 °C 0,0 km/h (0 Bft)
15.11.2019 16:05 4,2 °C 88 % 1001,8 hPa 0,0 mm 0,0 km/h (0 Bft) NW 310 ° 0 min 0,000 mm 0,0 UV-I 12 W/m² 2,4 °C 4,2 °C 0,0 km/h (0 Bft)
15.11.2019 16:06 4,2 °C 88 % 1001,8 hPa 0,0 mm 0,0 km/h (0 Bft) NW 310 ° 0 min 0,000 mm 0,0 UV-I 12 W/m² 2,4 °C 4,2 °C 0,0 km/h (0 Bft)
15.11.2019 16:07 4,2 °C 88 % 1001,9 hPa 0,0 mm 0,0 km/h (0 Bft) NW 310 ° 0 min 0,000 mm 0,0 UV-I 11 W/m² 2,4 °C 4,2 °C 0,0 km/h (0 Bft)
15.11.2019 16:08 4,2 °C 88 % 1002,0 hPa 0,0 mm 0,0 km/h (0 Bft) NW 310 ° 0 min 0,000 mm 0,0 UV-I 9 W/m² 2,4 °C 4,2 °C 0,0 km/h (0 Bft)
15.11.2019 16:09 4,1 °C 88 % 1002,1 hPa 0,0 mm 0,0 km/h (0 Bft) NW 310 ° 0 min 0,000 mm 0,0 UV-I 9 W/m² 2,3 °C 4,1 °C 0,0 km/h (0 Bft)
15.11.2019 16:10 4,2 °C 88 % 1002,1 hPa 0,0 mm 0,0 km/h (0 Bft) NW 310 ° 0 min 0,000 mm 0,0 UV-I 9 W/m² 2,4 °C 4,2 °C 0,0 km/h (0 Bft)
15.11.2019 16:11 4,1 °C 88 % 1002,1 hPa 0,0 mm 0,0 km/h (0 Bft) NW 310 ° 0 min 0,000 mm 0,0 UV-I 9 W/m² 2,3 °C 4,1 °C 0,0 km/h (0 Bft)
15.11.2019 16:12 4,1 °C 88 % 1002,1 hPa 0,0 mm 0,0 km/h (0 Bft) NW 310 ° 0 min 0,000 mm 0,0 UV-I 9 W/m² 2,3 °C 4,1 °C 0,0 km/h (0 Bft)
15.11.2019 16:13 4,1 °C 88 % 1002,1 hPa 0,0 mm 0,0 km/h (0 Bft) NW 310 ° 0 min 0,000 mm 0,0 UV-I 7 W/m² 2,3 °C 4,1 °C 0,0 km/h (0 Bft)
15.11.2019 16:14 4,1 °C 88 % 1002,1 hPa 0,0 mm 0,0 km/h (0 Bft) NW 310 ° 0 min 0,000 mm 0,0 UV-I 7 W/m² 2,3 °C 4,1 °C 0,0 km/h (0 Bft)
15.11.2019 16:15 4,1 °C 88 % 1002,2 hPa 0,2 mm 0,0 km/h (0 Bft) NW 310 ° 0 min 0,000 mm 0,0 UV-I 7 W/m² 2,3 °C 4,1 °C 0,0 km/h (0 Bft)
15.11.2019 16:16 4,1 °C 88 % 1002,3 hPa 0,0 mm 0,0 km/h (0 Bft) NW 310 ° 0 min 0,000 mm 0,0 UV-I 5 W/m² 2,3 °C 4,1 °C 0,0 km/h (0 Bft)
15.11.2019 16:17 4,1 °C 88 % 1002,4 hPa 0,0 mm 0,0 km/h (0 Bft) NW 310 ° 0 min 0,000 mm 0,0 UV-I 7 W/m² 2,3 °C 4,1 °C 0,0 km/h (0 Bft)
15.11.2019 16:18 4,1 °C 88 % 1002,4 hPa 0,0 mm 0,0 km/h (0 Bft) NW 310 ° 0 min 0,000 mm 0,0 UV-I 7 W/m² 2,3 °C 4,1 °C 0,0 km/h (0 Bft)
15.11.2019 16:19 4,1 °C 88 % 1002,3 hPa 0,0 mm 0,0 km/h (0 Bft) NW 310 ° 0 min 0,000 mm 0,0 UV-I 7 W/m² 2,3 °C 4,1 °C 0,0 km/h (0 Bft)
15.11.2019 16:20 4,1 °C 88 % 1002,2 hPa 0,0 mm 0,0 km/h (0 Bft) NW 310 ° 0 min 0,000 mm 0,0 UV-I 5 W/m² 2,3 °C 4,1 °C 0,0 km/h (0 Bft)
15.11.2019 16:21 4,0 °C 88 % 1002,2 hPa 0,0 mm 0,0 km/h (0 Bft) NW 310 ° 0 min 0,000 mm 0,0 UV-I 5 W/m² 2,2 °C 4,0 °C 0,0 km/h (0 Bft)
15.11.2019 16:22 4,0 °C 88 % 1002,2 hPa 0,0 mm 0,0 km/h (0 Bft) NW 310 ° 0 min 0,000 mm 0,0 UV-I 5 W/m² 2,2 °C 4,0 °C 0,0 km/h (0 Bft)
15.11.2019 16:23 4,0 °C 88 % 1002,2 hPa 0,0 mm 0,0 km/h (0 Bft) NW 310 ° 0 min 0,000 mm 0,0 UV-I 0 W/m² 2,2 °C 4,0 °C 0,0 km/h (0 Bft)
15.11.2019 16:24 3,9 °C 88 % 1002,2 hPa 0,0 mm 0,0 km/h (0 Bft) NW 310 ° 0 min 0,000 mm 0,0 UV-I 0 W/m² 2,1 °C 3,9 °C 0,0 km/h (0 Bft)
15.11.2019 16:25 3,9 °C 88 % 1002,2 hPa 0,0 mm 0,0 km/h (0 Bft) NW 310 ° 0 min 0,000 mm 0,0 UV-I 0 W/m² 2,1 °C 3,9 °C 0,0 km/h (0 Bft)
15.11.2019 16:26 3,9 °C 88 % 1002,2 hPa 0,0 mm 0,0 km/h (0 Bft) NW 310 ° 0 min 0,000 mm 0,0 UV-I 0 W/m² 2,1 °C 3,9 °C 0,0 km/h (0 Bft)
15.11.2019 16:27 3,9 °C 88 % 1002,2 hPa 0,0 mm 0,0 km/h (0 Bft) NW 310 ° 0 min 0,000 mm 0,0 UV-I 0 W/m² 2,1 °C 3,9 °C 0,0 km/h (0 Bft)
15.11.2019 16:28 3,9 °C 88 % 1002,2 hPa 0,0 mm 0,0 km/h (0 Bft) NW 310 ° 0 min 0,000 mm 0,0 UV-I 0 W/m² 2,1 °C 3,9 °C 0,0 km/h (0 Bft)
15.11.2019 16:29 3,9 °C 88 % 1002,2 hPa 0,0 mm 0,0 km/h (0 Bft) NW 310 ° 0 min 0,000 mm 0,0 UV-I 0 W/m² 2,1 °C 3,9 °C 0,0 km/h (0 Bft)
15.11.2019 16:30 3,9 °C 88 % 1002,2 hPa 0,0 mm 0,0 km/h (0 Bft) NW 310 ° 0 min 0,000 mm 0,0 UV-I 0 W/m² 2,1 °C 3,9 °C 0,0 km/h (0 Bft)
15.11.2019 16:31 3,9 °C 88 % 1002,2 hPa 0,0 mm 0,0 km/h (0 Bft) NW 310 ° 0 min 0,000 mm 0,0 UV-I 0 W/m² 2,1 °C 3,9 °C 0,0 km/h (0 Bft)
15.11.2019 16:32 3,9 °C 88 % 1002,2 hPa 0,0 mm 0,0 km/h (0 Bft) NW 310 ° 0 min 0,000 mm 0,0 UV-I 0 W/m² 2,1 °C 3,9 °C 0,0 km/h (0 Bft)
15.11.2019 16:33 3,9 °C 88 % 1002,2 hPa 0,0 mm 0,0 km/h (0 Bft) NW 310 ° 0 min 0,000 mm 0,0 UV-I 0 W/m² 2,1 °C 3,9 °C 0,0 km/h (0 Bft)
15.11.2019 16:34 3,9 °C 88 % 1002,2 hPa 0,2 mm 0,0 km/h (0 Bft) NW 310 ° 0 min 0,000 mm 0,0 UV-I 0 W/m² 2,1 °C 3,9 °C 0,0 km/h (0 Bft)
15.11.2019 16:35 3,9 °C 88 % 1002,2 hPa 0,0 mm 0,0 km/h (0 Bft) NW 310 ° 0 min 0,000 mm 0,0 UV-I 0 W/m² 2,1 °C 3,9 °C 0,0 km/h (0 Bft)
15.11.2019 16:36 3,9 °C 88 % 1002,2 hPa 0,0 mm 0,0 km/h (0 Bft) NW 310 ° 0 min 0,000 mm 0,0 UV-I 0 W/m² 2,1 °C 3,9 °C 0,0 km/h (0 Bft)
15.11.2019 16:37 3,9 °C 88 % 1002,2 hPa 0,0 mm 0,0 km/h (0 Bft) NW 310 ° 0 min 0,000 mm 0,0 UV-I 0 W/m² 2,1 °C 3,9 °C 0,0 km/h (0 Bft)
15.11.2019 16:38 3,8 °C 88 % 1002,1 hPa 0,0 mm 0,0 km/h (0 Bft) NW 310 ° 0 min 0,000 mm 0,0 UV-I 0 W/m² 2,0 °C 3,8 °C 0,0 km/h (0 Bft)
15.11.2019 16:39 3,8 °C 88 % 1002,1 hPa 0,0 mm 0,0 km/h (0 Bft) NW 310 ° 0 min 0,000 mm 0,0 UV-I 0 W/m² 2,0 °C 3,8 °C 0,0 km/h (0 Bft)
15.11.2019 16:40 3,8 °C 88 % 1002,1 hPa 0,0 mm 0,0 km/h (0 Bft) NW 310 ° 0 min 0,000 mm 0,0 UV-I 0 W/m² 2,0 °C 3,8 °C 0,0 km/h (0 Bft)
15.11.2019 16:41 3,8 °C 88 % 1002,1 hPa 0,0 mm 0,0 km/h (0 Bft) NW 310 ° 0 min 0,000 mm 0,0 UV-I 0 W/m² 2,0 °C 3,8 °C 0,0 km/h (0 Bft)
15.11.2019 16:42 3,8 °C 88 % 1002,1 hPa 0,0 mm 0,0 km/h (0 Bft) NW 310 ° 0 min 0,000 mm 0,0 UV-I 0 W/m² 2,0 °C 3,8 °C 0,0 km/h (0 Bft)
15.11.2019 16:43 3,8 °C 88 % 1002,2 hPa 0,0 mm 0,0 km/h (0 Bft) NW 310 ° 0 min 0,000 mm 0,0 UV-I 0 W/m² 2,0 °C 3,8 °C 0,0 km/h (0 Bft)
15.11.2019 16:44 3,8 °C 88 % 1002,2 hPa 0,0 mm 0,0 km/h (0 Bft) NW 310 ° 0 min 0,000 mm 0,0 UV-I 0 W/m² 2,0 °C 3,8 °C 0,0 km/h (0 Bft)
15.11.2019 16:45 3,7 °C 88 % 1002,2 hPa 0,0 mm 0,0 km/h (0 Bft) NW 310 ° 0 min 0,000 mm 0,0 UV-I 0 W/m² 1,9 °C 3,7 °C 0,0 km/h (0 Bft)
15.11.2019 16:46 3,7 °C 88 % 1002,3 hPa 0,0 mm 0,0 km/h (0 Bft) NW 310 ° 0 min 0,000 mm 0,0 UV-I 0 W/m² 1,9 °C 3,7 °C 0,0 km/h (0 Bft)
15.11.2019 16:47 3,7 °C 89 % 1002,3 hPa 0,0 mm 0,0 km/h (0 Bft) NW 310 ° 0 min 0,000 mm 0,0 UV-I 0 W/m² 2,1 °C 3,7 °C 0,0 km/h (0 Bft)
15.11.2019 16:48 3,7 °C 89 % 1002,4 hPa 0,0 mm 0,0 km/h (0 Bft) NW 310 ° 0 min 0,000 mm 0,0 UV-I 0 W/m² 2,1 °C 3,7 °C 0,0 km/h (0 Bft)
15.11.2019 16:49 3,7 °C 89 % 1002,4 hPa 0,0 mm 0,0 km/h (0 Bft) NW 310 ° 0 min 0,000 mm 0,0 UV-I 0 W/m² 2,1 °C 3,7 °C 0,0 km/h (0 Bft)
15.11.2019 16:50 3,7 °C 89 % 1002,4 hPa 0,0 mm 0,0 km/h (0 Bft) NW 310 ° 0 min 0,000 mm 0,0 UV-I 0 W/m² 2,1 °C 3,7 °C 0,0 km/h (0 Bft)
15.11.2019 16:51 3,7 °C 89 % 1002,4 hPa 0,0 mm 0,0 km/h (0 Bft) NW 310 ° 0 min 0,000 mm 0,0 UV-I 0 W/m² 2,1 °C 3,7 °C 0,0 km/h (0 Bft)
15.11.2019 16:52 3,7 °C 89 % 1002,5 hPa 0,0 mm 0,0 km/h (0 Bft) NW 310 ° 0 min 0,000 mm 0,0 UV-I 0 W/m² 2,1 °C 3,7 °C 0,0 km/h (0 Bft)
15.11.2019 16:53 3,7 °C 89 % 1002,5 hPa 0,0 mm 0,0 km/h (0 Bft) NW 310 ° 0 min 0,000 mm 0,0 UV-I 0 W/m² 2,1 °C 3,7 °C 0,0 km/h (0 Bft)
15.11.2019 16:54 3,7 °C 89 % 1002,4 hPa 0,0 mm 0,0 km/h (0 Bft) NW 310 ° 0 min 0,000 mm 0,0 UV-I 0 W/m² 2,1 °C 3,7 °C 0,0 km/h (0 Bft)
15.11.2019 16:55 3,7 °C 89 % 1002,4 hPa 0,0 mm 0,0 km/h (0 Bft) NW 310 ° 0 min 0,000 mm 0,0 UV-I 0 W/m² 2,1 °C 3,7 °C 0,0 km/h (0 Bft)
15.11.2019 16:56 3,7 °C 89 % 1002,5 hPa 0,0 mm 0,0 km/h (0 Bft) NW 310 ° 0 min 0,000 mm 0,0 UV-I 0 W/m² 2,1 °C 3,7 °C 0,0 km/h (0 Bft)
15.11.2019 16:57 3,7 °C 89 % 1002,4 hPa 0,0 mm 0,0 km/h (0 Bft) NW 310 ° 0 min 0,000 mm 0,0 UV-I 0 W/m² 2,1 °C 3,7 °C 0,0 km/h (0 Bft)
15.11.2019 16:58 3,7 °C 89 % 1002,4 hPa 0,0 mm 0,0 km/h (0 Bft) NW 310 ° 0 min 0,000 mm 0,0 UV-I 0 W/m² 2,1 °C 3,7 °C 0,0 km/h (0 Bft)
15.11.2019 16:59 3,6 °C 89 % 1002,5 hPa 0,0 mm 0,0 km/h (0 Bft) NW 310 ° 0 min 0,000 mm 0,0 UV-I 0 W/m² 2,0 °C 3,6 °C 0,0 km/h (0 Bft)
15.11.2019 17:00 3,7 °C 89 % 1002,5 hPa 0,0 mm 0,0 km/h (0 Bft) NW 310 ° 0 min 0,000 mm 0,0 UV-I 0 W/m² 2,1 °C 3,7 °C 0,0 km/h (0 Bft)
15.11.2019 17:01 3,6 °C 89 % 1002,5 hPa 0,2 mm 0,0 km/h (0 Bft) NW 310 ° 0 min 0,000 mm 0,0 UV-I 0 W/m² 2,0 °C 3,6 °C 0,0 km/h (0 Bft)
15.11.2019 17:02 3,6 °C 89 % 1002,5 hPa 0,0 mm 0,0 km/h (0 Bft) NW 310 ° 0 min 0,000 mm 0,0 UV-I 0 W/m² 2,0 °C 3,6 °C 0,0 km/h (0 Bft)
15.11.2019 17:03 3,6 °C 89 % 1002,5 hPa 0,0 mm 0,0 km/h (0 Bft) NW 310 ° 0 min 0,000 mm 0,0 UV-I 0 W/m² 2,0 °C 3,6 °C 0,0 km/h (0 Bft)
15.11.2019 17:04 3,6 °C 89 % 1002,5 hPa 0,0 mm 0,0 km/h (0 Bft) NW 310 ° 0 min 0,000 mm 0,0 UV-I 0 W/m² 2,0 °C 3,6 °C 0,0 km/h (0 Bft)
15.11.2019 17:05 3,6 °C 89 % 1002,5 hPa 0,0 mm 0,0 km/h (0 Bft) NW 310 ° 0 min 0,000 mm 0,0 UV-I 0 W/m² 2,0 °C 3,6 °C 0,0 km/h (0 Bft)
15.11.2019 17:06 3,6 °C 89 % 1002,5 hPa 0,0 mm 0,0 km/h (0 Bft) NW 310 ° 0 min 0,000 mm 0,0 UV-I 0 W/m² 2,0 °C 3,6 °C 0,0 km/h (0 Bft)
15.11.2019 17:07 3,6 °C 89 % 1002,4 hPa 0,0 mm 0,0 km/h (0 Bft) NW 310 ° 0 min 0,000 mm 0,0 UV-I 0 W/m² 2,0 °C 3,6 °C 0,0 km/h (0 Bft)
15.11.2019 17:08 3,6 °C 89 % 1002,4 hPa 0,0 mm 0,0 km/h (0 Bft) NW 310 ° 0 min 0,000 mm 0,0 UV-I 0 W/m² 2,0 °C 3,6 °C 0,0 km/h (0 Bft)
15.11.2019 17:09 3,5 °C 89 % 1002,4 hPa 0,0 mm 0,0 km/h (0 Bft) NW 310 ° 0 min 0,000 mm 0,0 UV-I 0 W/m² 1,9 °C 3,5 °C 0,0 km/h (0 Bft)
15.11.2019 17:10 3,6 °C 89 % 1002,4 hPa 0,0 mm 0,0 km/h (0 Bft) NW 310 ° 0 min 0,000 mm 0,0 UV-I 0 W/m² 2,0 °C 3,6 °C 0,0 km/h (0 Bft)
15.11.2019 17:11 3,5 °C 89 % 1002,4 hPa 0,0 mm 0,0 km/h (0 Bft) NW 310 ° 0 min 0,000 mm 0,0 UV-I 0 W/m² 1,9 °C 3,5 °C 0,0 km/h (0 Bft)
15.11.2019 17:12 3,5 °C 89 % 1002,4 hPa 0,0 mm 0,0 km/h (0 Bft) NW 310 ° 0 min 0,000 mm 0,0 UV-I 0 W/m² 1,9 °C 3,5 °C 0,0 km/h (0 Bft)
15.11.2019 17:13 3,5 °C 89 % 1002,5 hPa 0,0 mm 0,0 km/h (0 Bft) NW 310 ° 0 min 0,000 mm 0,0 UV-I 0 W/m² 1,9 °C 3,5 °C 0,0 km/h (0 Bft)
15.11.2019 17:14 3,4 °C 89 % 1002,5 hPa 0,0 mm 0,0 km/h (0 Bft) NW 310 ° 0 min 0,000 mm 0,0 UV-I 0 W/m² 1,8 °C 3,4 °C 0,0 km/h (0 Bft)
15.11.2019 17:15 3,4 °C 89 % 1002,5 hPa 0,0 mm 0,0 km/h (0 Bft) NW 310 ° 0 min 0,000 mm 0,0 UV-I 0 W/m² 1,8 °C 3,4 °C 0,0 km/h (0 Bft)
15.11.2019 17:16 3,4 °C 89 % 1002,5 hPa 0,0 mm 0,0 km/h (0 Bft) NW 310 ° 0 min 0,000 mm 0,0 UV-I 0 W/m² 1,8 °C 3,4 °C 0,0 km/h (0 Bft)
15.11.2019 17:17 3,4 °C 89 % 1002,6 hPa 0,0 mm 0,0 km/h (0 Bft) NW 310 ° 0 min 0,000 mm 0,0 UV-I 0 W/m² 1,8 °C 3,4 °C 0,0 km/h (0 Bft)
15.11.2019 17:18 3,4 °C 89 % 1002,6 hPa 0,0 mm 0,0 km/h (0 Bft) NW 310 ° 0 min 0,000 mm 0,0 UV-I 0 W/m² 1,8 °C 3,4 °C 0,0 km/h (0 Bft)
15.11.2019 17:19 3,4 °C 89 % 1002,6 hPa 0,0 mm 0,0 km/h (0 Bft) NW 310 ° 0 min 0,000 mm 0,0 UV-I 0 W/m² 1,8 °C 3,4 °C 0,0 km/h (0 Bft)
15.11.2019 17:20 3,4 °C 89 % 1002,6 hPa 0,0 mm 0,0 km/h (0 Bft) NW 310 ° 0 min 0,000 mm 0,0 UV-I 0 W/m² 1,8 °C 3,4 °C 0,0 km/h (0 Bft)
15.11.2019 17:21 3,3 °C 89 % 1002,6 hPa 0,0 mm 0,0 km/h (0 Bft) NW 310 ° 0 min 0,000 mm 0,0 UV-I 0 W/m² 1,7 °C 3,3 °C 0,0 km/h (0 Bft)
15.11.2019 17:22 3,4 °C 89 % 1002,6 hPa 0,0 mm 0,0 km/h (0 Bft) NW 310 ° 0 min 0,000 mm 0,0 UV-I 0 W/m² 1,8 °C 3,4 °C 0,0 km/h (0 Bft)
15.11.2019 17:23 3,3 °C 89 % 1002,6 hPa 0,0 mm 0,0 km/h (0 Bft) NW 310 ° 0 min 0,000 mm 0,0 UV-I 0 W/m² 1,7 °C 3,3 °C 0,0 km/h (0 Bft)
15.11.2019 17:24 3,3 °C 89 % 1002,6 hPa 0,0 mm 0,0 km/h (0 Bft) NW 310 ° 0 min 0,000 mm 0,0 UV-I 0 W/m² 1,7 °C 3,3 °C 0,0 km/h (0 Bft)
15.11.2019 17:25 3,3 °C 89 % 1002,6 hPa 0,0 mm 0,0 km/h (0 Bft) NW 310 ° 0 min 0,000 mm 0,0 UV-I 0 W/m² 1,7 °C 3,3 °C 0,0 km/h (0 Bft)
15.11.2019 17:26 3,3 °C 89 % 1002,6 hPa 0,0 mm 0,0 km/h (0 Bft) NW 310 ° 0 min 0,000 mm 0,0 UV-I 0 W/m² 1,7 °C 3,3 °C 0,0 km/h (0 Bft)
15.11.2019 17:27 3,3 °C 89 % 1002,7 hPa 0,2 mm 0,0 km/h (0 Bft) NW 310 ° 0 min 0,000 mm 0,0 UV-I 0 W/m² 1,7 °C 3,3 °C 0,0 km/h (0 Bft)
15.11.2019 17:28 3,3 °C 89 % 1002,7 hPa 0,0 mm 0,0 km/h (0 Bft) NW 310 ° 0 min 0,000 mm 0,0 UV-I 0 W/m² 1,7 °C 3,3 °C 0,0 km/h (0 Bft)
15.11.2019 17:29 3,3 °C 89 % 1002,7 hPa 0,0 mm 7,7 km/h (2 Bft) S 187 ° 0 min 0,000 mm 0,0 UV-I 0 W/m² 1,7 °C 1,2 °C 14,5 km/h (3 Bft)
15.11.2019 17:30 3,3 °C 89 % 1002,7 hPa 0,0 mm 2,3 km/h (1 Bft) SO 142 ° 0 min 0,000 mm 0,0 UV-I 0 W/m² 1,7 °C 3,3 °C 3,2 km/h (1 Bft)
15.11.2019 17:31 3,3 °C 89 % 1002,7 hPa 0,0 mm 0,3 km/h (0 Bft) S 171 ° 0 min 0,000 mm 0,0 UV-I 0 W/m² 1,7 °C 3,3 °C 1,6 km/h (1 Bft)
15.11.2019 17:32 3,3 °C 89 % 1002,7 hPa 0,0 mm 4,3 km/h (1 Bft) O 83 ° 0 min 0,000 mm 0,0 UV-I 0 W/m² 1,7 °C 3,3 °C 6,4 km/h (2 Bft)
15.11.2019 17:33 3,4 °C 90 % 1002,7 hPa 0,0 mm 1,0 km/h (0 Bft) O 83 ° 0 min 0,000 mm 0,0 UV-I 0 W/m² 1,9 °C 3,4 °C 3,2 km/h (1 Bft)
15.11.2019 17:34 3,4 °C 90 % 1002,7 hPa 0,0 mm 0,0 km/h (0 Bft) O 83 ° 0 min 0,000 mm 0,0 UV-I 0 W/m² 1,9 °C 3,4 °C 0,0 km/h (0 Bft)
15.11.2019 17:35 3,4 °C 90 % 1002,7 hPa 0,0 mm 0,3 km/h (0 Bft) W-SW 257 ° 0 min 0,000 mm 0,0 UV-I 0 W/m² 1,9 °C 3,4 °C 3,2 km/h (1 Bft)
15.11.2019 17:36 3,4 °C 90 % 1002,8 hPa 0,0 mm 4,3 km/h (1 Bft) W-SW 244 ° 0 min 0,000 mm 0,0 UV-I 0 W/m² 1,9 °C 3,4 °C 6,4 km/h (2 Bft)
15.11.2019 17:37 3,5 °C 90 % 1002,8 hPa 0,0 mm 4,4 km/h (1 Bft) SW 236 ° 0 min 0,000 mm 0,0 UV-I 0 W/m² 2,0 °C 3,5 °C 8,0 km/h (2 Bft)
15.11.2019 17:38 3,5 °C 90 % 1002,7 hPa 0,0 mm 1,6 km/h (1 Bft) SW 236 ° 0 min 0,000 mm 0,0 UV-I 0 W/m² 2,0 °C 3,5 °C 3,2 km/h (1 Bft)
15.11.2019 17:39 3,5 °C 90 % 1002,7 hPa 0,0 mm 0,0 km/h (0 Bft) SW 236 ° 0 min 0,000 mm 0,0 UV-I 0 W/m² 2,0 °C 3,5 °C 0,0 km/h (0 Bft)
15.11.2019 17:40 3,6 °C 90 % 1002,7 hPa 0,0 mm 0,1 km/h (0 Bft) O-SO 121 ° 0 min 0,000 mm 0,0 UV-I 0 W/m² 2,1 °C 3,6 °C 1,6 km/h (1 Bft)
15.11.2019 17:41 3,6 °C 90 % 1002,6 hPa 0,0 mm 1,9 km/h (1 Bft) O-SO 121 ° 0 min 0,000 mm 0,0 UV-I 0 W/m² 2,1 °C 3,6 °C 3,2 km/h (1 Bft)
15.11.2019 17:42 3,6 °C 90 % 1002,7 hPa 0,0 mm 0,0 km/h (0 Bft) O-SO 121 ° 0 min 0,000 mm 0,0 UV-I 0 W/m² 2,1 °C 3,6 °C 0,0 km/h (0 Bft)
15.11.2019 17:43 3,6 °C 90 % 1002,7 hPa 0,0 mm 1,5 km/h (1 Bft) O-SO 121 ° 0 min 0,000 mm 0,0 UV-I 0 W/m² 2,1 °C 3,6 °C 4,8 km/h (1 Bft)
15.11.2019 17:44 3,6 °C 90 % 1002,6 hPa 0,0 mm 1,9 km/h (1 Bft) O-SO 123 ° 0 min 0,000 mm 0,0 UV-I 0 W/m² 2,1 °C 3,6 °C 4,8 km/h (1 Bft)
15.11.2019 17:45 3,6 °C 90 % 1002,6 hPa 0,0 mm 3,7 km/h (1 Bft) S 169 ° 0 min 0,000 mm 0,0 UV-I 0 W/m² 2,1 °C 3,6 °C 8,0 km/h (2 Bft)
15.11.2019 17:46 3,7 °C 90 % 1002,6 hPa 0,0 mm 0,9 km/h (0 Bft) S 169 ° 0 min 0,000 mm 0,0 UV-I 0 W/m² 2,2 °C 3,7 °C 6,4 km/h (2 Bft)
15.11.2019 17:47 3,6 °C 90 % 1002,7 hPa 0,0 mm 0,3 km/h (0 Bft) S-SO 168 ° 0 min 0,000 mm 0,0 UV-I 0 W/m² 2,1 °C 3,6 °C 3,2 km/h (1 Bft)
15.11.2019 17:48 3,6 °C 89 % 1002,8 hPa 0,0 mm 2,8 km/h (1 Bft) S-SO 154 ° 0 min 0,000 mm 0,0 UV-I 0 W/m² 2,0 °C 3,6 °C 4,8 km/h (1 Bft)
15.11.2019 17:49 3,7 °C 89 % 1002,8 hPa 0,0 mm 3,6 km/h (1 Bft) O-NO 69 ° 0 min 0,000 mm 0,0 UV-I 0 W/m² 2,1 °C 3,7 °C 4,8 km/h (1 Bft)
15.11.2019 17:50 3,7 °C 89 % 1002,8 hPa 0,0 mm 3,1 km/h (1 Bft) O-NO 69 ° 0 min 0,000 mm 0,0 UV-I 0 W/m² 2,1 °C 3,7 °C 4,8 km/h (1 Bft)
15.11.2019 17:51 3,7 °C 89 % 1002,8 hPa 0,0 mm 1,9 km/h (1 Bft) O-NO 69 ° 0 min 0,000 mm 0,0 UV-I 0 W/m² 2,1 °C 3,7 °C 3,2 km/h (1 Bft)
15.11.2019 17:52 3,7 °C 89 % 1002,8 hPa 0,0 mm 2,2 km/h (1 Bft) O-NO 69 ° 0 min 0,000 mm 0,0 UV-I 0 W/m² 2,1 °C 3,7 °C 3,2 km/h (1 Bft)
15.11.2019 17:53 3,7 °C 89 % 1002,8 hPa 0,0 mm 5,6 km/h (1 Bft) S-SO 161 ° 0 min 0,000 mm 0,0 UV-I 0 W/m² 2,1 °C 2,4 °C 14,5 km/h (3 Bft)
15.11.2019 17:54 3,7 °C 89 % 1002,8 hPa 0,0 mm 13,7 km/h (3 Bft) S 171 ° 0 min 0,000 mm 0,0 UV-I 0 W/m² 2,1 °C 0,4 °C 19,3 km/h (3 Bft)
15.11.2019 17:55 3,7 °C 88 % 1002,7 hPa 0,0 mm 8,8 km/h (2 Bft) O 82 ° 0 min 0,000 mm 0,0 UV-I 0 W/m² 1,9 °C 1,4 °C 12,9 km/h (3 Bft)
15.11.2019 17:56 3,7 °C 88 % 1002,8 hPa 0,2 mm 5,6 km/h (1 Bft) O 90 ° 0 min 0,000 mm 0,0 UV-I 0 W/m² 1,9 °C 2,4 °C 11,3 km/h (2 Bft)
15.11.2019 17:57 3,8 °C 88 % 1002,7 hPa 0,0 mm 4,9 km/h (1 Bft) NO 44 ° 0 min 0,000 mm 0,0 UV-I 0 W/m² 2,0 °C 2,8 °C 8,0 km/h (2 Bft)
15.11.2019 17:58 3,8 °C 88 % 1002,8 hPa 0,0 mm 3,9 km/h (1 Bft) NO 40 ° 0 min 0,000 mm 0,0 UV-I 0 W/m² 2,0 °C 3,8 °C 8,0 km/h (2 Bft)
15.11.2019 17:59 3,8 °C 88 % 1002,7 hPa 0,0 mm 0,7 km/h (0 Bft) NO 40 ° 0 min 0,000 mm 0,0 UV-I 0 W/m² 2,0 °C 3,8 °C 3,2 km/h (1 Bft)
15.11.2019 18:00 3,8 °C 88 % 1002,7 hPa 0,0 mm 1,9 km/h (1 Bft) N-NW 348 ° 0 min 0,000 mm 0,0 UV-I 0 W/m² 2,0 °C 3,8 °C 4,8 km/h (1 Bft)
15.11.2019 18:01 3,8 °C 88 % 1002,8 hPa 0,0 mm 2,5 km/h (1 Bft) N-NW 348 ° 0 min 0,000 mm 0,0 UV-I 0 W/m² 2,0 °C 3,8 °C 4,8 km/h (1 Bft)
15.11.2019 18:02 3,8 °C 88 % 1002,9 hPa 0,0 mm 0,7 km/h (0 Bft) N-NW 348 ° 0 min 0,000 mm 0,0 UV-I 0 W/m² 2,0 °C 3,8 °C 1,6 km/h (1 Bft)
15.11.2019 18:03 3,8 °C 88 % 1002,8 hPa 0,0 mm 0,6 km/h (0 Bft) N-NW 348 ° 0 min 0,000 mm 0,0 UV-I 0 W/m² 2,0 °C 3,8 °C 3,2 km/h (1 Bft)
15.11.2019 18:04 3,9 °C 88 % 1002,8 hPa 0,0 mm 0,9 km/h (0 Bft) N-NW 348 ° 0 min 0,000 mm 0,0 UV-I 0 W/m² 2,1 °C 3,9 °C 3,2 km/h (1 Bft)
15.11.2019 18:05 3,9 °C 88 % 1002,8 hPa 0,0 mm 3,5 km/h (1 Bft) SW 230 ° 0 min 0,000 mm 0,0 UV-I 0 W/m² 2,1 °C 3,9 °C 6,4 km/h (2 Bft)
15.11.2019 18:06 3,9 °C 88 % 1002,8 hPa 0,0 mm 2,9 km/h (1 Bft) SW 227 ° 0 min 0,000 mm 0,0 UV-I 0 W/m² 2,1 °C 3,9 °C 4,8 km/h (1 Bft)
15.11.2019 18:07 3,9 °C 88 % 1002,8 hPa 0,0 mm 5,3 km/h (1 Bft) SW 227 ° 0 min 0,000 mm 0,0 UV-I 0 W/m² 2,1 °C 2,7 °C 6,4 km/h (2 Bft)
15.11.2019 18:08 3,9 °C 88 % 1002,8 hPa 0,0 mm 7,1 km/h (2 Bft) S-SW 194 ° 0 min 0,000 mm 0,0 UV-I 0 W/m² 2,1 °C 2,1 °C 9,7 km/h (2 Bft)
15.11.2019 18:09 3,9 °C 88 % 1002,8 hPa 0,0 mm 4,1 km/h (1 Bft) S-SW 194 ° 0 min 0,000 mm 0,0 UV-I 0 W/m² 2,1 °C 3,9 °C 6,4 km/h (2 Bft)
15.11.2019 18:10 3,9 °C 88 % 1002,8 hPa 0,0 mm 3,6 km/h (1 Bft) S-SW 202 ° 0 min 0,000 mm 0,0 UV-I 0 W/m² 2,1 °C 3,9 °C 4,8 km/h (1 Bft)
15.11.2019 18:11 3,9 °C 88 % 1002,9 hPa 0,0 mm 4,0 km/h (1 Bft) W 265 ° 0 min 0,000 mm 0,0 UV-I 0 W/m² 2,1 °C 3,9 °C 4,8 km/h (1 Bft)
15.11.2019 18:12 3,9 °C 88 % 1003,0 hPa 0,2 mm 3,9 km/h (1 Bft) W 265 ° 0 min 0,000 mm 0,0 UV-I 0 W/m² 2,1 °C 3,9 °C 4,8 km/h (1 Bft)
15.11.2019 18:13 3,9 °C 88 % 1003,0 hPa 0,0 mm 3,8 km/h (1 Bft) W 261 ° 0 min 0,000 mm 0,0 UV-I 0 W/m² 2,1 °C 3,9 °C 6,4 km/h (2 Bft)
15.11.2019 18:14 3,9 °C 88 % 1003,0 hPa 0,0 mm 3,2 km/h (1 Bft) W 261 ° 0 min 0,000 mm 0,0 UV-I 0 W/m² 2,1 °C 3,9 °C 4,8 km/h (1 Bft)
15.11.2019 18:15 3,9 °C 88 % 1003,0 hPa 0,0 mm 4,4 km/h (1 Bft) W 263 ° 0 min 0,000 mm 0,0 UV-I 0 W/m² 2,1 °C 3,9 °C 6,4 km/h (2 Bft)
15.11.2019 18:16 3,8 °C 88 % 1002,9 hPa 0,0 mm 2,5 km/h (1 Bft) W 265 ° 0 min 0,000 mm 0,0 UV-I 0 W/m² 2,0 °C 3,8 °C 4,8 km/h (1 Bft)
15.11.2019 18:17 3,8 °C 88 % 1002,9 hPa 0,0 mm 1,0 km/h (0 Bft) W 265 ° 0 min 0,000 mm 0,0 UV-I 0 W/m² 2,0 °C 3,8 °C 3,2 km/h (1 Bft)
15.11.2019 18:18 3,8 °C 88 % 1003,0 hPa 0,0 mm 0,0 km/h (0 Bft) W 265 ° 0 min 0,000 mm 0,0 UV-I 0 W/m² 2,0 °C 3,8 °C 0,0 km/h (0 Bft)
15.11.2019 18:19 3,8 °C 88 % 1003,0 hPa 0,0 mm 3,2 km/h (1 Bft) W 265 ° 0 min 0,000 mm 0,0 UV-I 0 W/m² 2,0 °C 3,8 °C 4,8 km/h (1 Bft)
15.11.2019 18:20 3,8 °C 88 % 1003,0 hPa 0,0 mm 2,3 km/h (1 Bft) W 265 ° 0 min 0,000 mm 0,0 UV-I 0 W/m² 2,0 °C 3,8 °C 3,2 km/h (1 Bft)
15.11.2019 18:21 3,8 °C 88 % 1003,0 hPa 0,0 mm 3,7 km/h (1 Bft) W-SW 243 ° 0 min 0,000 mm 0,0 UV-I 0 W/m² 2,0 °C 3,8 °C 6,4 km/h (2 Bft)
15.11.2019 18:22 3,8 °C 88 % 1003,0 hPa 0,0 mm 2,9 km/h (1 Bft) W-SW 243 ° 0 min 0,000 mm 0,0 UV-I 0 W/m² 2,0 °C 3,8 °C 3,2 km/h (1 Bft)
15.11.2019 18:23 3,8 °C 88 % 1003,0 hPa 0,0 mm 4,5 km/h (1 Bft) SW 230 ° 0 min 0,000 mm 0,0 UV-I 0 W/m² 2,0 °C 3,8 °C 6,4 km/h (2 Bft)
15.11.2019 18:24 3,8 °C 88 % 1002,9 hPa 0,0 mm 3,6 km/h (1 Bft) SW 230 ° 0 min 0,000 mm 0,0 UV-I 0 W/m² 2,0 °C 3,8 °C 4,8 km/h (1 Bft)
15.11.2019 18:25 3,7 °C 88 % 1003,0 hPa 0,2 mm 4,7 km/h (1 Bft) S-SW 207 ° 0 min 0,000 mm 0,0 UV-I 0 W/m² 1,9 °C 2,7 °C 6,4 km/h (2 Bft)
15.11.2019 18:26 3,7 °C 88 % 1003,0 hPa 0,0 mm 2,2 km/h (1 Bft) S-SW 207 ° 0 min 0,000 mm 0,0 UV-I 0 W/m² 1,9 °C 3,7 °C 4,8 km/h (1 Bft)
15.11.2019 18:27 3,7 °C 88 % 1003,0 hPa 0,0 mm 0,0 km/h (0 Bft) S-SW 207 ° 0 min 0,000 mm 0,0 UV-I 0 W/m² 1,9 °C 3,7 °C 0,0 km/h (0 Bft)
15.11.2019 18:28 3,7 °C 88 % 1003,0 hPa 0,0 mm 0,3 km/h (0 Bft) S-SW 211 ° 0 min 0,000 mm 0,0 UV-I 0 W/m² 1,9 °C 3,7 °C 3,2 km/h (1 Bft)
15.11.2019 18:29 3,7 °C 89 % 1003,0 hPa 0,0 mm 1,7 km/h (1 Bft) S-SW 211 ° 0 min 0,000 mm 0,0 UV-I 0 W/m² 2,1 °C 3,7 °C 3,2 km/h (1 Bft)
15.11.2019 18:30 3,7 °C 89 % 1002,9 hPa 0,0 mm 0,0 km/h (0 Bft) S-SW 211 ° 0 min 0,000 mm 0,0 UV-I 0 W/m² 2,1 °C 3,7 °C 0,0 km/h (0 Bft)
15.11.2019 18:31 3,7 °C 89 % 1003,0 hPa 0,0 mm 0,0 km/h (0 Bft) S-SW 211 ° 0 min 0,000 mm 0,0 UV-I 0 W/m² 2,1 °C 3,7 °C 0,0 km/h (0 Bft)
15.11.2019 18:32 3,7 °C 89 % 1003,0 hPa 0,0 mm 3,8 km/h (1 Bft) W 265 ° 0 min 0,000 mm 0,0 UV-I 0 W/m² 2,1 °C 3,7 °C 6,4 km/h (2 Bft)
15.11.2019 18:33 3,7 °C 89 % 1003,1 hPa 0,0 mm 2,7 km/h (1 Bft) W 265 ° 0 min 0,000 mm 0,0 UV-I 0 W/m² 2,1 °C 3,7 °C 4,8 km/h (1 Bft)
15.11.2019 18:34 3,7 °C 89 % 1003,1 hPa 0,0 mm 3,5 km/h (1 Bft) W-SW 254 ° 0 min 0,000 mm 0,0 UV-I 0 W/m² 2,1 °C 3,7 °C 6,4 km/h (2 Bft)
15.11.2019 18:35 3,7 °C 89 % 1003,1 hPa 0,0 mm 2,3 km/h (1 Bft) W-SW 258 ° 0 min 0,000 mm 0,0 UV-I 0 W/m² 2,1 °C 3,7 °C 4,8 km/h (1 Bft)
15.11.2019 18:36 3,6 °C 89 % 1003,1 hPa 0,0 mm 2,0 km/h (1 Bft) W-SW 258 ° 0 min 0,000 mm 0,0 UV-I 0 W/m² 2,0 °C 3,6 °C 4,8 km/h (1 Bft)
15.11.2019 18:38 3,6 °C 89 % 1003,0 hPa 0,0 mm 1,6 km/h (1 Bft) W-SW 254 ° 0 min 0,000 mm 0,0 UV-I 0 W/m² 2,0 °C 3,6 °C 3,2 km/h (1 Bft)
15.11.2019 18:39 3,6 °C 89 % 1003,0 hPa 0,2 mm 4,1 km/h (1 Bft) W-SW 255 ° 0 min 0,000 mm 0,0 UV-I 0 W/m² 2,0 °C 3,6 °C 6,4 km/h (2 Bft)
15.11.2019 18:40 3,6 °C 89 % 1003,0 hPa 0,0 mm 5,0 km/h (1 Bft) W-SW 254 ° 0 min 0,000 mm 0,0 UV-I 0 W/m² 2,0 °C 2,5 °C 6,4 km/h (2 Bft)
15.11.2019 18:41 3,6 °C 89 % 1003,0 hPa 0,0 mm 3,3 km/h (1 Bft) W-SW 253 ° 0 min 0,000 mm 0,0 UV-I 0 W/m² 2,0 °C 3,6 °C 4,8 km/h (1 Bft)
15.11.2019 18:42 3,6 °C 89 % 1003,0 hPa 0,0 mm 2,3 km/h (1 Bft) W-SW 253 ° 0 min 0,000 mm 0,0 UV-I 0 W/m² 2,0 °C 3,6 °C 3,2 km/h (1 Bft)
15.11.2019 18:43 3,5 °C 89 % 1003,0 hPa 0,0 mm 2,7 km/h (1 Bft) W-SW 255 ° 0 min 0,000 mm 0,0 UV-I 0 W/m² 1,9 °C 3,5 °C 4,8 km/h (1 Bft)
15.11.2019 18:44 3,5 °C 89 % 1003,1 hPa 0,0 mm 3,8 km/h (1 Bft) W-SW 254 ° 0 min 0,000 mm 0,0 UV-I 0 W/m² 1,9 °C 3,5 °C 6,4 km/h (2 Bft)
15.11.2019 18:45 3,5 °C 89 % 1003,1 hPa 0,0 mm 2,3 km/h (1 Bft) W-SW 254 ° 0 min 0,000 mm 0,0 UV-I 0 W/m² 1,9 °C 3,5 °C 3,2 km/h (1 Bft)
15.11.2019 18:46 3,5 °C 89 % 1003,0 hPa 0,0 mm 3,0 km/h (1 Bft) W-SW 254 ° 0 min 0,000 mm 0,0 UV-I 0 W/m² 1,9 °C 3,5 °C 4,8 km/h (1 Bft)
15.11.2019 18:47 3,4 °C 89 % 1003,0 hPa 0,0 mm 4,2 km/h (1 Bft) W-SW 242 ° 0 min 0,000 mm 0,0 UV-I 0 W/m² 1,8 °C 3,4 °C 6,4 km/h (2 Bft)
15.11.2019 18:48 3,4 °C 89 % 1003,0 hPa 0,0 mm 3,8 km/h (1 Bft) W-SW 253 ° 0 min 0,000 mm 0,0 UV-I 0 W/m² 1,8 °C 3,4 °C 6,4 km/h (2 Bft)
15.11.2019 18:49 3,4 °C 89 % 1002,9 hPa 0,0 mm 2,1 km/h (1 Bft) W-SW 253 ° 0 min 0,000 mm 0,0 UV-I 0 W/m² 1,8 °C 3,4 °C 3,2 km/h (1 Bft)
15.11.2019 18:50 3,4 °C 89 % 1003,0 hPa 0,0 mm 1,5 km/h (1 Bft) W-SW 253 ° 0 min 0,000 mm 0,0 UV-I 0 W/m² 1,8 °C 3,4 °C 3,2 km/h (1 Bft)
15.11.2019 18:51 3,3 °C 89 % 1003,0 hPa 0,0 mm 2,3 km/h (1 Bft) W-SW 244 ° 0 min 0,000 mm 0,0 UV-I 0 W/m² 1,7 °C 3,3 °C 4,8 km/h (1 Bft)
15.11.2019 18:52 3,4 °C 89 % 1003,0 hPa 0,0 mm 1,3 km/h (1 Bft) W-SW 244 ° 0 min 0,000 mm 0,0 UV-I 0 W/m² 1,8 °C 3,4 °C 1,6 km/h (1 Bft)
15.11.2019 18:53 3,3 °C 89 % 1003,1 hPa 0,0 mm 1,4 km/h (1 Bft) W-SW 244 ° 0 min 0,000 mm 0,0 UV-I 0 W/m² 1,7 °C 3,3 °C 4,8 km/h (1 Bft)
15.11.2019 18:54 3,3 °C 89 % 1003,1 hPa 0,2 mm 4,0 km/h (1 Bft) SW 226 ° 0 min 0,000 mm 0,0 UV-I 0 W/m² 1,7 °C 3,3 °C 8,0 km/h (2 Bft)
15.11.2019 18:55 3,3 °C 89 % 1003,1 hPa 0,0 mm 4,4 km/h (1 Bft) W-SW 250 ° 0 min 0,000 mm 0,0 UV-I 0 W/m² 1,7 °C 3,3 °C 6,4 km/h (2 Bft)
15.11.2019 18:56 3,3 °C 89 % 1003,1 hPa 0,0 mm 4,0 km/h (1 Bft) W-SW 253 ° 0 min 0,000 mm 0,0 UV-I 0 W/m² 1,7 °C 3,3 °C 6,4 km/h (2 Bft)
15.11.2019 18:57 3,3 °C 89 % 1003,2 hPa 0,0 mm 4,4 km/h (1 Bft) W-SW 240 ° 0 min 0,000 mm 0,0 UV-I 0 W/m² 1,7 °C 3,3 °C 6,4 km/h (2 Bft)
15.11.2019 18:58 3,3 °C 90 % 1003,2 hPa 0,0 mm 4,1 km/h (1 Bft) W-SW 240 ° 0 min 0,000 mm 0,0 UV-I 0 W/m² 1,8 °C 3,3 °C 4,8 km/h (1 Bft)
15.11.2019 18:59 3,2 °C 90 % 1003,3 hPa 0,0 mm 5,9 km/h (2 Bft) S-SW 207 ° 0 min 0,000 mm 0,0 UV-I 0 W/m² 1,7 °C 1,7 °C 9,7 km/h (2 Bft)
15.11.2019 19:00 3,2 °C 90 % 1003,2 hPa 0,0 mm 4,2 km/h (1 Bft) S-SW 210 ° 0 min 0,000 mm 0,0 UV-I 0 W/m² 1,7 °C 3,2 °C 6,4 km/h (2 Bft)
15.11.2019 19:01 3,2 °C 90 % 1003,2 hPa 0,0 mm 5,2 km/h (1 Bft) S-SW 196 ° 0 min 0,000 mm 0,0 UV-I 0 W/m² 1,7 °C 2,0 °C 8,0 km/h (2 Bft)
15.11.2019 19:02 3,2 °C 90 % 1003,3 hPa 0,0 mm 3,7 km/h (1 Bft) SW 229 ° 0 min 0,000 mm 0,0 UV-I 0 W/m² 1,7 °C 3,2 °C 4,8 km/h (1 Bft)
15.11.2019 19:03 3,2 °C 90 % 1003,3 hPa 0,0 mm 2,2 km/h (1 Bft) SW 229 ° 0 min 0,000 mm 0,0 UV-I 0 W/m² 1,7 °C 3,2 °C 3,2 km/h (1 Bft)
15.11.2019 19:04 3,2 °C 90 % 1003,3 hPa 0,0 mm 2,8 km/h (1 Bft) S-SW 192 ° 0 min 0,000 mm 0,0 UV-I 0 W/m² 1,7 °C 3,2 °C 4,8 km/h (1 Bft)
15.11.2019 19:05 3,2 °C 90 % 1003,4 hPa 0,0 mm 6,0 km/h (2 Bft) S-SW 211 ° 0 min 0,000 mm 0,0 UV-I 0 W/m² 1,7 °C 1,7 °C 11,3 km/h (2 Bft)
15.11.2019 19:06 3,1 °C 90 % 1003,4 hPa 0,2 mm 6,0 km/h (2 Bft) S-SW 198 ° 0 min 0,000 mm 0,0 UV-I 0 W/m² 1,6 °C 1,5 °C 8,0 km/h (2 Bft)
15.11.2019 19:07 3,1 °C 90 % 1003,3 hPa 0,0 mm 5,2 km/h (1 Bft) S-SW 196 ° 0 min 0,000 mm 0,0 UV-I 0 W/m² 1,6 °C 1,8 °C 6,4 km/h (2 Bft)
15.11.2019 19:08 3,1 °C 90 % 1003,4 hPa 0,0 mm 4,7 km/h (1 Bft) S-SW 212 ° 0 min 0,000 mm 0,0 UV-I 0 W/m² 1,6 °C 2,1 °C 8,0 km/h (2 Bft)
15.11.2019 19:09 3,1 °C 90 % 1003,4 hPa 0,0 mm 7,2 km/h (2 Bft) S-SW 199 ° 0 min 0,000 mm 0,0 UV-I 0 W/m² 1,6 °C 1,1 °C 9,7 km/h (2 Bft)
15.11.2019 19:10 3,1 °C 90 % 1003,5 hPa 0,0 mm 4,7 km/h (1 Bft) S-SW 209 ° 0 min 0,000 mm 0,0 UV-I 0 W/m² 1,6 °C 2,1 °C 6,4 km/h (2 Bft)
15.11.2019 19:11 3,1 °C 90 % 1003,4 hPa 0,0 mm 4,7 km/h (1 Bft) S-SW 206 ° 0 min 0,000 mm 0,0 UV-I 0 W/m² 1,6 °C 2,1 °C 6,4 km/h (2 Bft)
15.11.2019 19:12 3,1 °C 90 % 1003,4 hPa 0,0 mm 3,2 km/h (1 Bft) W-SW 243 ° 0 min 0,000 mm 0,0 UV-I 0 W/m² 1,6 °C 3,1 °C 4,8 km/h (1 Bft)
15.11.2019 19:13 3,1 °C 90 % 1003,4 hPa 0,0 mm 4,2 km/h (1 Bft) S-SW 200 ° 0 min 0,000 mm 0,0 UV-I 0 W/m² 1,6 °C 3,1 °C 4,8 km/h (1 Bft)
15.11.2019 19:14 3,1 °C 90 % 1003,4 hPa 0,0 mm 3,7 km/h (1 Bft) S-SW 200 ° 0 min 0,000 mm 0,0 UV-I 0 W/m² 1,6 °C 3,1 °C 4,8 km/h (1 Bft)
15.11.2019 19:15 3,1 °C 90 % 1003,5 hPa 0,2 mm 1,9 km/h (1 Bft) S-SW 200 ° 0 min 0,000 mm 0,0 UV-I 0 W/m² 1,6 °C 3,1 °C 3,2 km/h (1 Bft)
15.11.2019 19:16 3,0 °C 90 % 1003,6 hPa 0,0 mm 6,0 km/h (2 Bft) S-SW 194 ° 0 min 0,000 mm 0,0 UV-I 0 W/m² 1,5 °C 1,4 °C 9,7 km/h (2 Bft)
15.11.2019 19:17 3,0 °C 90 % 1003,6 hPa 0,0 mm 7,4 km/h (2 Bft) S-SW 195 ° 0 min 0,000 mm 0,0 UV-I 0 W/m² 1,5 °C 1,0 °C 9,7 km/h (2 Bft)
15.11.2019 19:18 3,0 °C 90 % 1003,6 hPa 0,0 mm 6,5 km/h (2 Bft) S 182 ° 0 min 0,000 mm 0,0 UV-I 0 W/m² 1,5 °C 1,2 °C 9,7 km/h (2 Bft)
15.11.2019 19:19 3,0 °C 90 % 1003,6 hPa 0,0 mm 5,4 km/h (1 Bft) SW 229 ° 0 min 0,000 mm 0,0 UV-I 0 W/m² 1,5 °C 1,7 °C 9,7 km/h (2 Bft)
15.11.2019 19:20 2,9 °C 90 % 1003,6 hPa 0,0 mm 2,7 km/h (1 Bft) S-SW 205 ° 0 min 0,000 mm 0,0 UV-I 0 W/m² 1,4 °C 2,9 °C 4,8 km/h (1 Bft)
15.11.2019 19:21 2,9 °C 90 % 1003,6 hPa 0,2 mm 4,8 km/h (1 Bft) S-SW 209 ° 0 min 0,000 mm 0,0 UV-I 0 W/m² 1,4 °C 1,8 °C 6,4 km/h (2 Bft)
15.11.2019 19:22 2,9 °C 90 % 1003,6 hPa 0,0 mm 3,3 km/h (1 Bft) S-SW 209 ° 0 min 0,000 mm 0,0 UV-I 0 W/m² 1,4 °C 2,9 °C 4,8 km/h (1 Bft)
15.11.2019 19:23 2,9 °C 90 % 1003,6 hPa 0,0 mm 4,3 km/h (1 Bft) S-SW 208 ° 0 min 0,000 mm 0,0 UV-I 0 W/m² 1,4 °C 2,9 °C 4,8 km/h (1 Bft)
15.11.2019 19:24 2,9 °C 90 % 1003,7 hPa 0,0 mm 2,6 km/h (1 Bft) S-SW 209 ° 0 min 0,000 mm 0,0 UV-I 0 W/m² 1,4 °C 2,9 °C 4,8 km/h (1 Bft)
15.11.2019 19:25 2,9 °C 91 % 1003,7 hPa 0,0 mm 1,5 km/h (1 Bft) S-SW 208 ° 0 min 0,000 mm 0,0 UV-I 0 W/m² 1,6 °C 2,9 °C 3,2 km/h (1 Bft)
15.11.2019 19:26 2,9 °C 91 % 1003,7 hPa 0,0 mm 3,1 km/h (1 Bft) S-SW 200 ° 0 min 0,000 mm 0,0 UV-I 0 W/m² 1,6 °C 2,9 °C 6,4 km/h (2 Bft)
15.11.2019 19:27 2,9 °C 91 % 1003,7 hPa 0,0 mm 3,5 km/h (1 Bft) S 186 ° 0 min 0,000 mm 0,0 UV-I 0 W/m² 1,6 °C 2,9 °C 6,4 km/h (2 Bft)
15.11.2019 19:29 2,8 °C 91 % 1003,6 hPa 0,2 mm 4,2 km/h (1 Bft) S-SW 199 ° 0 min 0,000 mm 0,0 UV-I 0 W/m² 1,5 °C 2,8 °C 6,4 km/h (2 Bft)
15.11.2019 19:30 2,8 °C 91 % 1003,6 hPa 0,0 mm 4,6 km/h (1 Bft) S-SW 198 ° 0 min 0,000 mm 0,0 UV-I 0 W/m² 1,5 °C 1,8 °C 6,4 km/h (2 Bft)
15.11.2019 19:31 2,8 °C 91 % 1003,6 hPa 0,0 mm 3,7 km/h (1 Bft) S-SW 198 ° 0 min 0,000 mm 0,0 UV-I 0 W/m² 1,5 °C 2,8 °C 6,4 km/h (2 Bft)
15.11.2019 19:32 2,8 °C 91 % 1003,6 hPa 0,0 mm 0,9 km/h (0 Bft) S-SW 198 ° 0 min 0,000 mm 0,0 UV-I 0 W/m² 1,5 °C 2,8 °C 3,2 km/h (1 Bft)
15.11.2019 19:33 2,8 °C 91 % 1003,6 hPa 0,0 mm 3,2 km/h (1 Bft) S 182 ° 0 min 0,000 mm 0,0 UV-I 0 W/m² 1,5 °C 2,8 °C 6,4 km/h (2 Bft)
15.11.2019 19:34 2,8 °C 91 % 1003,5 hPa 0,0 mm 1,9 km/h (1 Bft) S 182 ° 0 min 0,000 mm 0,0 UV-I 0 W/m² 1,5 °C 2,8 °C 3,2 km/h (1 Bft)
15.11.2019 19:35 2,8 °C 91 % 1003,5 hPa 0,0 mm 0,9 km/h (0 Bft) S 182 ° 0 min 0,000 mm 0,0 UV-I 0 W/m² 1,5 °C 2,8 °C 3,2 km/h (1 Bft)
15.11.2019 19:36 2,8 °C 91 % 1003,5 hPa 0,2 mm 1,5 km/h (1 Bft) S 182 ° 0 min 0,000 mm 0,0 UV-I 0 W/m² 1,5 °C 2,8 °C 3,2 km/h (1 Bft)
15.11.2019 19:37 2,8 °C 91 % 1003,5 hPa 0,0 mm 4,0 km/h (1 Bft) S 190 ° 0 min 0,000 mm 0,0 UV-I 0 W/m² 1,5 °C 2,8 °C 6,4 km/h (2 Bft)
15.11.2019 19:38 2,8 °C 91 % 1003,5 hPa 0,0 mm 2,9 km/h (1 Bft) S 190 ° 0 min 0,000 mm 0,0 UV-I 0 W/m² 1,5 °C 2,8 °C 4,8 km/h (1 Bft)
15.11.2019 19:39 2,8 °C 91 % 1003,6 hPa 0,0 mm 2,9 km/h (1 Bft) S 180 ° 0 min 0,000 mm 0,0 UV-I 0 W/m² 1,5 °C 2,8 °C 6,4 km/h (2 Bft)
15.11.2019 19:40 2,8 °C 91 % 1003,6 hPa 0,0 mm 3,5 km/h (1 Bft) S-SW 210 ° 0 min 0,000 mm 0,0 UV-I 0 W/m² 1,5 °C 2,8 °C 4,8 km/h (1 Bft)
15.11.2019 19:41 2,7 °C 91 % 1003,6 hPa 0,0 mm 4,2 km/h (1 Bft) S-SW 209 ° 0 min 0,000 mm 0,0 UV-I 0 W/m² 1,4 °C 2,7 °C 6,4 km/h (2 Bft)
15.11.2019 19:42 2,7 °C 91 % 1003,7 hPa 0,0 mm 3,9 km/h (1 Bft) S-SW 206 ° 0 min 0,000 mm 0,0 UV-I 0 W/m² 1,4 °C 2,7 °C 6,4 km/h (2 Bft)
15.11.2019 19:43 2,7 °C 91 % 1003,8 hPa 0,0 mm 3,6 km/h (1 Bft) SW 215 ° 0 min 0,000 mm 0,0 UV-I 0 W/m² 1,4 °C 2,7 °C 6,4 km/h (2 Bft)
15.11.2019 19:44 2,7 °C 91 % 1003,8 hPa 0,2 mm 3,2 km/h (1 Bft) S-SW 213 ° 0 min 0,000 mm 0,0 UV-I 0 W/m² 1,4 °C 2,7 °C 4,8 km/h (1 Bft)
15.11.2019 19:45 2,6 °C 91 % 1003,8 hPa 0,0 mm 0,1 km/h (0 Bft) S-SW 213 ° 0 min 0,000 mm 0,0 UV-I 0 W/m² 1,3 °C 2,6 °C 1,6 km/h (1 Bft)
15.11.2019 19:46 2,7 °C 91 % 1003,8 hPa 0,0 mm 0,0 km/h (0 Bft) S-SW 213 ° 0 min 0,000 mm 0,0 UV-I 0 W/m² 1,4 °C 2,7 °C 0,0 km/h (0 Bft)
15.11.2019 19:47 2,6 °C 91 % 1003,8 hPa 0,0 mm 1,0 km/h (0 Bft) S-SW 213 ° 0 min 0,000 mm 0,0 UV-I 0 W/m² 1,3 °C 2,6 °C 3,2 km/h (1 Bft)
15.11.2019 19:48 2,6 °C 91 % 1003,7 hPa 0,0 mm 3,4 km/h (1 Bft) W 261 ° 0 min 0,000 mm 0,0 UV-I 0 W/m² 1,3 °C 2,6 °C 6,4 km/h (2 Bft)
15.11.2019 19:49 2,6 °C 91 % 1003,6 hPa 0,0 mm 2,3 km/h (1 Bft) S-SW 211 ° 0 min 0,000 mm 0,0 UV-I 0 W/m² 1,3 °C 2,6 °C 4,8 km/h (1 Bft)
15.11.2019 19:50 2,6 °C 91 % 1003,6 hPa 0,2 mm 0,5 km/h (0 Bft) S-SW 211 ° 0 min 0,000 mm 0,0 UV-I 0 W/m² 1,3 °C 2,6 °C 3,2 km/h (1 Bft)
15.11.2019 19:51 2,6 °C 91 % 1003,5 hPa 0,0 mm 0,0 km/h (0 Bft) S-SW 211 ° 0 min 0,000 mm 0,0 UV-I 0 W/m² 1,3 °C 2,6 °C 0,0 km/h (0 Bft)
15.11.2019 19:52 2,6 °C 91 % 1003,2 hPa 0,0 mm 0,0 km/h (0 Bft) S-SW 211 ° 0 min 0,000 mm 0,0 UV-I 0 W/m² 1,3 °C 2,6 °C 0,0 km/h (0 Bft)
15.11.2019 19:53 2,6 °C 91 % 1003,0 hPa 0,0 mm 0,0 km/h (0 Bft) S-SW 211 ° 0 min 0,000 mm 0,0 UV-I 0 W/m² 1,3 °C 2,6 °C 0,0 km/h (0 Bft)
15.11.2019 19:54 2,6 °C 91 % 1002,8 hPa 0,0 mm 0,0 km/h (0 Bft) S-SW 211 ° 0 min 0,000 mm 0,0 UV-I 0 W/m² 1,3 °C 2,6 °C 0,0 km/h (0 Bft)
15.11.2019 19:55 2,6 °C 91 % 1002,7 hPa 0,2 mm 0,0 km/h (0 Bft) S-SW 211 ° 0 min 0,000 mm 0,0 UV-I 0 W/m² 1,3 °C 2,6 °C 0,0 km/h (0 Bft)
15.11.2019 19:56 2,5 °C 91 % 1002,6 hPa 0,0 mm 0,2 km/h (0 Bft) S-SW 211 ° 0 min 0,000 mm 0,0 UV-I 0 W/m² 1,2 °C 2,5 °C 1,6 km/h (1 Bft)
15.11.2019 19:57 2,5 °C 91 % 1002,7 hPa 0,0 mm 3,8 km/h (1 Bft) S-SW 210 ° 0 min 0,000 mm 0,0 UV-I 0 W/m² 1,2 °C 2,5 °C 4,8 km/h (1 Bft)
15.11.2019 19:58 2,4 °C 91 % 1002,9 hPa 0,0 mm 4,2 km/h (1 Bft) S 181 ° 0 min 0,000 mm 0,0 UV-I 0 W/m² 1,1 °C 2,4 °C 4,8 km/h (1 Bft)
15.11.2019 19:59 2,4 °C 91 % 1003,0 hPa 0,0 mm 2,1 km/h (1 Bft) S-SW 192 ° 0 min 0,000 mm 0,0 UV-I 0 W/m² 1,1 °C 2,4 °C 3,2 km/h (1 Bft)
15.11.2019 20:00 2,4 °C 91 % 1003,1 hPa 0,2 mm 0,0 km/h (0 Bft) S-SW 192 ° 0 min 0,000 mm 0,0 UV-I 0 W/m² 1,1 °C 2,4 °C 0,0 km/h (0 Bft)
15.11.2019 20:01 2,4 °C 91 % 1002,9 hPa 0,0 mm 0,0 km/h (0 Bft) S-SW 192 ° 0 min 0,000 mm 0,0 UV-I 0 W/m² 1,1 °C 2,4 °C 0,0 km/h (0 Bft)
15.11.2019 20:02 2,4 °C 91 % 1002,8 hPa 0,0 mm 0,0 km/h (0 Bft) S-SW 192 ° 0 min 0,000 mm 0,0 UV-I 0 W/m² 1,1 °C 2,4 °C 0,0 km/h (0 Bft)
15.11.2019 20:03 2,4 °C 91 % 1002,6 hPa 0,0 mm 0,0 km/h (0 Bft) S-SW 192 ° 0 min 0,000 mm 0,0 UV-I 0 W/m² 1,1 °C 2,4 °C 0,0 km/h (0 Bft)
15.11.2019 20:04 2,4 °C 91 % 1002,5 hPa 0,0 mm 0,0 km/h (0 Bft) S-SW 192 ° 0 min 0,000 mm 0,0 UV-I 0 W/m² 1,1 °C 2,4 °C 0,0 km/h (0 Bft)
15.11.2019 20:05 2,4 °C 91 % 1002,4 hPa 0,2 mm 0,0 km/h (0 Bft) S-SW 192 ° 0 min 0,000 mm 0,0 UV-I 0 W/m² 1,1 °C 2,4 °C 0,0 km/h (0 Bft)
15.11.2019 20:06 2,4 °C 91 % 1002,5 hPa 0,0 mm 3,3 km/h (1 Bft) S-SW 192 ° 0 min 0,000 mm 0,0 UV-I 0 W/m² 1,1 °C 2,4 °C 4,8 km/h (1 Bft)
15.11.2019 20:07 2,3 °C 91 % 1002,5 hPa 0,0 mm 1,9 km/h (1 Bft) S-SW 192 ° 0 min 0,000 mm 0,0 UV-I 0 W/m² 1,0 °C 2,3 °C 3,2 km/h (1 Bft)
15.11.2019 20:08 2,3 °C 91 % 1002,6 hPa 0,0 mm 2,6 km/h (1 Bft) S-SW 192 ° 0 min 0,000 mm 0,0 UV-I 0 W/m² 1,0 °C 2,3 °C 3,2 km/h (1 Bft)
15.11.2019 20:09 2,3 °C 91 % 1002,6 hPa 0,0 mm 1,0 km/h (0 Bft) S-SW 192 ° 0 min 0,000 mm 0,0 UV-I 0 W/m² 1,0 °C 2,3 °C 3,2 km/h (1 Bft)
15.11.2019 20:10 2,3 °C 92 % 1002,5 hPa 0,2 mm 0,0 km/h (0 Bft) S-SW 192 ° 0 min 0,000 mm 0,0 UV-I 0 W/m² 1,1 °C 2,3 °C 0,0 km/h (0 Bft)
15.11.2019 20:11 2,3 °C 92 % 1002,4 hPa 0,0 mm 0,1 km/h (0 Bft) S-SW 192 ° 0 min 0,000 mm 0,0 UV-I 0 W/m² 1,1 °C 2,3 °C 1,6 km/h (1 Bft)
15.11.2019 20:12 2,3 °C 92 % 1002,4 hPa 0,0 mm 3,3 km/h (1 Bft) S-SW 192 ° 0 min 0,000 mm 0,0 UV-I 0 W/m² 1,1 °C 2,3 °C 4,8 km/h (1 Bft)
15.11.2019 20:13 2,3 °C 91 % 1002,4 hPa 0,0 mm 3,6 km/h (1 Bft) S 190 ° 0 min 0,000 mm 0,0 UV-I 0 W/m² 1,0 °C 2,3 °C 4,8 km/h (1 Bft)
15.11.2019 20:14 2,3 °C 92 % 1002,5 hPa 0,0 mm 3,1 km/h (1 Bft) S 190 ° 0 min 0,000 mm 0,0 UV-I 0 W/m² 1,1 °C 2,3 °C 4,8 km/h (1 Bft)
15.11.2019 20:15 2,3 °C 91 % 1002,5 hPa 0,0 mm 1,7 km/h (1 Bft) S 190 ° 0 min 0,000 mm 0,0 UV-I 0 W/m² 1,0 °C 2,3 °C 3,2 km/h (1 Bft)
15.11.2019 20:16 2,3 °C 91 % 1002,4 hPa 0,2 mm 0,5 km/h (0 Bft) S 190 ° 0 min 0,000 mm 0,0 UV-I 0 W/m² 1,0 °C 2,3 °C 1,6 km/h (1 Bft)
15.11.2019 20:17 2,3 °C 91 % 1002,4 hPa 0,0 mm 0,1 km/h (0 Bft) S 190 ° 0 min 0,000 mm 0,0 UV-I 0 W/m² 1,0 °C 2,3 °C 1,6 km/h (1 Bft)
15.11.2019 20:18 2,3 °C 91 % 1002,3 hPa 0,0 mm 0,0 km/h (0 Bft) S 190 ° 0 min 0,000 mm 0,0 UV-I 0 W/m² 1,0 °C 2,3 °C 0,0 km/h (0 Bft)
15.11.2019 20:19 2,2 °C 91 % 1002,2 hPa 0,2 mm 1,3 km/h (1 Bft) S 190 ° 0 min 0,000 mm 0,0 UV-I 0 W/m² 0,9 °C 2,2 °C 3,2 km/h (1 Bft)
15.11.2019 20:20 2,2 °C 91 % 1002,3 hPa 0,0 mm 2,2 km/h (1 Bft) S 191 ° 0 min 0,000 mm 0,0 UV-I 0 W/m² 0,9 °C 2,2 °C 3,2 km/h (1 Bft)
15.11.2019 20:21 2,2 °C 91 % 1002,4 hPa 0,0 mm 0,0 km/h (0 Bft) S 191 ° 0 min 0,000 mm 0,0 UV-I 0 W/m² 0,9 °C 2,2 °C 0,0 km/h (0 Bft)
15.11.2019 20:22 2,2 °C 91 % 1002,6 hPa 0,0 mm 0,0 km/h (0 Bft) S 191 ° 0 min 0,000 mm 0,0 UV-I 0 W/m² 0,9 °C 2,2 °C 0,0 km/h (0 Bft)
15.11.2019 20:23 2,2 °C 91 % 1002,7 hPa 0,0 mm 0,0 km/h (0 Bft) S 191 ° 0 min 0,000 mm 0,0 UV-I 0 W/m² 0,9 °C 2,2 °C 0,0 km/h (0 Bft)
15.11.2019 20:24 2,2 °C 92 % 1002,7 hPa 0,2 mm 0,0 km/h (0 Bft) S 191 ° 0 min 0,000 mm 0,0 UV-I 0 W/m² 1,0 °C 2,2 °C 0,0 km/h (0 Bft)
15.11.2019 20:25 2,2 °C 92 % 1002,5 hPa 0,0 mm 0,0 km/h (0 Bft) S 191 ° 0 min 0,000 mm 0,0 UV-I 0 W/m² 1,0 °C 2,2 °C 0,0 km/h (0 Bft)
15.11.2019 20:26 2,2 °C 92 % 1002,4 hPa 0,0 mm 0,0 km/h (0 Bft) S 191 ° 0 min 0,000 mm 0,0 UV-I 0 W/m² 1,0 °C 2,2 °C 0,0 km/h (0 Bft)
15.11.2019 20:27 2,1 °C 92 % 1002,4 hPa 0,0 mm 0,0 km/h (0 Bft) S 191 ° 0 min 0,000 mm 0,0 UV-I 0 W/m² 0,9 °C 2,1 °C 0,0 km/h (0 Bft)
15.11.2019 20:28 2,1 °C 92 % 1002,2 hPa 0,0 mm 0,0 km/h (0 Bft) S 191 ° 0 min 0,000 mm 0,0 UV-I 0 W/m² 0,9 °C 2,1 °C 0,0 km/h (0 Bft)
15.11.2019 20:29 2,1 °C 92 % 1002,2 hPa 0,2 mm 0,0 km/h (0 Bft) S 191 ° 0 min 0,000 mm 0,0 UV-I 0 W/m² 0,9 °C 2,1 °C 0,0 km/h (0 Bft)
15.11.2019 20:30 2,1 °C 92 % 1002,2 hPa 0,0 mm 1,9 km/h (1 Bft) S 191 ° 0 min 0,000 mm 0,0 UV-I 0 W/m² 0,9 °C 2,1 °C 3,2 km/h (1 Bft)
15.11.2019 20:31 2,1 °C 92 % 1002,3 hPa 0,0 mm 2,1 km/h (1 Bft) S 191 ° 0 min 0,000 mm 0,0 UV-I 0 W/m² 0,9 °C 2,1 °C 3,2 km/h (1 Bft)
15.11.2019 20:32 2,1 °C 92 % 1002,3 hPa 0,0 mm 2,7 km/h (1 Bft) S 190 ° 0 min 0,000 mm 0,0 UV-I 0 W/m² 0,9 °C 2,1 °C 3,2 km/h (1 Bft)
15.11.2019 20:33 2,0 °C 92 % 1002,4 hPa 0,0 mm 2,7 km/h (1 Bft) S 190 ° 0 min 0,000 mm 0,0 UV-I 0 W/m² 0,8 °C 2,0 °C 3,2 km/h (1 Bft)
15.11.2019 20:34 1,9 °C 92 % 1002,4 hPa 0,0 mm 1,8 km/h (1 Bft) S 190 ° 0 min 0,000 mm 0,0 UV-I 0 W/m² 0,7 °C 1,9 °C 3,2 km/h (1 Bft)
15.11.2019 20:35 1,9 °C 92 % 1002,4 hPa 0,0 mm 1,9 km/h (1 Bft) S 190 ° 0 min 0,000 mm 0,0 UV-I 0 W/m² 0,7 °C 1,9 °C 3,2 km/h (1 Bft)
15.11.2019 20:36 1,9 °C 92 % 1002,4 hPa 0,0 mm 0,2 km/h (0 Bft) S 190 ° 0 min 0,000 mm 0,0 UV-I 0 W/m² 0,7 °C 1,9 °C 1,6 km/h (1 Bft)
15.11.2019 20:37 1,9 °C 92 % 1002,4 hPa 0,0 mm 0,0 km/h (0 Bft) S 190 ° 0 min 0,000 mm 0,0 UV-I 0 W/m² 0,7 °C 1,9 °C 0,0 km/h (0 Bft)
15.11.2019 20:38 1,9 °C 92 % 1002,4 hPa 0,0 mm 1,0 km/h (0 Bft) S 190 ° 0 min 0,000 mm 0,0 UV-I 0 W/m² 0,7 °C 1,9 °C 3,2 km/h (1 Bft)
15.11.2019 20:39 1,9 °C 92 % 1002,3 hPa 0,0 mm 2,3 km/h (1 Bft) S 190 ° 0 min 0,000 mm 0,0 UV-I 0 W/m² 0,7 °C 1,9 °C 3,2 km/h (1 Bft)
15.11.2019 20:40 1,9 °C 92 % 1002,2 hPa 0,2 mm 1,4 km/h (1 Bft) S 190 ° 0 min 0,000 mm 0,0 UV-I 0 W/m² 0,7 °C 1,9 °C 3,2 km/h (1 Bft)
15.11.2019 20:41 1,9 °C 92 % 1002,1 hPa 0,0 mm 0,3 km/h (0 Bft) S 190 ° 0 min 0,000 mm 0,0 UV-I 0 W/m² 0,7 °C 1,9 °C 1,6 km/h (1 Bft)
15.11.2019 20:42 1,9 °C 92 % 1002,0 hPa 0,0 mm 0,0 km/h (0 Bft) S 190 ° 0 min 0,000 mm 0,0 UV-I 0 W/m² 0,7 °C 1,9 °C 0,0 km/h (0 Bft)
15.11.2019 20:43 1,9 °C 92 % 1001,9 hPa 0,0 mm 0,0 km/h (0 Bft) S 190 ° 0 min 0,000 mm 0,0 UV-I 0 W/m² 0,7 °C 1,9 °C 0,0 km/h (0 Bft)
15.11.2019 20:44 1,8 °C 92 % 1001,9 hPa 0,0 mm 0,0 km/h (0 Bft) S 190 ° 0 min 0,000 mm 0,0 UV-I 0 W/m² 0,6 °C 1,8 °C 0,0 km/h (0 Bft)
15.11.2019 20:45 1,8 °C 92 % 1001,8 hPa 0,0 mm 1,0 km/h (0 Bft) S 191 ° 0 min 0,000 mm 0,0 UV-I 0 W/m² 0,6 °C 1,8 °C 3,2 km/h (1 Bft)
15.11.2019 20:46 1,8 °C 92 % 1001,7 hPa 0,0 mm 3,8 km/h (1 Bft) S 190 ° 0 min 0,000 mm 0,0 UV-I 0 W/m² 0,6 °C 1,8 °C 6,4 km/h (2 Bft)
15.11.2019 20:47 1,8 °C 92 % 1001,8 hPa 0,0 mm 6,0 km/h (2 Bft) S 184 ° 0 min 0,000 mm 0,0 UV-I 0 W/m² 0,6 °C 0,0 °C 11,3 km/h (2 Bft)
15.11.2019 20:48 1,8 °C 92 % 1002,0 hPa 0,0 mm 6,3 km/h (2 Bft) S-SO 163 ° 0 min 0,000 mm 0,0 UV-I 0 W/m² 0,6 °C -0,1 °C 9,7 km/h (2 Bft)
15.11.2019 20:49 1,8 °C 92 % 1002,0 hPa 0,0 mm 3,9 km/h (1 Bft) SO 139 ° 0 min 0,000 mm 0,0 UV-I 0 W/m² 0,6 °C 1,8 °C 8,0 km/h (2 Bft)
15.11.2019 20:50 1,8 °C 92 % 1002,1 hPa 0,0 mm 1,0 km/h (0 Bft) SO 139 ° 0 min 0,000 mm 0,0 UV-I 0 W/m² 0,6 °C 1,8 °C 3,2 km/h (1 Bft)
15.11.2019 20:51 1,8 °C 92 % 1002,1 hPa 0,0 mm 0,7 km/h (0 Bft) SO 139 ° 0 min 0,000 mm 0,0 UV-I 0 W/m² 0,6 °C 1,8 °C 1,6 km/h (1 Bft)
15.11.2019 20:52 1,8 °C 92 % 1002,0 hPa 0,0 mm 1,7 km/h (1 Bft) SO 139 ° 0 min 0,000 mm 0,0 UV-I 0 W/m² 0,6 °C 1,8 °C 3,2 km/h (1 Bft)
15.11.2019 20:53 1,8 °C 92 % 1002,1 hPa 0,0 mm 0,5 km/h (0 Bft) SO 139 ° 0 min 0,000 mm 0,0 UV-I 0 W/m² 0,6 °C 1,8 °C 3,2 km/h (1 Bft)
15.11.2019 20:54 1,7 °C 92 % 1002,1 hPa 0,0 mm 0,0 km/h (0 Bft) SO 139 ° 0 min 0,000 mm 0,0 UV-I 0 W/m² 0,5 °C 1,7 °C 0,0 km/h (0 Bft)
15.11.2019 20:55 1,7 °C 92 % 1002,1 hPa 0,0 mm 0,4 km/h (0 Bft) SO 139 ° 0 min 0,000 mm 0,0 UV-I 0 W/m² 0,5 °C 1,7 °C 1,6 km/h (1 Bft)
15.11.2019 20:56 1,7 °C 92 % 1002,1 hPa 0,0 mm 0,1 km/h (0 Bft) SO 139 ° 0 min 0,000 mm 0,0 UV-I 0 W/m² 0,5 °C 1,7 °C 1,6 km/h (1 Bft)
15.11.2019 20:57 1,7 °C 92 % 1002,2 hPa 0,0 mm 0,0 km/h (0 Bft) SO 139 ° 0 min 0,000 mm 0,0 UV-I 0 W/m² 0,5 °C 1,7 °C 0,0 km/h (0 Bft)
15.11.2019 20:58 1,7 °C 92 % 1002,2 hPa 0,0 mm 0,0 km/h (0 Bft) SO 139 ° 0 min 0,000 mm 0,0 UV-I 0 W/m² 0,5 °C 1,7 °C 0,0 km/h (0 Bft)
15.11.2019 20:59 1,7 °C 92 % 1002,2 hPa 0,0 mm 0,0 km/h (0 Bft) SO 139 ° 0 min 0,000 mm 0,0 UV-I 0 W/m² 0,5 °C 1,7 °C 0,0 km/h (0 Bft)
15.11.2019 21:00 1,7 °C 92 % 1002,2 hPa 0,0 mm 0,0 km/h (0 Bft) SO 139 ° 0 min 0,000 mm 0,0 UV-I 0 W/m² 0,5 °C 1,7 °C 0,0 km/h (0 Bft)
15.11.2019 21:01 1,7 °C 92 % 1002,3 hPa 0,0 mm 0,0 km/h (0 Bft) SO 139 ° 0 min 0,000 mm 0,0 UV-I 0 W/m² 0,5 °C 1,7 °C 0,0 km/h (0 Bft)
15.11.2019 21:02 1,7 °C 92 % 1002,3 hPa 0,0 mm 0,0 km/h (0 Bft) SO 139 ° 0 min 0,000 mm 0,0 UV-I 0 W/m² 0,5 °C 1,7 °C 0,0 km/h (0 Bft)
15.11.2019 21:03 1,7 °C 92 % 1002,3 hPa 0,0 mm 0,0 km/h (0 Bft) SO 139 ° 0 min 0,000 mm 0,0 UV-I 0 W/m² 0,5 °C 1,7 °C 0,0 km/h (0 Bft)
15.11.2019 21:04 1,7 °C 92 % 1002,3 hPa 0,0 mm 0,0 km/h (0 Bft) SO 139 ° 0 min 0,000 mm 0,0 UV-I 0 W/m² 0,5 °C 1,7 °C 0,0 km/h (0 Bft)
15.11.2019 21:05 1,7 °C 92 % 1002,4 hPa 0,0 mm 0,0 km/h (0 Bft) SO 139 ° 0 min 0,000 mm 0,0 UV-I 0 W/m² 0,5 °C 1,7 °C 0,0 km/h (0 Bft)
15.11.2019 21:06 1,6 °C 92 % 1002,4 hPa 0,0 mm 0,0 km/h (0 Bft) SO 139 ° 0 min 0,000 mm 0,0 UV-I 0 W/m² 0,4 °C 1,6 °C 0,0 km/h (0 Bft)
15.11.2019 21:07 1,6 °C 92 % 1002,4 hPa 0,0 mm 0,0 km/h (0 Bft) SO 139 ° 0 min 0,000 mm 0,0 UV-I 0 W/m² 0,4 °C 1,6 °C 0,0 km/h (0 Bft)
15.11.2019 21:08 1,6 °C 92 % 1002,4 hPa 0,0 mm 0,0 km/h (0 Bft) SO 139 ° 0 min 0,000 mm 0,0 UV-I 0 W/m² 0,4 °C 1,6 °C 0,0 km/h (0 Bft)
15.11.2019 21:09 1,6 °C 92 % 1002,5 hPa 0,0 mm 0,0 km/h (0 Bft) SO 139 ° 0 min 0,000 mm 0,0 UV-I 0 W/m² 0,4 °C 1,6 °C 0,0 km/h (0 Bft)
15.11.2019 21:10 1,6 °C 92 % 1002,5 hPa 0,2 mm 0,0 km/h (0 Bft) SO 139 ° 0 min 0,000 mm 0,0 UV-I 0 W/m² 0,4 °C 1,6 °C 0,0 km/h (0 Bft)
15.11.2019 21:11 1,6 °C 92 % 1002,5 hPa 0,0 mm 0,0 km/h (0 Bft) SO 139 ° 0 min 0,000 mm 0,0 UV-I 0 W/m² 0,4 °C 1,6 °C 0,0 km/h (0 Bft)
15.11.2019 21:12 1,6 °C 92 % 1002,4 hPa 0,0 mm 0,0 km/h (0 Bft) SO 139 ° 0 min 0,000 mm 0,0 UV-I 0 W/m² 0,4 °C 1,6 °C 0,0 km/h (0 Bft)
15.11.2019 21:13 1,6 °C 92 % 1002,4 hPa 0,0 mm 0,0 km/h (0 Bft) SO 139 ° 0 min 0,000 mm 0,0 UV-I 0 W/m² 0,4 °C 1,6 °C 0,0 km/h (0 Bft)
15.11.2019 21:14 1,6 °C 92 % 1002,4 hPa 0,0 mm 0,0 km/h (0 Bft) SO 139 ° 0 min 0,000 mm 0,0 UV-I 0 W/m² 0,4 °C 1,6 °C 0,0 km/h (0 Bft)
15.11.2019 21:15 1,6 °C 92 % 1002,4 hPa 0,0 mm 0,0 km/h (0 Bft) SO 139 ° 0 min 0,000 mm 0,0 UV-I 0 W/m² 0,4 °C 1,6 °C 0,0 km/h (0 Bft)
15.11.2019 21:16 1,6 °C 92 % 1002,4 hPa 0,0 mm 0,0 km/h (0 Bft) SO 139 ° 0 min 0,000 mm 0,0 UV-I 0 W/m² 0,4 °C 1,6 °C 0,0 km/h (0 Bft)
15.11.2019 21:17 1,6 °C 92 % 1002,4 hPa 0,0 mm 0,0 km/h (0 Bft) SO 139 ° 0 min 0,000 mm 0,0 UV-I 0 W/m² 0,4 °C 1,6 °C 0,0 km/h (0 Bft)
15.11.2019 21:18 1,6 °C 92 % 1002,4 hPa 0,0 mm 0,0 km/h (0 Bft) SO 139 ° 0 min 0,000 mm 0,0 UV-I 0 W/m² 0,4 °C 1,6 °C 0,0 km/h (0 Bft)
15.11.2019 21:19 1,6 °C 92 % 1002,3 hPa 0,0 mm 0,0 km/h (0 Bft) SO 139 ° 0 min 0,000 mm 0,0 UV-I 0 W/m² 0,4 °C 1,6 °C 0,0 km/h (0 Bft)
15.11.2019 21:20 1,6 °C 92 % 1002,3 hPa 0,0 mm 0,0 km/h (0 Bft) SO 139 ° 0 min 0,000 mm 0,0 UV-I 0 W/m² 0,4 °C 1,6 °C 0,0 km/h (0 Bft)
15.11.2019 21:21 1,6 °C 92 % 1002,4 hPa 0,0 mm 0,0 km/h (0 Bft) SO 139 ° 0 min 0,000 mm 0,0 UV-I 0 W/m² 0,4 °C 1,6 °C 0,0 km/h (0 Bft)
15.11.2019 21:22 1,6 °C 92 % 1002,4 hPa 0,0 mm 0,3 km/h (0 Bft) SO 139 ° 0 min 0,000 mm 0,0 UV-I 0 W/m² 0,4 °C 1,6 °C 1,6 km/h (1 Bft)
15.11.2019 21:23 1,6 °C 92 % 1002,5 hPa 0,0 mm 0,3 km/h (0 Bft) SO 139 ° 0 min 0,000 mm 0,0 UV-I 0 W/m² 0,4 °C 1,6 °C 1,6 km/h (1 Bft)
15.11.2019 21:24 1,6 °C 93 % 1002,4 hPa 0,0 mm 0,2 km/h (0 Bft) SO 139 ° 0 min 0,000 mm 0,0 UV-I 0 W/m² 0,6 °C 1,6 °C 1,6 km/h (1 Bft)
15.11.2019 21:25 1,6 °C 93 % 1002,5 hPa 0,0 mm 0,0 km/h (0 Bft) SO 139 ° 0 min 0,000 mm 0,0 UV-I 0 W/m² 0,6 °C 1,6 °C 0,0 km/h (0 Bft)
15.11.2019 21:26 1,5 °C 93 % 1002,4 hPa 0,0 mm 0,0 km/h (0 Bft) SO 139 ° 0 min 0,000 mm 0,0 UV-I 0 W/m² 0,5 °C 1,5 °C 0,0 km/h (0 Bft)
15.11.2019 21:27 1,6 °C 93 % 1002,4 hPa 0,0 mm 0,0 km/h (0 Bft) SO 139 ° 0 min 0,000 mm 0,0 UV-I 0 W/m² 0,6 °C 1,6 °C 0,0 km/h (0 Bft)
15.11.2019 21:28 1,6 °C 93 % 1002,4 hPa 0,0 mm 0,0 km/h (0 Bft) SO 139 ° 0 min 0,000 mm 0,0 UV-I 0 W/m² 0,6 °C 1,6 °C 0,0 km/h (0 Bft)
15.11.2019 21:29 1,6 °C 93 % 1002,4 hPa 0,0 mm 0,0 km/h (0 Bft) SO 139 ° 0 min 0,000 mm 0,0 UV-I 0 W/m² 0,6 °C 1,6 °C 0,0 km/h (0 Bft)
15.11.2019 21:30 1,6 °C 93 % 1002,3 hPa 0,0 mm 0,0 km/h (0 Bft) SO 139 ° 0 min 0,000 mm 0,0 UV-I 0 W/m² 0,6 °C 1,6 °C 0,0 km/h (0 Bft)
15.11.2019 21:31 1,5 °C 93 % 1002,3 hPa 0,0 mm 0,0 km/h (0 Bft) SO 139 ° 0 min 0,000 mm 0,0 UV-I 0 W/m² 0,5 °C 1,5 °C 0,0 km/h (0 Bft)
15.11.2019 21:32 1,6 °C 93 % 1002,3 hPa 0,0 mm 0,0 km/h (0 Bft) SO 139 ° 0 min 0,000 mm 0,0 UV-I 0 W/m² 0,6 °C 1,6 °C 0,0 km/h (0 Bft)
15.11.2019 21:33 1,6 °C 93 % 1002,3 hPa 0,0 mm 0,0 km/h (0 Bft) SO 139 ° 0 min 0,000 mm 0,0 UV-I 0 W/m² 0,6 °C 1,6 °C 0,0 km/h (0 Bft)
15.11.2019 21:34 1,5 °C 93 % 1002,3 hPa 0,0 mm 0,0 km/h (0 Bft) SO 139 ° 0 min 0,000 mm 0,0 UV-I 0 W/m² 0,5 °C 1,5 °C 0,0 km/h (0 Bft)
15.11.2019 21:35 1,6 °C 93 % 1002,3 hPa 0,0 mm 0,0 km/h (0 Bft) SO 139 ° 0 min 0,000 mm 0,0 UV-I 0 W/m² 0,6 °C 1,6 °C 0,0 km/h (0 Bft)
15.11.2019 21:36 1,5 °C 92 % 1002,3 hPa 0,0 mm 0,0 km/h (0 Bft) SO 139 ° 0 min 0,000 mm 0,0 UV-I 0 W/m² 0,3 °C 1,5 °C 0,0 km/h (0 Bft)
15.11.2019 21:37 1,5 °C 92 % 1002,3 hPa 0,0 mm 0,0 km/h (0 Bft) SO 139 ° 0 min 0,000 mm 0,0 UV-I 0 W/m² 0,3 °C 1,5 °C 0,0 km/h (0 Bft)
15.11.2019 21:38 1,5 °C 92 % 1002,3 hPa 0,0 mm 0,0 km/h (0 Bft) SO 139 ° 0 min 0,000 mm 0,0 UV-I 0 W/m² 0,3 °C 1,5 °C 0,0 km/h (0 Bft)
15.11.2019 21:39 1,5 °C 92 % 1002,3 hPa 0,0 mm 0,0 km/h (0 Bft) SO 139 ° 0 min 0,000 mm 0,0 UV-I 0 W/m² 0,3 °C 1,5 °C 0,0 km/h (0 Bft)
15.11.2019 21:40 1,5 °C 93 % 1002,3 hPa 0,0 mm 0,0 km/h (0 Bft) SO 139 ° 0 min 0,000 mm 0,0 UV-I 0 W/m² 0,5 °C 1,5 °C 0,0 km/h (0 Bft)
15.11.2019 21:41 1,4 °C 92 % 1002,3 hPa 0,0 mm 0,0 km/h (0 Bft) SO 139 ° 0 min 0,000 mm 0,0 UV-I 0 W/m² 0,2 °C 1,4 °C 0,0 km/h (0 Bft)
15.11.2019 21:42 1,4 °C 92 % 1002,3 hPa 0,0 mm 0,0 km/h (0 Bft) SO 139 ° 0 min 0,000 mm 0,0 UV-I 0 W/m² 0,2 °C 1,4 °C 0,0 km/h (0 Bft)
15.11.2019 21:43 1,5 °C 92 % 1002,2 hPa 0,0 mm 0,0 km/h (0 Bft) SO 139 ° 0 min 0,000 mm 0,0 UV-I 0 W/m² 0,3 °C 1,5 °C 0,0 km/h (0 Bft)
15.11.2019 21:44 1,4 °C 93 % 1002,4 hPa 0,0 mm 0,0 km/h (0 Bft) SO 139 ° 0 min 0,000 mm 0,0 UV-I 0 W/m² 0,4 °C 1,4 °C 0,0 km/h (0 Bft)
15.11.2019 21:45 1,4 °C 93 % 1002,4 hPa 0,0 mm 0,0 km/h (0 Bft) SO 139 ° 0 min 0,000 mm 0,0 UV-I 0 W/m² 0,4 °C 1,4 °C 0,0 km/h (0 Bft)
15.11.2019 21:46 1,4 °C 93 % 1002,4 hPa 0,0 mm 0,0 km/h (0 Bft) SO 139 ° 0 min 0,000 mm 0,0 UV-I 0 W/m² 0,4 °C 1,4 °C 0,0 km/h (0 Bft)
15.11.2019 21:47 1,5 °C 93 % 1002,4 hPa 0,2 mm 0,0 km/h (0 Bft) SO 139 ° 0 min 0,000 mm 0,0 UV-I 0 W/m² 0,5 °C 1,5 °C 0,0 km/h (0 Bft)
15.11.2019 21:48 1,4 °C 93 % 1002,4 hPa 0,0 mm 0,0 km/h (0 Bft) SO 139 ° 0 min 0,000 mm 0,0 UV-I 0 W/m² 0,4 °C 1,4 °C 0,0 km/h (0 Bft)
15.11.2019 21:49 1,5 °C 93 % 1002,4 hPa 0,0 mm 0,0 km/h (0 Bft) SO 139 ° 0 min 0,000 mm 0,0 UV-I 0 W/m² 0,5 °C 1,5 °C 0,0 km/h (0 Bft)
15.11.2019 21:50 1,4 °C 93 % 1002,4 hPa 0,0 mm 0,0 km/h (0 Bft) SO 139 ° 0 min 0,000 mm 0,0 UV-I 0 W/m² 0,4 °C 1,4 °C 0,0 km/h (0 Bft)
15.11.2019 21:51 1,4 °C 93 % 1002,5 hPa 0,0 mm 0,0 km/h (0 Bft) SO 139 ° 0 min 0,000 mm 0,0 UV-I 0 W/m² 0,4 °C 1,4 °C 0,0 km/h (0 Bft)
15.11.2019 21:52 1,4 °C 93 % 1002,5 hPa 0,0 mm 0,0 km/h (0 Bft) SO 139 ° 0 min 0,000 mm 0,0 UV-I 0 W/m² 0,4 °C 1,4 °C 0,0 km/h (0 Bft)
15.11.2019 21:53 1,4 °C 93 % 1002,4 hPa 0,0 mm 0,0 km/h (0 Bft) SO 139 ° 0 min 0,000 mm 0,0 UV-I 0 W/m² 0,4 °C 1,4 °C 0,0 km/h (0 Bft)
15.11.2019 21:54 1,4 °C 93 % 1002,3 hPa 0,0 mm 0,0 km/h (0 Bft) SO 139 ° 0 min 0,000 mm 0,0 UV-I 0 W/m² 0,4 °C 1,4 °C 0,0 km/h (0 Bft)
15.11.2019 21:55 1,4 °C 93 % 1002,3 hPa 0,0 mm 0,0 km/h (0 Bft) SO 139 ° 0 min 0,000 mm 0,0 UV-I 0 W/m² 0,4 °C 1,4 °C 0,0 km/h (0 Bft)
15.11.2019 21:56 1,4 °C 93 % 1002,3 hPa 0,0 mm 0,0 km/h (0 Bft) SO 139 ° 0 min 0,000 mm 0,0 UV-I 0 W/m² 0,4 °C 1,4 °C 0,0 km/h (0 Bft)
15.11.2019 21:57 1,4 °C 93 % 1002,4 hPa 0,0 mm 0,0 km/h (0 Bft) SO 139 ° 0 min 0,000 mm 0,0 UV-I 0 W/m² 0,4 °C 1,4 °C 0,0 km/h (0 Bft)
15.11.2019 21:58 1,4 °C 93 % 1002,5 hPa 0,0 mm 0,0 km/h (0 Bft) SO 139 ° 0 min 0,000 mm 0,0 UV-I 0 W/m² 0,4 °C 1,4 °C 0,0 km/h (0 Bft)
15.11.2019 21:59 1,4 °C 93 % 1002,5 hPa 0,0 mm 0,0 km/h (0 Bft) SO 139 ° 0 min 0,000 mm 0,0 UV-I 0 W/m² 0,4 °C 1,4 °C 0,0 km/h (0 Bft)
15.11.2019 22:00 1,4 °C 93 % 1002,5 hPa 0,0 mm 0,0 km/h (0 Bft) SO 139 ° 0 min 0,000 mm 0,0 UV-I 0 W/m² 0,4 °C 1,4 °C 0,0 km/h (0 Bft)
15.11.2019 22:01 1,5 °C 93 % 1002,5 hPa 0,0 mm 0,0 km/h (0 Bft) SO 139 ° 0 min 0,000 mm 0,0 UV-I 0 W/m² 0,5 °C 1,5 °C 0,0 km/h (0 Bft)
15.11.2019 22:02 1,4 °C 93 % 1002,5 hPa 0,0 mm 0,0 km/h (0 Bft) SO 139 ° 0 min 0,000 mm 0,0 UV-I 0 W/m² 0,4 °C 1,4 °C 0,0 km/h (0 Bft)
15.11.2019 22:03 1,4 °C 93 % 1002,5 hPa 0,0 mm 0,0 km/h (0 Bft) SO 139 ° 0 min 0,000 mm 0,0 UV-I 0 W/m² 0,4 °C 1,4 °C 0,0 km/h (0 Bft)
15.11.2019 22:04 1,4 °C 93 % 1002,5 hPa 0,0 mm 0,0 km/h (0 Bft) SO 139 ° 0 min 0,000 mm 0,0 UV-I 0 W/m² 0,4 °C 1,4 °C 0,0 km/h (0 Bft)
15.11.2019 22:05 1,4 °C 93 % 1002,5 hPa 0,0 mm 0,0 km/h (0 Bft) SO 139 ° 0 min 0,000 mm 0,0 UV-I 0 W/m² 0,4 °C 1,4 °C 0,0 km/h (0 Bft)
15.11.2019 22:06 1,4 °C 93 % 1002,5 hPa 0,0 mm 0,0 km/h (0 Bft) SO 139 ° 0 min 0,000 mm 0,0 UV-I 0 W/m² 0,4 °C 1,4 °C 0,0 km/h (0 Bft)
15.11.2019 22:07 1,4 °C 93 % 1002,6 hPa 0,0 mm 0,0 km/h (0 Bft) SO 139 ° 0 min 0,000 mm 0,0 UV-I 0 W/m² 0,4 °C 1,4 °C 0,0 km/h (0 Bft)
15.11.2019 22:08 1,4 °C 93 % 1002,6 hPa 0,0 mm 0,0 km/h (0 Bft) SO 139 ° 0 min 0,000 mm 0,0 UV-I 0 W/m² 0,4 °C 1,4 °C 0,0 km/h (0 Bft)
15.11.2019 22:09 1,4 °C 93 % 1002,6 hPa 0,0 mm 0,0 km/h (0 Bft) SO 139 ° 0 min 0,000 mm 0,0 UV-I 0 W/m² 0,4 °C 1,4 °C 0,0 km/h (0 Bft)
15.11.2019 22:10 1,4 °C 93 % 1002,7 hPa 0,0 mm 0,0 km/h (0 Bft) SO 139 ° 0 min 0,000 mm 0,0 UV-I 0 W/m² 0,4 °C 1,4 °C 0,0 km/h (0 Bft)
15.11.2019 22:11 1,4 °C 93 % 1002,7 hPa 0,0 mm 0,0 km/h (0 Bft) SO 139 ° 0 min 0,000 mm 0,0 UV-I 0 W/m² 0,4 °C 1,4 °C 0,0 km/h (0 Bft)
15.11.2019 22:12 1,4 °C 93 % 1002,7 hPa 0,0 mm 0,0 km/h (0 Bft) SO 139 ° 0 min 0,000 mm 0,0 UV-I 0 W/m² 0,4 °C 1,4 °C 0,0 km/h (0 Bft)
15.11.2019 22:13 1,4 °C 93 % 1002,7 hPa 0,0 mm 0,0 km/h (0 Bft) SO 139 ° 0 min 0,000 mm 0,0 UV-I 0 W/m² 0,4 °C 1,4 °C 0,0 km/h (0 Bft)
15.11.2019 22:14 1,4 °C 93 % 1002,6 hPa 0,0 mm 0,0 km/h (0 Bft) SO 139 ° 0 min 0,000 mm 0,0 UV-I 0 W/m² 0,4 °C 1,4 °C 0,0 km/h (0 Bft)
15.11.2019 22:15 1,4 °C 93 % 1002,7 hPa 0,0 mm 0,0 km/h (0 Bft) SO 139 ° 0 min 0,000 mm 0,0 UV-I 0 W/m² 0,4 °C 1,4 °C 0,0 km/h (0 Bft)
15.11.2019 22:16 1,4 °C 93 % 1002,6 hPa 0,0 mm 0,0 km/h (0 Bft) SO 139 ° 0 min 0,000 mm 0,0 UV-I 0 W/m² 0,4 °C 1,4 °C 0,0 km/h (0 Bft)
15.11.2019 22:17 1,4 °C 93 % 1002,7 hPa 0,0 mm 1,7 km/h (1 Bft) SO 140 ° 0 min 0,000 mm 0,0 UV-I 0 W/m² 0,4 °C 1,4 °C 3,2 km/h (1 Bft)
15.11.2019 22:18 1,4 °C 93 % 1002,6 hPa 0,0 mm 2,2 km/h (1 Bft) SO 140 ° 0 min 0,000 mm 0,0 UV-I 0 W/m² 0,4 °C 1,4 °C 4,8 km/h (1 Bft)
15.11.2019 22:19 1,5 °C 93 % 1002,6 hPa 0,0 mm 1,1 km/h (1 Bft) SO 140 ° 0 min 0,000 mm 0,0 UV-I 0 W/m² 0,5 °C 1,5 °C 3,2 km/h (1 Bft)
15.11.2019 22:20 1,5 °C 93 % 1002,6 hPa 0,0 mm 0,7 km/h (0 Bft) SO 140 ° 0 min 0,000 mm 0,0 UV-I 0 W/m² 0,5 °C 1,5 °C 1,6 km/h (1 Bft)
15.11.2019 22:21 1,5 °C 93 % 1002,6 hPa 0,0 mm 2,7 km/h (1 Bft) S 191 ° 0 min 0,000 mm 0,0 UV-I 0 W/m² 0,5 °C 1,5 °C 3,2 km/h (1 Bft)
15.11.2019 22:22 1,5 °C 93 % 1002,6 hPa 0,0 mm 2,8 km/h (1 Bft) S-SW 200 ° 0 min 0,000 mm 0,0 UV-I 0 W/m² 0,5 °C 1,5 °C 4,8 km/h (1 Bft)
15.11.2019 22:23 1,5 °C 93 % 1002,6 hPa 0,0 mm 4,6 km/h (1 Bft) S-SW 205 ° 0 min 0,000 mm 0,0 UV-I 0 W/m² 0,5 °C 0,3 °C 6,4 km/h (2 Bft)
15.11.2019 22:24 1,6 °C 93 % 1002,7 hPa 0,2 mm 3,3 km/h (1 Bft) SW 216 ° 0 min 0,000 mm 0,0 UV-I 0 W/m² 0,6 °C 1,6 °C 4,8 km/h (1 Bft)
15.11.2019 22:25 1,6 °C 93 % 1002,7 hPa 0,0 mm 1,5 km/h (1 Bft) S-SW 209 ° 0 min 0,000 mm 0,0 UV-I 0 W/m² 0,6 °C 1,6 °C 3,2 km/h (1 Bft)
15.11.2019 22:26 1,6 °C 93 % 1002,6 hPa 0,0 mm 1,1 km/h (1 Bft) S-SW 209 ° 0 min 0,000 mm 0,0 UV-I 0 W/m² 0,6 °C 1,6 °C 3,2 km/h (1 Bft)
15.11.2019 22:27 1,6 °C 93 % 1002,6 hPa 0,0 mm 3,6 km/h (1 Bft) S-SW 204 ° 0 min 0,000 mm 0,0 UV-I 0 W/m² 0,6 °C 1,6 °C 4,8 km/h (1 Bft)
15.11.2019 22:28 1,5 °C 93 % 1002,5 hPa 0,0 mm 3,6 km/h (1 Bft) S-SW 205 ° 0 min 0,000 mm 0,0 UV-I 0 W/m² 0,5 °C 1,5 °C 4,8 km/h (1 Bft)
15.11.2019 22:29 1,5 °C 93 % 1002,4 hPa 0,0 mm 2,3 km/h (1 Bft) S-SW 205 ° 0 min 0,000 mm 0,0 UV-I 0 W/m² 0,5 °C 1,5 °C 4,8 km/h (1 Bft)
15.11.2019 22:30 1,6 °C 93 % 1002,3 hPa 0,0 mm 2,6 km/h (1 Bft) SW 219 ° 0 min 0,000 mm 0,0 UV-I 0 W/m² 0,6 °C 1,6 °C 4,8 km/h (1 Bft)
15.11.2019 22:31 1,6 °C 93 % 1002,3 hPa 0,0 mm 2,3 km/h (1 Bft) SW 219 ° 0 min 0,000 mm 0,0 UV-I 0 W/m² 0,6 °C 1,6 °C 4,8 km/h (1 Bft)
15.11.2019 22:32 1,6 °C 93 % 1002,3 hPa 0,0 mm 4,2 km/h (1 Bft) S-SW 195 ° 0 min 0,000 mm 0,0 UV-I 0 W/m² 0,6 °C 1,6 °C 6,4 km/h (2 Bft)
15.11.2019 22:33 1,6 °C 93 % 1002,4 hPa 0,0 mm 6,6 km/h (2 Bft) S 182 ° 0 min 0,000 mm 0,0 UV-I 0 W/m² 0,6 °C -0,4 °C 8,0 km/h (2 Bft)
15.11.2019 22:34 1,6 °C 93 % 1002,4 hPa 0,0 mm 4,8 km/h (1 Bft) S 180 ° 0 min 0,000 mm 0,0 UV-I 0 W/m² 0,6 °C 0,3 °C 8,0 km/h (2 Bft)
15.11.2019 22:35 1,6 °C 93 % 1002,4 hPa 0,0 mm 4,7 km/h (1 Bft) S-SW 198 ° 0 min 0,000 mm 0,0 UV-I 0 W/m² 0,6 °C 0,4 °C 6,4 km/h (2 Bft)
15.11.2019 22:36 1,6 °C 93 % 1002,4 hPa 0,0 mm 4,8 km/h (1 Bft) S 189 ° 0 min 0,000 mm 0,0 UV-I 0 W/m² 0,6 °C 0,3 °C 6,4 km/h (2 Bft)
15.11.2019 22:37 1,6 °C 93 % 1002,4 hPa 0,0 mm 2,6 km/h (1 Bft) S 182 ° 0 min 0,000 mm 0,0 UV-I 0 W/m² 0,6 °C 1,6 °C 4,8 km/h (1 Bft)
15.11.2019 22:38 1,6 °C 93 % 1002,4 hPa 0,0 mm 1,9 km/h (1 Bft) S 182 ° 0 min 0,000 mm 0,0 UV-I 0 W/m² 0,6 °C 1,6 °C 3,2 km/h (1 Bft)
15.11.2019 22:39 1,6 °C 93 % 1002,4 hPa 0,0 mm 2,1 km/h (1 Bft) S 182 ° 0 min 0,000 mm 0,0 UV-I 0 W/m² 0,6 °C 1,6 °C 3,2 km/h (1 Bft)
15.11.2019 22:40 1,6 °C 93 % 1002,4 hPa 0,0 mm 1,0 km/h (0 Bft) SW 221 ° 0 min 0,000 mm 0,0 UV-I 0 W/m² 0,6 °C 1,6 °C 3,2 km/h (1 Bft)
15.11.2019 22:41 1,6 °C 93 % 1002,4 hPa 0,0 mm 0,4 km/h (0 Bft) SW 221 ° 0 min 0,000 mm 0,0 UV-I 0 W/m² 0,6 °C 1,6 °C 1,6 km/h (1 Bft)
15.11.2019 22:42 1,6 °C 93 % 1002,4 hPa 0,0 mm 0,0 km/h (0 Bft) SW 221 ° 0 min 0,000 mm 0,0 UV-I 0 W/m² 0,6 °C 1,6 °C 0,0 km/h (0 Bft)
15.11.2019 22:43 1,6 °C 93 % 1002,4 hPa 0,0 mm 0,2 km/h (0 Bft) SW 221 ° 0 min 0,000 mm 0,0 UV-I 0 W/m² 0,6 °C 1,6 °C 1,6 km/h (1 Bft)
15.11.2019 22:44 1,6 °C 93 % 1002,5 hPa 0,0 mm 1,1 km/h (1 Bft) SW 221 ° 0 min 0,000 mm 0,0 UV-I 0 W/m² 0,6 °C 1,6 °C 1,6 km/h (1 Bft)
15.11.2019 22:45 1,6 °C 93 % 1002,4 hPa 0,0 mm 0,2 km/h (0 Bft) SW 221 ° 0 min 0,000 mm 0,0 UV-I 0 W/m² 0,6 °C 1,6 °C 1,6 km/h (1 Bft)
15.11.2019 22:46 1,6 °C 93 % 1002,4 hPa 0,0 mm 0,0 km/h (0 Bft) SW 221 ° 0 min 0,000 mm 0,0 UV-I 0 W/m² 0,6 °C 1,6 °C 0,0 km/h (0 Bft)
15.11.2019 22:47 1,6 °C 93 % 1002,3 hPa 0,0 mm 0,0 km/h (0 Bft) SW 221 ° 0 min 0,000 mm 0,0 UV-I 0 W/m² 0,6 °C 1,6 °C 0,0 km/h (0 Bft)
15.11.2019 22:48 1,6 °C 93 % 1002,3 hPa 0,0 mm 0,0 km/h (0 Bft) SW 221 ° 0 min 0,000 mm 0,0 UV-I 0 W/m² 0,6 °C 1,6 °C 0,0 km/h (0 Bft)
15.11.2019 22:49 1,6 °C 93 % 1002,3 hPa 0,0 mm 0,0 km/h (0 Bft) SW 221 ° 0 min 0,000 mm 0,0 UV-I 0 W/m² 0,6 °C 1,6 °C 0,0 km/h (0 Bft)
15.11.2019 22:50 1,6 °C 93 % 1002,2 hPa 0,0 mm 0,0 km/h (0 Bft) SW 221 ° 0 min 0,000 mm 0,0 UV-I 0 W/m² 0,6 °C 1,6 °C 0,0 km/h (0 Bft)
15.11.2019 22:51 1,6 °C 93 % 1002,2 hPa 0,0 mm 0,0 km/h (0 Bft) SW 221 ° 0 min 0,000 mm 0,0 UV-I 0 W/m² 0,6 °C 1,6 °C 0,0 km/h (0 Bft)
15.11.2019 22:52 1,6 °C 93 % 1002,1 hPa 0,0 mm 0,0 km/h (0 Bft) SW 221 ° 0 min 0,000 mm 0,0 UV-I 0 W/m² 0,6 °C 1,6 °C 0,0 km/h (0 Bft)
15.11.2019 22:53 1,6 °C 93 % 1002,1 hPa 0,0 mm 0,0 km/h (0 Bft) SW 221 ° 0 min 0,000 mm 0,0 UV-I 0 W/m² 0,6 °C 1,6 °C 0,0 km/h (0 Bft)
15.11.2019 22:54 1,6 °C 93 % 1002,1 hPa 0,0 mm 0,0 km/h (0 Bft) SW 221 ° 0 min 0,000 mm 0,0 UV-I 0 W/m² 0,6 °C 1,6 °C 0,0 km/h (0 Bft)
15.11.2019 22:55 1,6 °C 93 % 1002,1 hPa 0,0 mm 0,0 km/h (0 Bft) SW 221 ° 0 min 0,000 mm 0,0 UV-I 0 W/m² 0,6 °C 1,6 °C 0,0 km/h (0 Bft)
15.11.2019 22:56 1,6 °C 93 % 1002,1 hPa 0,0 mm 0,0 km/h (0 Bft) SW 221 ° 0 min 0,000 mm 0,0 UV-I 0 W/m² 0,6 °C 1,6 °C 0,0 km/h (0 Bft)
15.11.2019 22:57 1,6 °C 93 % 1002,1 hPa 0,0 mm 0,0 km/h (0 Bft) SW 221 ° 0 min 0,000 mm 0,0 UV-I 0 W/m² 0,6 °C 1,6 °C 0,0 km/h (0 Bft)
15.11.2019 22:58 1,6 °C 93 % 1002,2 hPa 0,0 mm 0,0 km/h (0 Bft) SW 221 ° 0 min 0,000 mm 0,0 UV-I 0 W/m² 0,6 °C 1,6 °C 0,0 km/h (0 Bft)
15.11.2019 22:59 1,6 °C 93 % 1002,1 hPa 0,0 mm 0,0 km/h (0 Bft) SW 221 ° 0 min 0,000 mm 0,0 UV-I 0 W/m² 0,6 °C 1,6 °C 0,0 km/h (0 Bft)
15.11.2019 23:00 1,6 °C 93 % 1002,1 hPa 0,0 mm 0,0 km/h (0 Bft) SW 221 ° 0 min 0,000 mm 0,0 UV-I 0 W/m² 0,6 °C 1,6 °C 0,0 km/h (0 Bft)
15.11.2019 23:01 1,6 °C 93 % 1002,1 hPa 0,0 mm 0,0 km/h (0 Bft) SW 221 ° 0 min 0,000 mm 0,0 UV-I 0 W/m² 0,6 °C 1,6 °C 0,0 km/h (0 Bft)
15.11.2019 23:02 1,6 °C 93 % 1002,1 hPa 0,0 mm 0,0 km/h (0 Bft) SW 221 ° 0 min 0,000 mm 0,0 UV-I 0 W/m² 0,6 °C 1,6 °C 0,0 km/h (0 Bft)
15.11.2019 23:03 1,6 °C 93 % 1002,1 hPa 0,0 mm 0,0 km/h (0 Bft) SW 221 ° 0 min 0,000 mm 0,0 UV-I 0 W/m² 0,6 °C 1,6 °C 0,0 km/h (0 Bft)
15.11.2019 23:04 1,6 °C 93 % 1002,1 hPa 0,0 mm 0,0 km/h (0 Bft) SW 221 ° 0 min 0,000 mm 0,0 UV-I 0 W/m² 0,6 °C 1,6 °C 0,0 km/h (0 Bft)
15.11.2019 23:05 1,6 °C 93 % 1002,1 hPa 0,0 mm 0,0 km/h (0 Bft) SW 221 ° 0 min 0,000 mm 0,0 UV-I 0 W/m² 0,6 °C 1,6 °C 0,0 km/h (0 Bft)
15.11.2019 23:06 1,6 °C 93 % 1002,1 hPa 0,0 mm 0,0 km/h (0 Bft) SW 221 ° 0 min 0,000 mm 0,0 UV-I 0 W/m² 0,6 °C 1,6 °C 0,0 km/h (0 Bft)
15.11.2019 23:07 1,6 °C 93 % 1002,1 hPa 0,0 mm 0,0 km/h (0 Bft) SW 221 ° 0 min 0,000 mm 0,0 UV-I 0 W/m² 0,6 °C 1,6 °C 0,0 km/h (0 Bft)
15.11.2019 23:08 1,6 °C 93 % 1002,1 hPa 0,0 mm 0,0 km/h (0 Bft) SW 221 ° 0 min 0,000 mm 0,0 UV-I 0 W/m² 0,6 °C 1,6 °C 0,0 km/h (0 Bft)
15.11.2019 23:09 1,6 °C 93 % 1002,1 hPa 0,0 mm 0,0 km/h (0 Bft) SW 221 ° 0 min 0,000 mm 0,0 UV-I 0 W/m² 0,6 °C 1,6 °C 0,0 km/h (0 Bft)
15.11.2019 23:10 1,6 °C 93 % 1002,1 hPa 0,0 mm 0,0 km/h (0 Bft) SW 221 ° 0 min 0,000 mm 0,0 UV-I 0 W/m² 0,6 °C 1,6 °C 0,0 km/h (0 Bft)
15.11.2019 23:11 1,6 °C 93 % 1002,1 hPa 0,0 mm 0,0 km/h (0 Bft) SW 221 ° 0 min 0,000 mm 0,0 UV-I 0 W/m² 0,6 °C 1,6 °C 0,0 km/h (0 Bft)
15.11.2019 23:12 1,6 °C 94 % 1002,2 hPa 0,0 mm 0,0 km/h (0 Bft) SW 221 ° 0 min 0,000 mm 0,0 UV-I 0 W/m² 0,7 °C 1,6 °C 0,0 km/h (0 Bft)
15.11.2019 23:13 1,6 °C 94 % 1002,1 hPa 0,0 mm 1,3 km/h (1 Bft) SW 221 ° 0 min 0,000 mm 0,0 UV-I 0 W/m² 0,7 °C 1,6 °C 3,2 km/h (1 Bft)
15.11.2019 23:14 1,6 °C 94 % 1002,1 hPa 0,0 mm 3,7 km/h (1 Bft) SW 221 ° 0 min 0,000 mm 0,0 UV-I 0 W/m² 0,7 °C 1,6 °C 4,8 km/h (1 Bft)
15.11.2019 23:15 1,6 °C 94 % 1002,1 hPa 0,0 mm 4,0 km/h (1 Bft) SW 221 ° 0 min 0,000 mm 0,0 UV-I 0 W/m² 0,7 °C 1,6 °C 4,8 km/h (1 Bft)
15.11.2019 23:16 1,7 °C 94 % 1002,0 hPa 0,0 mm 2,9 km/h (1 Bft) SW 221 ° 0 min 0,000 mm 0,0 UV-I 0 W/m² 0,8 °C 1,7 °C 4,8 km/h (1 Bft)
15.11.2019 23:17 1,7 °C 94 % 1002,0 hPa 0,0 mm 1,4 km/h (1 Bft) SW 221 ° 0 min 0,000 mm 0,0 UV-I 0 W/m² 0,8 °C 1,7 °C 3,2 km/h (1 Bft)
15.11.2019 23:18 1,7 °C 94 % 1002,0 hPa 0,0 mm 1,0 km/h (0 Bft) SW 221 ° 0 min 0,000 mm 0,0 UV-I 0 W/m² 0,8 °C 1,7 °C 3,2 km/h (1 Bft)
15.11.2019 23:19 1,7 °C 94 % 1002,0 hPa 0,0 mm 0,0 km/h (0 Bft) SW 221 ° 0 min 0,000 mm 0,0 UV-I 0 W/m² 0,8 °C 1,7 °C 0,0 km/h (0 Bft)
15.11.2019 23:20 1,6 °C 94 % 1002,1 hPa 0,0 mm 0,0 km/h (0 Bft) SW 221 ° 0 min 0,000 mm 0,0 UV-I 0 W/m² 0,7 °C 1,6 °C 0,0 km/h (0 Bft)
15.11.2019 23:21 1,7 °C 93 % 1002,1 hPa 0,0 mm 0,9 km/h (0 Bft) SW 221 ° 0 min 0,000 mm 0,0 UV-I 0 W/m² 0,7 °C 1,7 °C 3,2 km/h (1 Bft)
15.11.2019 23:22 1,7 °C 93 % 1002,1 hPa 0,0 mm 0,0 km/h (0 Bft) SW 221 ° 0 min 0,000 mm 0,0 UV-I 0 W/m² 0,7 °C 1,7 °C 0,0 km/h (0 Bft)
15.11.2019 23:23 1,7 °C 94 % 1002,2 hPa 0,0 mm 0,0 km/h (0 Bft) SW 221 ° 0 min 0,000 mm 0,0 UV-I 0 W/m² 0,8 °C 1,7 °C 0,0 km/h (0 Bft)
15.11.2019 23:24 1,7 °C 93 % 1002,2 hPa 0,0 mm 0,0 km/h (0 Bft) SW 221 ° 0 min 0,000 mm 0,0 UV-I 0 W/m² 0,7 °C 1,7 °C 0,0 km/h (0 Bft)
15.11.2019 23:25 1,7 °C 94 % 1002,2 hPa 0,0 mm 0,0 km/h (0 Bft) SW 221 ° 0 min 0,000 mm 0,0 UV-I 0 W/m² 0,8 °C 1,7 °C 0,0 km/h (0 Bft)
15.11.2019 23:26 1,7 °C 93 % 1002,2 hPa 0,2 mm 0,0 km/h (0 Bft) SW 221 ° 0 min 0,000 mm 0,0 UV-I 0 W/m² 0,7 °C 1,7 °C 0,0 km/h (0 Bft)
15.11.2019 23:27 1,7 °C 93 % 1002,2 hPa 0,0 mm 0,0 km/h (0 Bft) SW 221 ° 0 min 0,000 mm 0,0 UV-I 0 W/m² 0,7 °C 1,7 °C 0,0 km/h (0 Bft)
15.11.2019 23:28 1,7 °C 93 % 1002,2 hPa 0,0 mm 0,0 km/h (0 Bft) SW 221 ° 0 min 0,000 mm 0,0 UV-I 0 W/m² 0,7 °C 1,7 °C 0,0 km/h (0 Bft)
15.11.2019 23:29 1,7 °C 93 % 1002,2 hPa 0,0 mm 0,0 km/h (0 Bft) SW 221 ° 0 min 0,000 mm 0,0 UV-I 0 W/m² 0,7 °C 1,7 °C 0,0 km/h (0 Bft)
15.11.2019 23:30 1,7 °C 93 % 1002,2 hPa 0,0 mm 0,0 km/h (0 Bft) SW 221 ° 0 min 0,000 mm 0,0 UV-I 0 W/m² 0,7 °C 1,7 °C 0,0 km/h (0 Bft)
15.11.2019 23:31 1,7 °C 93 % 1002,2 hPa 0,0 mm 0,0 km/h (0 Bft) SW 221 ° 0 min 0,000 mm 0,0 UV-I 0 W/m² 0,7 °C 1,7 °C 0,0 km/h (0 Bft)
15.11.2019 23:32 1,7 °C 93 % 1002,2 hPa 0,0 mm 0,0 km/h (0 Bft) SW 221 ° 0 min 0,000 mm 0,0 UV-I 0 W/m² 0,7 °C 1,7 °C 0,0 km/h (0 Bft)
15.11.2019 23:33 1,7 °C 94 % 1002,3 hPa 0,0 mm 0,0 km/h (0 Bft) SW 221 ° 0 min 0,000 mm 0,0 UV-I 0 W/m² 0,8 °C 1,7 °C 0,0 km/h (0 Bft)
15.11.2019 23:34 1,7 °C 93 % 1002,2 hPa 0,0 mm 0,0 km/h (0 Bft) SW 221 ° 0 min 0,000 mm 0,0 UV-I 0 W/m² 0,7 °C 1,7 °C 0,0 km/h (0 Bft)
15.11.2019 23:35 1,7 °C 93 % 1002,2 hPa 0,0 mm 0,0 km/h (0 Bft) SW 221 ° 0 min 0,000 mm 0,0 UV-I 0 W/m² 0,7 °C 1,7 °C 0,0 km/h (0 Bft)
15.11.2019 23:36 1,7 °C 94 % 1002,3 hPa 0,0 mm 0,0 km/h (0 Bft) SW 221 ° 0 min 0,000 mm 0,0 UV-I 0 W/m² 0,8 °C 1,7 °C 0,0 km/h (0 Bft)
15.11.2019 23:37 1,7 °C 94 % 1002,3 hPa 0,0 mm 0,0 km/h (0 Bft) SW 221 ° 0 min 0,000 mm 0,0 UV-I 0 W/m² 0,8 °C 1,7 °C 0,0 km/h (0 Bft)
15.11.2019 23:38 1,7 °C 94 % 1002,3 hPa 0,0 mm 0,0 km/h (0 Bft) SW 221 ° 0 min 0,000 mm 0,0 UV-I 0 W/m² 0,8 °C 1,7 °C 0,0 km/h (0 Bft)
15.11.2019 23:39 1,7 °C 94 % 1002,3 hPa 0,0 mm 0,0 km/h (0 Bft) SW 221 ° 0 min 0,000 mm 0,0 UV-I 0 W/m² 0,8 °C 1,7 °C 0,0 km/h (0 Bft)
15.11.2019 23:40 1,7 °C 94 % 1002,2 hPa 0,0 mm 0,0 km/h (0 Bft) SW 221 ° 0 min 0,000 mm 0,0 UV-I 0 W/m² 0,8 °C 1,7 °C 0,0 km/h (0 Bft)
15.11.2019 23:41 1,7 °C 94 % 1002,3 hPa 0,0 mm 0,4 km/h (0 Bft) SW 221 ° 0 min 0,000 mm 0,0 UV-I 0 W/m² 0,8 °C 1,7 °C 1,6 km/h (1 Bft)
15.11.2019 23:42 1,7 °C 94 % 1002,3 hPa 0,0 mm 0,0 km/h (0 Bft) SW 221 ° 0 min 0,000 mm 0,0 UV-I 0 W/m² 0,8 °C 1,7 °C 0,0 km/h (0 Bft)
15.11.2019 23:43 1,7 °C 94 % 1002,2 hPa 0,0 mm 0,0 km/h (0 Bft) SW 221 ° 0 min 0,000 mm 0,0 UV-I 0 W/m² 0,8 °C 1,7 °C 0,0 km/h (0 Bft)
15.11.2019 23:44 1,6 °C 94 % 1002,2 hPa 0,0 mm 0,0 km/h (0 Bft) SW 221 ° 0 min 0,000 mm 0,0 UV-I 0 W/m² 0,7 °C 1,6 °C 0,0 km/h (0 Bft)
15.11.2019 23:45 1,6 °C 94 % 1002,2 hPa 0,0 mm 0,0 km/h (0 Bft) SW 221 ° 0 min 0,000 mm 0,0 UV-I 0 W/m² 0,7 °C 1,6 °C 0,0 km/h (0 Bft)
15.11.2019 23:46 1,6 °C 94 % 1002,2 hPa 0,0 mm 0,0 km/h (0 Bft) SW 221 ° 0 min 0,000 mm 0,0 UV-I 0 W/m² 0,7 °C 1,6 °C 0,0 km/h (0 Bft)
15.11.2019 23:47 1,6 °C 94 % 1002,2 hPa 0,0 mm 0,2 km/h (0 Bft) SW 221 ° 0 min 0,000 mm 0,0 UV-I 0 W/m² 0,7 °C 1,6 °C 1,6 km/h (1 Bft)
15.11.2019 23:48 1,7 °C 94 % 1002,2 hPa 0,0 mm 0,8 km/h (0 Bft) SW 221 ° 0 min 0,000 mm 0,0 UV-I 0 W/m² 0,8 °C 1,7 °C 1,6 km/h (1 Bft)
15.11.2019 23:49 1,6 °C 94 % 1002,3 hPa 0,0 mm 0,1 km/h (0 Bft) SW 221 ° 0 min 0,000 mm 0,0 UV-I 0 W/m² 0,7 °C 1,6 °C 1,6 km/h (1 Bft)
15.11.2019 23:50 1,6 °C 94 % 1002,3 hPa 0,0 mm 0,0 km/h (0 Bft) SW 221 ° 0 min 0,000 mm 0,0 UV-I 0 W/m² 0,7 °C 1,6 °C 0,0 km/h (0 Bft)
15.11.2019 23:51 1,6 °C 94 % 1002,3 hPa 0,0 mm 0,0 km/h (0 Bft) SW 221 ° 0 min 0,000 mm 0,0 UV-I 0 W/m² 0,7 °C 1,6 °C 0,0 km/h (0 Bft)
15.11.2019 23:52 1,6 °C 93 % 1002,3 hPa 0,0 mm 0,0 km/h (0 Bft) SW 221 ° 0 min 0,000 mm 0,0 UV-I 0 W/m² 0,6 °C 1,6 °C 0,0 km/h (0 Bft)
15.11.2019 23:53 1,6 °C 93 % 1002,3 hPa 0,0 mm 0,0 km/h (0 Bft) SW 221 ° 0 min 0,000 mm 0,0 UV-I 0 W/m² 0,6 °C 1,6 °C 0,0 km/h (0 Bft)
15.11.2019 23:54 1,6 °C 94 % 1002,3 hPa 0,0 mm 0,0 km/h (0 Bft) SW 221 ° 0 min 0,000 mm 0,0 UV-I 0 W/m² 0,7 °C 1,6 °C 0,0 km/h (0 Bft)
15.11.2019 23:55 1,6 °C 93 % 1002,3 hPa 0,0 mm 0,0 km/h (0 Bft) SW 221 ° 0 min 0,000 mm 0,0 UV-I 0 W/m² 0,6 °C 1,6 °C 0,0 km/h (0 Bft)
15.11.2019 23:56 1,6 °C 94 % 1002,3 hPa 0,0 mm 0,0 km/h (0 Bft) SW 221 ° 0 min 0,000 mm 0,0 UV-I 0 W/m² 0,7 °C 1,6 °C 0,0 km/h (0 Bft)
15.11.2019 23:57 1,6 °C 94 % 1002,3 hPa 0,0 mm 0,0 km/h (0 Bft) SW 221 ° 0 min 0,000 mm 0,0 UV-I 0 W/m² 0,7 °C 1,6 °C 0,0 km/h (0 Bft)
15.11.2019 23:58 1,6 °C 93 % 1002,3 hPa 0,0 mm 0,0 km/h (0 Bft) SW 221 ° 0 min 0,000 mm 0,0 UV-I 0 W/m² 0,6 °C 1,6 °C 0,0 km/h (0 Bft)
15.11.2019 23:59 1,6 °C 93 % 1002,3 hPa 0,0 mm 0,0 km/h (0 Bft) SW 221 ° 0 min 0,000 mm 0,0 UV-I 0 W/m² 0,6 °C 1,6 °C 0,0 km/h (0 Bft)
_ Min-Zeit 05:40 09:53 06:48 - 23:59 - - - - - - 02:11 06:38 23:59
Minimum _ -1,4 °C 63 % 993,2 hPa - 0,0 km/h (0 Bft) - - - - - - -3,1 °C -3,9 °C 0,0 km/h (0 Bft)
_ Max-Zeit 09:56 23:57 19:47 23:26 10:24 - - 23:59 14:01 13:51 13:50 15:25 09:58 11:12
Maximum _ 8,5 °C 94 % 1003,8 hPa 0,2 mm 25,9 km/h
W (4 Bft)
- - 0 min 0,076 mm 1,4 UV-I 422 W/m² 2,6 °C 8,4 °C 48,3 km/h
W-NW (6 Bft)
Durchschnitt _ 2,4 °C 86 % 999,5 hPa #13,0 mm 2,5 km/h (1 Bft) S-SW - #0 min. #0,381 mm 0,8 UV-I 31 W/m² 0,2 °C 2,0 °C 3,9 km/h (1 Bft)